GFSSE_250_rhum_000.txt.gz
RH
34 32 32 28 28 32 29 26 24 21 20 21 22 20 16 13 11 12 15 17 17 19 22 23 28 26 26 29 26 26 20 24 21 16 19 34 42 39 35 36 34 27 23
39 34 31 29 29 28 32 29 27 25 20 18 19 18 17 12 10 11 14 18 19 22 29 30 29 36 30 34 40 35 33 34 34 28 31 47 47 38 35 33 32 28 24
45 43 39 34 29 28 32 32 30 27 24 20 23 21 16 11 10 11 15 23 26 34 73 66 68 58 42 46 40 40 40 40 46 53 51 42 37 32 33 33 33 29 23
37 37 38 37 39 36 34 31 31 26 23 22 23 22 15 11 10 14 25 38 46 88 92 76 61 59 63 57 51 46 45 44 44 42 43 38 37 36 35 35 32 25 16
36 38 36 32 33 37 31 34 34 30 28 26 26 24 14 11 11 21 38 81 89 85 94 64 92 100 100 85 58 55 56 54 54 51 56 58 48 36 34 29 26 18 21
31 40 41 35 29 28 33 35 35 34 32 29 27 25 14 11 14 28 54 88 65 75 81 100 99 100 91 66 58 54 51 46 44 40 45 46 47 36 29 24 18 21 27
34 42 42 34 24 22 21 26 29 29 28 28 26 23 12 12 18 34 82 99 64 100 100 100 100 98 87 58 50 61 58 53 61 49 50 43 38 30 21 18 20 28 30
47 44 37 28 22 17 21 21 25 23 23 25 29 19 12 14 21 46 80 49 80 100 100 100 100 96 59 63 74 66 53 59 58 50 46 42 35 25 19 23 30 32 32
67 63 48 33 20 16 20 22 23 22 24 30 27 15 13 18 23 32 74 100 100 100 100 99 60 66 73 76 40 56 54 58 54 49 36 34 31 24 25 31 32 34 38
56 47 32 25 21 18 21 22 21 24 28 32 21 14 14 22 29 34 57 100 100 100 99 65 100 100 98 55 44 53 54 56 50 54 42 27 29 27 30 35 36 41 40
49 31 26 24 21 21 24 22 23 31 36 31 16 12 15 22 31 40 84 100 100 100 100 100 100 95 68 81 55 57 49 53 59 49 38 21 29 31 31 39 42 41 45
31 26 25 21 22 23 24 29 36 40 40 23 14 11 17 22 38 72 100 100 100 100 97 100 98 100 79 53 52 63 58 61 43 34 27 24 28 29 30 36 40 44 44
22 23 23 23 25 25 34 46 53 47 33 18 12 11 18 26 62 77 97 100 100 100 100 100 100 81 57 51 60 62 60 50 32 30 30 26 27 28 28 32 38 42 44
21 23 24 25 27 37 61 66 56 44 22 19 10 14 23 32 68 100 94 100 100 100 100 100 83 64 66 62 73 63 58 48 32 33 35 29 31 33 34 36 38 39 39
22 24 28 31 51 63 74 62 51 26 24 15 10 16 28 40 73 91 98 100 100 100 90 98 80 72 70 66 76 60 60 56 34 35 35 32 32 33 34 36 37 39 41
23 26 34 50 74 74 60 50 31 30 23 11 12 17 28 49 98 100 96 100 100 94 96 87 76 86 73 63 66 57 59 60 35 33 34 33 32 33 36 42 43 42 41
28 39 56 73 60 55 48 36 32 32 17 14 14 18 35 69 67 78 92 93 100 89 83 91 88 72 69 57 83 67 64 51 32 30 33 35 35 36 38 45 47 49 51
46 90 83 76 63 55 38 34 29 28 20 18 18 22 32 54 71 85 81 86 93 85 81 74 63 56 58 80 80 79 70 45 34 28 30 33 37 38 37 41 42 49 57
91 91 86 70 63 46 37 31 30 31 24 25 22 23 33 46 57 70 70 68 61 58 49 52 59 72 85 79 74 63 58 53 37 32 30 33 37 40 45 51 55 51 44
100 99 85 66 48 36 26 22 29 33 32 30 28 23 28 36 46 50 49 42 45 58 67 74 86 76 69 61 59 47 40 38 41 42 45 42 41 39 40 38 36 38 41
100 98 77 59 37 30 25 20 21 34 39 40 37 35 31 34 37 44 50 55 65 92 91 73 62 57 42 37 43 49 50 51 54 51 55 52 49 52 47 41 38 37 36
91 91 68 51 41 31 29 23 22 24 33 44 53 58 61 64 71 84 92 95 92 80 75 64 44 48 49 45 43 44 54 83 72 61 61 62 60 62 56 57 59 61 60
100 94 70 62 53 38 27 26 27 29 36 38 46 64 76 80 83 85 84 75 70 65 53 46 54 54 59 66 57 41 39 43 46 58 70 65 59 58 63 70 73 81 83
95 87 80 74 54 44 34 31 29 26 25 28 38 42 51 58 60 61 61 65 65 54 57 66 64 60 56 48 53 62 60 47 40 41 44 46 57 66 77 82 89 82 73
62 75 83 82 81 57 40 37 33 31 30 30 29 33 36 38 41 46 53 58 59 66 68 61 57 56 58 67 68 70 72 74 67 45 40 39 50 52 53 48 40 38 40
30 56 79 93 100 88 66 47 39 38 37 36 38 41 43 45 50 55 58 61 64 64 66 72 77 79 78 73 68 63 58 53 55 60 52 40 34 35 34 37 38 37 39

GFSSE_250_rhum_003.txt.gz
RH
39 41 37 32 28 24 24 26 27 26 25 25 23 23 19 18 18 19 19 16 12 11 12 16 18 19 24 27 29 25 25 22 21 22 19 18 18 20 17 29 36 46 43
42 42 41 40 40 33 30 28 25 27 29 26 27 24 22 20 20 20 18 15 11 10 12 19 21 24 31 37 35 40 35 33 35 28 26 28 32 36 35 48 40 43 40
40 34 34 35 35 36 36 35 36 38 37 33 27 26 23 23 22 23 21 13 10 11 19 27 35 53 100 75 67 60 47 44 37 37 38 33 37 41 57 44 40 38 39
46 35 33 36 33 30 32 32 30 31 36 34 31 28 25 26 26 23 21 13 10 15 30 41 56 100 100 81 68 52 63 58 62 43 43 39 41 50 49 42 42 45 40
34 32 27 27 35 29 27 26 25 24 21 25 29 28 25 23 21 22 20 11 10 22 44 50 98 100 98 72 77 100 96 69 59 52 54 44 41 43 43 48 49 43 34
30 26 26 30 32 29 27 29 26 22 17 16 19 23 23 21 21 21 15 10 12 28 67 100 100 97 58 70 82 71 74 63 53 54 56 60 59 51 42 42 42 33 29
35 27 37 39 31 32 27 26 30 28 24 15 17 19 21 21 23 19 12 10 15 34 83 98 62 82 100 100 100 100 63 53 74 72 57 63 60 51 47 44 38 30 21
64 38 34 38 32 27 32 34 36 30 20 16 17 21 24 26 23 16 11 12 19 39 100 79 89 100 100 100 98 85 56 70 58 53 58 63 59 51 40 37 35 27 19
70 38 38 34 26 22 28 34 31 24 20 18 22 25 30 33 22 13 12 14 20 74 65 76 90 100 100 96 67 54 74 84 49 36 50 59 63 58 50 34 31 28 24
51 32 36 32 31 33 38 35 27 24 18 21 26 32 44 32 16 12 14 18 22 37 98 100 100 100 84 79 90 100 98 67 45 41 60 70 68 54 47 37 27 31 32
33 28 28 33 38 42 37 23 20 20 26 29 40 52 40 22 13 13 17 22 25 29 92 100 100 100 100 100 100 99 73 68 40 51 58 63 54 38 35 28 23 31 34
26 34 45 45 44 38 21 17 20 27 28 44 56 50 28 18 11 12 18 23 29 37 81 100 100 100 100 91 69 99 90 54 38 65 66 61 44 32 35 31 33 37 36
42 48 52 34 25 19 20 21 25 38 49 64 56 38 21 18 10 13 18 25 35 67 100 100 100 100 100 100 100 99 71 46 46 68 71 56 52 34 38 37 34 37 36
53 34 27 20 18 19 23 27 39 51 64 57 43 26 24 16 10 15 20 28 57 82 100 100 100 100 100 100 100 65 52 52 64 63 66 59 56 39 34 37 33 34 34
32 24 19 20 20 22 26 42 50 64 51 42 29 31 21 12 11 16 20 28 73 81 96 100 100 100 100 99 90 58 69 54 82 62 76 68 63 46 32 34 35 33 34
22 20 20 22 23 24 39 48 60 52 42 32 28 27 16 13 13 18 26 42 69 85 90 94 98 100 98 100 69 70 72 84 67 58 85 79 70 56 37 29 33 36 36
21 21 20 23 26 42 60 65 58 52 40 35 28 25 18 15 15 20 27 49 82 100 100 100 90 82 78 69 66 76 74 62 55 66 80 74 66 64 50 31 24 28 30
22 20 25 26 54 85 76 66 48 39 32 28 28 28 21 21 17 20 29 54 66 87 75 76 77 80 82 81 80 66 60 72 88 87 70 56 57 45 42 43 38 34 31
19 27 27 58 85 82 69 61 44 33 31 33 32 30 28 28 23 21 24 38 51 47 54 52 48 54 56 55 55 67 86 96 78 67 54 49 47 54 60 65 72 77 72
23 30 52 97 83 82 70 49 34 28 29 35 36 37 33 33 31 25 27 30 35 47 49 49 47 52 62 72 90 98 78 66 47 49 58 58 62 66 62 70 69 67 75
36 43 99 84 91 99 72 42 34 30 25 26 33 37 40 42 42 38 36 36 40 44 48 60 76 89 95 82 75 70 54 46 60 56 60 68 68 69 73 72 68 64 70
49 86 99 94 92 84 59 51 46 35 26 26 28 29 36 46 52 55 60 64 68 74 84 94 93 91 83 67 54 44 48 69 65 64 64 64 66 69 75 69 58 56 44
37 67 67 100 88 80 75 68 58 47 36 33 32 30 28 32 43 58 65 69 73 72 62 57 59 58 62 62 56 56 53 55 58 68 85 95 86 70 66 76 75 78 77
27 31 61 79 81 81 71 77 76 61 43 40 38 35 34 31 32 33 37 42 41 42 46 47 49 57 65 74 78 74 62 56 53 56 60 61 64 66 64 62 63 66 64
21 22 24 30 35 61 80 77 77 75 67 71 67 61 46 42 41 41 42 42 43 45 50 57 64 69 60 56 59 66 69 66 66 63 54 47 50 53 58 58 50 45 43
21 20 19 19 20 24 31 40 43 54 50 57 69 65 61 72 75 70 67 66 65 61 59 58 59 64 66 75 81 79 74 66 60 53 51 58 56 48 46 46 44 43 42

GFSSE_250_rhum_006.txt.gz
RH
37 36 38 36 36 34 30 27 25 24 26 26 23 24 24 21 22 22 20 20 19 18 20 20 16 12 11 14 19 23 24 26 26 25 22 22 20 22 23 21 22 21 20
54 40 41 38 34 32 32 33 34 32 36 34 33 33 30 28 26 26 22 21 23 24 22 22 17 11 11 19 23 36 36 39 41 35 30 36 36 32 30 26 26 26 32
78 49 40 38 39 36 32 31 30 29 29 32 31 30 28 28 29 28 28 26 25 22 22 21 16 12 16 27 41 71 100 100 77 60 51 52 52 52 37 31 35 38 40
84 59 89 66 36 29 29 27 27 29 29 24 25 25 22 17 19 25 24 25 24 20 18 19 13 12 22 32 66 100 100 100 68 49 89 82 61 51 42 38 41 42 43
91 72 45 31 28 25 22 21 22 24 28 26 23 24 26 27 18 16 18 21 22 19 20 16 11 16 30 48 100 100 100 89 75 100 75 60 64 55 53 51 53 50 45
100 87 62 43 37 23 22 20 21 22 24 24 26 25 25 25 20 15 17 19 20 22 18 12 11 20 39 56 100 100 92 57 76 95 78 54 53 57 55 56 52 53 49
100 99 68 44 38 30 34 23 22 24 26 22 20 27 29 26 22 16 18 21 22 20 15 11 11 24 74 100 96 65 81 97 100 100 68 63 64 50 42 52 55 56 46
100 100 69 42 39 26 28 23 26 27 24 19 20 26 24 26 20 19 22 26 26 18 12 10 12 25 98 91 46 94 100 100 100 74 55 81 73 44 39 45 55 58 63
100 94 54 43 33 28 27 28 27 27 21 30 34 32 17 16 16 21 28 34 24 14 11 10 14 30 88 66 93 100 100 100 92 78 99 88 62 43 54 66 60 58 51
78 56 45 41 36 28 29 25 27 30 34 35 32 19 14 18 25 36 41 32 17 12 11 13 18 56 83 100 100 100 100 100 93 100 100 90 58 42 55 68 60 46 42
56 38 40 50 40 32 30 24 34 40 30 23 19 15 20 24 32 50 38 21 14 12 16 17 20 60 90 98 99 100 100 100 100 100 76 61 68 42 68 70 64 43 34
44 34 36 40 35 38 42 49 44 32 20 17 16 19 31 41 51 46 25 19 12 12 18 20 23 47 100 100 100 100 100 100 100 84 99 92 62 36 64 70 63 58 36
47 40 48 41 52 63 54 40 29 20 17 18 21 28 51 55 48 28 22 19 10 12 18 23 27 30 74 100 100 100 100 100 100 100 96 72 44 43 68 63 70 66 47
60 54 64 55 51 52 35 27 21 17 19 21 31 55 59 48 30 22 22 14 10 13 19 24 29 37 82 100 100 100 100 100 100 100 92 69 44 56 67 57 75 74 67
70 72 48 41 43 34 25 19 18 18 21 33 49 60 50 37 26 23 19 12 11 14 18 23 31 52 99 100 100 100 100 100 98 78 78 75 50 64 66 56 70 82 74
70 58 50 40 32 22 19 19 19 22 29 56 67 55 45 35 34 30 20 14 12 16 21 24 29 44 86 98 100 100 100 100 100 77 82 68 65 69 57 69 72 74 68
65 59 43 26 20 20 19 23 24 38 55 73 61 44 40 34 34 29 22 19 16 17 21 28 36 56 60 65 71 80 85 79 80 71 58 58 72 58 77 93 77 64 55
52 32 21 21 19 19 25 28 75 76 86 71 55 36 34 34 34 31 24 24 21 17 20 27 36 58 91 100 93 82 72 56 55 53 68 64 53 80 100 86 66 54 52
24 19 18 17 18 21 30 68 89 87 77 70 39 29 27 29 31 34 31 32 30 22 21 24 32 51 61 57 61 50 50 52 54 56 59 71 95 97 83 61 65 72 84
21 18 17 18 26 34 56 96 93 86 88 44 32 29 25 29 30 28 33 38 38 36 30 28 30 33 35 36 40 45 53 59 58 70 87 98 94 80 52 51 58 64 70
19 17 19 22 34 63 78 88 94 100 80 46 44 39 30 30 29 28 31 34 38 47 50 48 47 48 49 52 55 66 76 87 96 99 100 86 78 67 67 79 84 80 74
17 17 18 25 65 91 80 95 100 90 72 70 63 57 41 36 35 36 35 33 32 36 41 50 61 71 74 74 82 83 89 95 74 67 66 65 63 75 80 73 63 60 63
19 20 24 27 61 75 86 85 84 76 71 72 81 79 65 54 54 50 49 49 45 42 40 39 41 42 47 46 44 46 48 51 51 63 66 71 67 69 77 77 72 69 69
23 20 19 22 26 30 33 33 38 52 65 70 71 64 63 52 53 60 60 60 64 69 71 67 66 64 69 70 68 69 68 63 61 61 71 81 87 94 89 77 78 83 77
22 21 19 20 21 21 20 19 18 19 19 19 18 19 21 20 20 20 21 20 21 21 24 26 28 28 26 26 28 47 67 68 65 58 67 88 87 77 57 66 74 73 71
22 20 20 21 20 22 23 22 20 16 16 16 16 14 15 15 15 15 16 17 17 18 17 17 18 20 23 24 24 28 36 39 41 49 51 54 60 68 73 70 62 58 47

GFSSE_250_rhum_012.txt.gz
RH
57 67 100 78 54 43 46 41 39 37 25 22 19 18 19 19 18 19 19 19 20 19 17 19 20 22 21 19 20 20 20 22 24 25 22 21 19 16 14 14 17 17 21
60 56 94 92 69 60 62 63 67 49 33 28 25 24 23 24 23 23 22 21 21 21 22 21 21 19 19 20 21 20 24 23 22 25 24 22 19 18 16 20 22 26 31
62 51 98 100 89 79 83 81 76 66 55 44 36 29 23 20 19 18 18 16 17 22 24 24 22 23 26 26 22 17 19 20 22 23 22 21 20 22 45 54 52 44 47
75 69 75 99 87 95 100 97 93 76 57 44 33 29 25 19 18 17 17 20 22 25 24 25 22 23 21 20 24 21 17 20 24 25 24 19 26 48 89 94 94 71 86
89 89 82 100 100 100 100 100 99 92 82 71 61 56 31 22 21 18 19 25 27 29 27 22 21 20 26 24 24 21 22 26 28 25 20 18 34 88 100 100 77 74 68
100 100 91 93 100 100 100 100 100 100 100 100 83 43 27 23 21 22 20 17 19 23 26 25 20 19 20 18 18 18 27 29 27 19 18 18 47 100 100 100 87 72 85
90 98 100 100 100 100 100 100 100 98 77 95 79 46 29 25 24 20 19 20 17 18 21 21 17 17 17 18 20 25 32 31 20 16 18 26 71 100 100 88 79 97 100
91 98 100 100 100 100 97 100 98 99 90 89 65 42 32 26 23 21 19 21 20 19 21 16 14 16 21 31 36 38 35 25 15 14 17 35 67 100 100 93 85 100 100
84 93 85 86 88 100 98 100 94 81 99 90 66 52 31 24 23 21 21 25 27 24 17 16 19 24 44 48 57 41 25 15 13 15 23 56 100 100 98 81 100 100 100
100 100 98 78 87 100 100 86 91 100 96 55 44 36 26 24 26 24 26 26 24 18 16 22 26 49 58 56 50 26 17 14 13 15 43 81 100 100 94 98 99 100 100
89 98 99 100 100 98 72 84 98 99 72 50 36 31 30 32 34 32 29 21 19 18 22 32 58 65 61 50 29 20 15 15 15 19 46 100 100 100 100 100 100 100 100
55 53 57 55 94 100 98 84 69 68 55 46 36 33 43 38 36 37 21 17 18 21 39 59 68 64 43 30 24 18 14 17 17 20 35 92 100 100 100 94 100 100 100
91 84 66 46 48 68 79 76 65 55 45 43 37 42 44 34 40 26 18 18 22 32 61 72 60 38 31 28 21 15 12 17 20 20 29 86 100 99 82 65 97 100 100
100 99 90 72 56 60 62 72 74 63 58 48 40 41 40 40 30 20 19 22 27 50 70 56 42 32 28 24 19 13 12 16 21 21 24 74 94 93 85 100 100 100 100
76 94 96 81 74 74 75 63 58 62 50 48 49 42 53 39 20 21 29 40 69 69 55 42 37 29 29 26 21 16 12 14 19 25 23 33 73 94 100 100 100 100 100
78 87 85 97 100 99 84 63 61 69 52 54 56 58 43 19 20 26 39 70 74 56 36 27 24 25 31 27 26 23 17 15 16 19 25 26 34 56 85 93 94 100 100
91 100 91 100 100 100 87 79 67 52 61 59 53 48 21 20 27 38 72 82 65 32 27 25 25 29 31 31 32 34 30 20 19 17 18 21 29 35 59 93 86 92 82
100 94 88 88 83 93 88 66 69 63 77 57 53 21 21 35 57 73 81 74 54 48 33 29 27 28 29 28 28 32 36 40 34 24 23 22 19 21 31 64 82 86 90
100 98 97 94 78 86 73 63 76 76 73 48 23 22 29 60 78 96 88 86 79 67 52 43 40 38 38 36 34 31 29 34 39 45 46 42 38 34 31 30 33 38 42
96 98 92 83 86 90 94 74 78 72 39 21 22 27 65 83 97 100 97 84 73 70 66 57 51 47 50 49 48 48 47 44 39 36 36 42 48 57 61 63 64 62 61
49 62 67 73 84 100 94 77 62 23 18 22 19 57 86 91 87 95 85 66 61 57 50 46 44 38 31 33 36 39 37 39 45 48 49 50 49 48 46 45 46 48 51
43 54 56 67 87 66 49 29 19 18 22 20 40 85 69 48 47 45 47 40 31 21 17 16 16 15 14 15 15 16 17 16 17 18 18 18 19 21 24 28 37 43 46
43 62 78 59 41 28 22 19 19 26 24 38 48 39 28 22 20 20 19 20 20 20 18 18 18 18 18 16 16 15 15 16 16 17 16 15 14 15 15 15 16 16 17
63 75 46 34 27 23 21 28 36 32 29 28 24 23 22 21 19 20 21 22 22 20 19 18 18 18 17 16 15 15 15 15 15 20 26 25 23 23 24 30 31 30 29
71 51 36 30 28 33 32 30 28 26 25 24 24 22 21 20 21 25 24 23 21 19 17 16 16 15 14 14 14 14 13 12 11 10 12 18 24 28 29 29 29 31 34
60 39 35 31 31 30 29 28 26 25 25 24 23 25 28 28 26 25 24 22 20 19 18 17 15 13 14 13 12 13 13 12 12 12 13 14 13 22 23 32 43 46 44

GFSSE_250_rhum_015.txt.gz
RH
57 68 85 94 70 67 96 81 56 49 49 52 54 40 23 20 19 19 18 18 18 18 18 17 17 17 17 18 18 18 18 19 19 20 21 20 22 24 23 23 23 22 21
58 56 56 56 52 52 89 83 71 64 60 64 68 56 40 29 30 26 24 21 19 17 16 15 15 15 16 16 21 22 23 25 27 26 24 20 18 21 24 26 25 24 23
53 58 54 48 45 44 87 99 80 68 76 78 75 62 47 40 33 32 40 25 20 18 18 17 17 17 21 23 24 22 24 23 23 22 24 25 21 20 24 27 27 26 23
77 64 59 54 48 44 48 100 97 89 100 95 86 69 70 64 69 63 49 30 22 19 18 18 17 16 19 24 24 25 22 21 20 22 22 24 23 22 25 27 26 24 24
100 90 71 60 57 50 51 72 100 100 100 99 87 87 97 96 82 67 49 36 24 20 17 20 18 17 18 17 18 20 19 18 18 20 18 20 22 28 27 25 25 22 49
97 100 100 82 66 56 63 62 91 100 100 96 100 100 100 83 74 77 55 44 33 26 23 19 17 17 17 18 18 16 17 15 15 17 22 24 31 30 28 23 23 31 88
92 100 100 100 88 77 89 89 95 100 100 94 100 99 84 95 78 78 64 53 38 23 22 19 18 19 22 22 19 14 14 14 19 24 30 38 39 33 24 19 27 77 100
100 99 100 100 98 88 92 100 100 100 100 100 100 100 100 100 95 72 44 33 26 22 21 25 26 21 18 18 16 16 19 23 36 42 45 48 34 24 16 25 30 80 100
100 100 100 100 100 92 93 94 100 100 100 100 100 83 70 65 87 69 44 34 25 20 24 27 27 18 16 17 21 26 37 38 44 55 48 36 19 15 15 23 39 82 99
98 100 100 100 99 91 68 69 78 71 88 100 98 67 91 96 80 51 42 34 29 26 23 31 22 16 17 20 29 49 56 56 58 46 30 20 16 14 18 24 53 81 100
97 93 82 84 100 100 100 100 100 100 100 100 93 87 90 70 56 46 39 38 34 21 29 28 18 17 22 36 54 63 65 50 35 27 22 18 15 15 17 26 74 96 100
93 83 78 73 71 76 83 94 77 55 65 84 96 88 74 61 54 47 44 38 36 36 37 21 18 22 30 58 65 52 38 32 28 23 17 14 12 16 17 26 89 100 100
100 92 89 95 91 68 57 59 63 54 53 57 55 58 64 55 53 48 46 37 46 43 32 19 24 41 62 62 48 41 38 30 28 22 16 13 14 18 19 28 60 89 100
100 100 100 100 94 82 64 64 61 60 49 49 57 53 58 52 43 54 49 48 37 39 23 25 39 66 59 44 32 27 30 33 26 23 21 16 13 17 22 22 30 72 94
98 92 100 98 92 87 93 87 81 84 79 70 65 66 68 55 57 54 43 59 47 32 23 39 60 59 38 32 26 28 32 32 31 31 29 22 16 17 20 22 24 37 82
100 100 84 100 93 94 86 86 93 98 89 83 75 74 74 77 61 54 55 50 30 26 39 52 64 48 34 27 26 26 28 28 30 32 34 36 28 20 19 20 23 26 27
100 100 100 94 86 84 77 73 68 64 78 83 76 88 78 81 62 60 58 35 24 41 72 78 68 63 51 42 36 36 37 36 32 28 27 31 35 38 30 23 23 24 24
63 98 100 100 100 100 100 100 79 100 100 71 81 83 94 73 58 61 32 23 47 77 81 85 74 76 68 63 56 45 41 39 39 39 40 42 37 34 38 44 44 36 30
34 47 83 93 100 100 100 96 93 87 86 90 95 96 92 78 70 34 20 50 75 100 100 100 86 70 62 54 48 46 42 37 33 34 37 39 39 42 46 46 42 39 40
30 27 29 37 68 99 100 100 100 100 98 93 90 89 83 77 39 19 41 73 71 70 74 61 44 32 25 20 20 18 17 16 16 15 15 14 15 16 17 20 27 34 40
31 27 29 47 75 93 91 100 100 100 94 92 92 90 67 26 21 28 62 56 38 34 30 24 22 23 23 23 23 22 22 21 20 18 18 17 15 15 15 15 14 14 14
30 28 26 43 66 80 92 98 100 100 100 96 68 40 19 23 30 48 40 26 23 21 22 25 24 21 21 20 18 18 17 16 15 16 16 16 15 16 15 14 14 15 16
30 26 25 28 36 71 91 97 95 74 46 34 23 20 31 38 34 29 28 23 21 22 24 25 24 22 20 19 20 19 19 20 20 21 18 16 15 14 14 14 15 14 14
30 29 25 26 37 63 89 67 39 30 23 20 28 42 36 29 26 26 24 24 25 25 26 26 24 23 22 20 21 20 18 17 18 19 25 25 23 22 22 22 21 20 20
29 31 28 29 43 79 58 38 31 28 31 38 37 33 29 26 26 25 24 25 26 25 24 24 23 22 22 22 21 21 20 15 13 14 14 19 23 26 25 25 24 25 26
30 35 30 29 63 65 42 35 33 38 34 32 32 28 27 28 28 28 26 28 30 27 24 24 22 21 21 20 22 22 18 15 16 14 11 11 13 22 22 26 28 29 30

GFSSE_250_rhum_018.txt.gz
RH
51 51 51 48 55 65 68 87 72 64 90 78 58 53 60 60 52 45 27 26 28 26 26 24 20 19 17 16 14 14 14 13 13 15 15 18 18 21 21 22 22 22 20
51 52 54 53 51 63 86 90 63 46 89 96 80 60 61 75 78 67 57 40 34 31 29 30 28 22 18 16 15 17 16 15 14 14 19 21 21 23 21 22 22 20 23
69 57 55 55 56 48 46 49 49 44 60 88 87 71 65 83 87 52 51 52 45 39 36 35 29 28 25 23 21 20 18 16 16 17 17 18 21 21 20 20 20 22 24
82 77 67 60 59 54 51 49 51 50 48 66 78 67 91 89 94 74 72 78 65 47 40 39 39 36 32 30 23 20 18 17 17 16 16 16 17 18 18 18 23 23 24
90 81 79 77 64 65 60 50 46 46 45 50 67 78 99 88 90 96 99 86 61 47 47 55 48 38 28 19 18 20 21 21 17 17 19 18 16 15 17 20 25 30 32
100 98 85 83 84 78 69 64 61 54 48 48 61 60 86 100 96 100 97 79 64 58 66 54 43 31 27 25 20 21 22 17 14 16 16 15 14 18 23 32 36 41 38
100 100 100 92 95 100 93 82 82 77 66 56 49 50 74 100 100 99 92 95 91 77 47 51 55 36 30 25 20 22 21 13 13 15 17 19 24 32 38 37 42 42 41
100 100 100 100 97 92 96 98 86 83 78 75 76 87 98 100 100 100 100 95 70 51 61 58 40 34 28 23 24 26 18 14 14 18 25 33 40 48 54 55 49 42 32
100 100 100 100 100 100 96 99 98 93 82 68 71 72 88 100 100 100 91 74 65 59 49 45 42 36 28 25 31 27 16 17 19 38 44 57 55 57 54 45 32 23 18
100 100 100 100 100 100 100 100 100 97 87 76 58 66 61 66 100 95 91 78 58 48 47 42 35 36 28 27 34 18 18 22 37 53 58 49 37 32 28 25 22 19 16
100 100 100 99 92 100 100 100 100 100 100 96 100 100 94 72 69 66 58 63 62 45 44 36 35 33 30 38 28 20 25 39 57 53 43 37 27 26 24 18 15 14 14
100 100 100 98 88 100 100 100 100 86 80 78 90 96 91 86 64 57 58 47 43 42 44 40 37 33 37 34 21 25 48 53 48 35 28 27 30 26 22 18 15 14 16
100 100 100 100 98 97 98 100 95 93 93 82 81 78 75 68 58 51 48 48 49 51 51 48 44 40 44 25 27 49 54 40 33 25 24 29 29 27 27 25 18 14 16
92 100 100 100 100 100 100 100 100 92 85 89 87 69 62 69 62 60 64 69 69 57 55 52 46 45 32 30 47 52 37 30 27 26 26 26 28 28 29 32 28 19 16
25 42 93 97 96 98 90 98 100 100 89 86 90 80 80 85 83 89 90 76 60 55 63 58 54 38 31 52 63 58 53 49 49 40 37 38 36 32 30 28 30 31 24
21 18 28 74 97 97 78 85 96 100 91 85 93 96 94 90 97 88 83 62 56 62 83 65 43 26 54 58 71 66 60 58 57 57 53 49 46 44 43 41 40 37 32
21 22 19 17 22 58 90 89 86 92 88 76 87 91 85 77 69 94 84 68 64 76 81 55 27 42 68 64 63 66 60 55 48 43 42 40 34 28 27 28 36 42 41
22 21 22 19 16 32 78 93 76 70 59 63 74 83 82 89 100 100 75 80 77 72 66 28 42 60 64 67 61 43 28 23 20 18 18 17 16 16 16 15 15 15 14
22 23 25 26 23 30 62 90 92 91 84 90 96 100 100 100 100 90 88 85 83 71 32 37 48 41 46 37 29 23 21 20 20 19 19 18 18 17 17 17 18 18 17
24 24 24 28 26 22 21 47 76 86 96 100 100 100 100 100 100 90 87 94 76 29 34 50 28 24 24 23 22 22 22 21 20 20 19 19 20 20 20 18 16 16 15
25 24 24 28 29 25 21 19 21 21 32 54 91 100 100 100 98 86 98 66 27 29 41 32 23 24 25 24 25 25 26 25 24 24 25 26 24 24 24 22 19 17 16
28 29 26 28 34 30 24 22 37 47 94 100 100 100 100 100 90 87 50 22 35 38 29 28 25 24 26 27 28 28 26 24 24 25 24 23 23 24 24 22 21 18 16
30 32 30 29 34 34 28 26 44 64 95 100 100 100 94 77 55 27 26 37 36 29 28 27 28 26 29 28 28 26 25 26 24 27 25 23 23 24 22 17 16 15 14
27 30 33 32 33 35 31 28 34 39 76 84 87 61 42 29 31 40 38 32 29 28 28 27 29 29 28 28 27 25 26 26 26 27 30 28 28 27 22 20 18 17 16
29 32 32 34 33 32 31 29 30 50 68 79 50 34 26 43 44 38 30 30 28 28 30 32 31 33 31 32 29 28 26 26 22 19 20 25 27 22 20 19 20 22 24
32 33 36 33 33 33 31 29 34 54 76 51 36 34 42 40 32 30 31 30 31 31 31 32 35 37 35 32 32 30 29 26 24 21 24 22 17 19 18 20 27 30 32

GFSSE_250_rhum_024.txt.gz
RH
40 40 32 40 33 37 41 49 40 32 35 41 44 43 42 44 40 42 56 61 58 77 85 85 70 66 54 50 44 38 32 29 24 27 23 26 27 29 23 20 17 18 18
56 38 36 34 37 40 42 43 51 45 35 39 50 53 49 61 61 49 44 47 48 57 96 81 61 53 46 42 45 44 39 30 29 25 25 22 28 22 20 19 18 17 17
58 49 45 41 39 44 50 52 44 52 52 46 46 59 74 69 61 42 42 41 45 46 71 88 70 59 60 52 48 41 36 32 35 32 30 28 22 18 19 21 20 19 15
62 55 53 60 60 54 54 61 64 55 59 60 56 56 53 53 47 46 44 47 50 47 56 100 82 66 63 55 46 40 40 46 41 37 32 28 26 22 22 23 20 16 14
54 65 58 52 63 61 51 64 74 71 61 66 63 58 56 52 50 48 44 46 47 45 46 80 100 95 80 53 50 71 74 74 60 35 30 31 32 24 23 24 16 15 16
41 46 60 78 67 80 75 67 80 86 74 70 70 71 64 59 49 46 41 40 42 43 43 52 56 90 100 100 100 98 77 44 40 37 37 36 35 29 24 20 16 19 23
39 43 45 54 92 98 95 88 94 94 93 79 70 76 77 68 58 50 43 39 42 46 43 50 62 65 72 94 98 78 52 50 46 41 41 41 38 30 27 18 20 33 51
37 44 56 81 100 100 100 100 100 100 100 93 88 82 76 77 76 70 60 49 50 59 57 52 64 87 92 80 68 57 57 51 45 45 50 42 38 31 30 22 38 52 58
28 42 71 96 100 100 100 100 100 100 100 100 97 93 88 79 79 79 81 75 72 67 82 92 100 100 81 68 57 70 64 54 51 62 49 39 41 29 21 31 49 49 42
21 30 38 100 100 100 100 100 100 100 100 100 100 100 100 99 94 90 89 95 100 100 96 100 100 90 88 73 88 73 57 57 71 52 46 46 33 28 26 42 35 32 25
18 19 24 34 53 97 100 100 95 100 98 99 100 100 100 100 98 91 100 100 100 98 87 98 85 97 99 85 75 64 71 71 65 49 46 45 35 26 41 37 32 30 30
19 17 17 18 25 36 58 88 100 100 100 100 100 98 96 100 100 100 100 100 100 100 98 93 99 91 88 78 81 79 78 73 58 50 51 43 25 39 57 56 51 50 48
16 17 16 16 16 46 58 69 73 100 100 100 100 96 99 99 98 100 100 100 99 96 100 86 87 88 91 94 92 92 83 71 58 59 58 41 32 56 60 54 49 48 51
14 15 14 15 16 18 33 72 87 81 85 94 99 97 89 88 90 86 86 80 83 85 91 75 80 99 98 93 89 91 78 72 64 56 64 38 42 54 49 45 41 35 29
14 13 14 14 16 16 18 38 91 89 77 72 74 75 75 74 69 70 76 77 79 87 83 76 73 91 94 84 81 84 79 88 74 68 62 33 46 47 37 22 17 16 17
15 15 14 14 14 16 18 18 27 81 100 94 72 63 58 60 52 52 70 67 68 70 77 83 74 89 87 83 81 88 94 97 88 72 52 28 40 28 18 19 20 22 21
25 20 16 15 14 14 17 20 22 21 22 58 99 98 92 90 89 79 69 66 58 60 69 73 65 67 86 96 98 93 100 95 93 69 35 23 18 17 20 20 20 21 22
28 25 23 17 15 16 17 19 22 26 22 20 22 38 37 25 27 27 25 26 32 41 48 58 77 89 96 100 100 100 100 100 89 51 31 20 18 19 20 20 21 22 24
27 28 26 22 18 14 16 18 21 22 22 22 21 20 19 18 16 14 16 28 62 81 85 92 97 100 98 100 100 100 100 99 71 38 28 21 20 21 23 23 24 26 29
27 26 23 26 24 20 16 16 18 20 22 22 22 23 22 21 20 19 18 27 38 52 77 100 100 100 100 100 100 100 100 79 45 34 26 23 22 24 25 27 28 29 30
34 31 23 21 24 24 22 21 18 18 32 30 25 24 23 23 26 23 18 18 30 63 87 94 99 100 100 100 100 99 72 44 39 30 27 26 27 29 28 30 31 34 35
34 34 30 24 21 22 23 22 20 20 30 63 64 40 24 22 25 24 21 24 41 73 95 100 100 100 100 99 85 46 30 43 33 30 30 28 28 31 30 31 33 36 34
32 34 32 27 25 21 21 24 23 22 23 30 37 36 29 25 27 26 27 27 43 53 92 100 94 80 60 41 35 37 46 34 29 30 28 26 28 30 29 29 34 34 34
38 36 32 28 26 23 22 23 26 24 27 30 45 45 33 30 30 29 30 29 36 38 80 81 65 41 30 34 50 47 37 31 34 38 41 36 35 30 31 37 40 38 34
44 41 40 32 30 26 22 23 26 28 40 56 45 43 41 33 36 33 33 32 30 44 74 64 41 38 56 54 47 36 34 34 35 36 41 48 44 46 49 49 48 44 40
54 52 49 44 36 30 28 25 26 30 48 62 80 55 44 36 39 39 35 33 36 49 65 51 40 51 47 40 40 40 39 41 41 39 37 37 38 43 44 43 46 40 36

GFSSE_250_rhum_027.txt.gz
RH
24 33 35 35 34 28 27 22 23 26 33 41 42 26 26 28 28 28 37 35 38 40 43 48 60 82 87 69 62 55 45 43 38 36 38 36 31 32 31 28 23 23 22
34 34 39 37 39 38 33 29 24 22 24 28 40 43 34 31 35 35 40 50 56 46 39 38 48 58 77 76 58 51 50 49 49 46 39 38 36 38 40 31 26 27 25
54 44 36 37 32 40 38 34 38 34 27 28 28 35 47 42 37 41 41 42 46 41 34 36 37 36 38 97 89 65 57 53 51 39 46 63 66 44 35 30 28 30 24
36 45 44 42 44 37 34 40 38 40 36 37 38 38 43 53 50 43 44 46 42 41 40 39 42 45 41 46 100 100 92 79 58 77 90 79 49 38 37 35 31 32 26
32 34 36 33 43 46 46 41 42 48 46 43 49 53 53 51 55 59 53 48 47 44 44 42 45 48 47 50 46 58 78 78 100 100 100 59 49 46 38 39 34 28 28
29 32 29 31 38 41 44 50 59 54 59 65 59 66 74 72 62 58 63 59 55 54 52 48 41 41 42 46 47 50 53 63 78 76 69 60 53 46 44 38 34 31 28
36 31 29 29 30 45 61 56 62 78 88 87 78 79 73 86 84 79 73 71 72 66 60 54 50 46 46 55 56 53 93 92 76 62 53 52 58 49 49 37 35 34 29
36 42 37 30 34 47 66 73 76 89 98 94 94 94 94 93 94 88 85 84 78 69 60 54 59 59 58 66 74 97 100 94 77 70 68 69 58 60 53 39 32 32 25
38 45 47 43 41 45 57 82 94 100 98 97 100 100 100 98 100 95 91 85 82 76 76 73 69 72 86 98 100 100 82 80 86 86 69 66 75 65 50 45 36 32 26
41 42 43 44 45 42 45 63 93 100 100 100 100 100 100 100 100 100 100 100 98 91 90 97 91 100 100 89 86 88 80 91 88 78 77 78 74 70 49 47 40 34 34
32 32 34 36 38 39 38 39 52 56 98 100 100 99 100 100 100 100 100 100 100 100 99 93 96 100 100 100 96 95 100 87 81 82 80 85 72 69 54 47 42 35 40
22 24 24 25 23 21 22 23 23 31 59 100 100 100 100 100 100 100 97 100 100 100 100 100 100 100 100 100 91 89 95 74 75 83 76 77 66 63 60 51 45 35 50
13 16 17 18 18 18 17 16 16 19 29 46 92 100 100 98 92 99 100 100 100 100 100 100 100 100 88 76 70 72 79 74 79 85 84 78 70 69 75 61 49 37 52
14 15 12 12 13 15 17 16 17 18 19 26 34 33 56 80 91 100 100 100 99 100 99 90 80 76 68 64 67 66 72 72 76 86 88 75 86 81 75 71 49 36 50
20 19 18 14 12 11 15 16 17 18 19 18 23 51 59 78 88 86 88 91 92 88 78 75 69 65 57 52 62 68 66 70 71 66 81 97 100 94 92 74 42 43 40
19 19 19 18 15 13 13 14 15 16 20 21 22 29 46 75 80 75 74 72 75 66 61 62 50 63 67 60 64 68 79 73 75 72 92 100 100 100 93 74 40 33 21
22 22 21 20 18 15 12 13 15 15 17 20 23 21 21 52 100 100 100 99 96 85 82 70 70 48 41 34 48 73 82 92 84 100 100 100 100 100 87 64 32 21 20
25 24 21 19 19 18 16 13 12 15 17 17 18 19 20 21 22 24 29 45 71 62 57 33 20 14 33 53 71 84 89 95 99 100 100 100 100 100 87 55 28 22 22
27 27 23 19 16 16 17 17 18 17 14 15 15 15 16 19 23 25 23 23 20 18 16 16 16 19 32 53 77 100 100 100 100 100 100 100 100 92 79 45 30 26 24
30 31 33 27 20 16 14 17 22 21 19 16 15 14 16 18 21 21 21 23 22 22 22 23 18 16 17 29 45 68 87 99 100 97 100 99 90 77 63 39 31 28 27
33 32 32 35 31 23 18 17 18 21 24 21 20 18 17 17 20 21 21 22 22 21 24 23 20 18 22 47 75 94 95 92 99 100 94 76 59 57 48 38 31 28 28
38 34 33 31 32 30 27 24 22 21 24 29 28 23 20 18 19 24 23 27 24 22 23 24 22 23 24 35 52 64 81 86 74 58 44 41 52 50 44 33 29 29 29
70 50 43 39 34 30 30 31 26 25 22 24 26 26 25 28 28 42 36 45 36 25 25 25 23 24 26 28 38 66 76 52 34 32 41 52 54 44 34 31 30 32 32
86 66 52 52 44 39 29 31 31 27 24 25 26 29 28 30 44 52 65 65 38 27 28 28 24 25 27 27 44 62 53 38 45 59 55 48 39 32 30 31 32 31 31
81 94 82 67 54 46 42 34 32 30 28 26 25 29 33 30 42 51 61 59 51 43 34 30 27 26 27 30 52 63 47 40 40 40 41 39 38 38 42 45 46 43 38
80 85 100 90 81 59 49 43 40 34 32 28 27 28 32 36 41 46 47 67 71 51 38 35 32 29 28 33 52 62 47 38 37 37 39 44 46 47 45 42 40 38 38

GFSSE_250_rhum_030.txt.gz
RH
16 20 19 17 21 18 20 22 20 19 20 21 22 25 28 31 34 29 25 24 28 31 37 37 39 38 37 39 48 58 56 49 44 36 36 37 39 37 32 37 51 52 40
15 16 13 11 15 19 22 23 23 22 22 20 18 20 21 25 32 35 34 32 32 26 30 41 53 52 40 36 34 32 32 51 72 57 50 44 52 44 64 91 61 46 38
22 17 14 13 15 20 16 17 23 26 26 22 24 25 23 20 22 28 34 40 38 39 38 35 38 37 36 34 38 37 36 32 41 92 85 72 86 90 93 94 72 56 47
20 22 25 30 23 24 32 33 32 29 34 34 34 31 32 27 28 29 31 40 44 43 45 48 44 36 36 37 38 39 38 41 39 41 47 52 53 67 76 71 58 55 45
33 30 28 29 31 28 28 37 41 42 43 44 44 46 49 44 42 38 40 42 52 54 54 51 49 48 45 38 36 36 38 40 46 53 45 50 88 79 70 58 56 51 49
32 35 33 37 35 37 35 30 33 34 46 56 69 60 56 65 72 69 58 62 64 73 69 64 61 58 58 56 48 43 42 42 44 55 61 94 100 87 60 69 63 54 47
39 37 39 41 38 34 30 36 35 39 48 55 58 62 74 78 79 89 91 81 79 81 84 77 71 67 69 66 62 54 53 54 56 77 100 90 78 67 66 63 59 55 49
37 31 28 28 32 34 35 37 34 37 48 60 83 87 87 85 94 95 96 94 86 88 95 92 85 83 75 68 66 66 62 63 91 94 90 93 74 81 73 62 62 61 52
37 35 31 31 28 28 29 33 38 39 38 53 71 89 99 100 100 100 95 96 98 92 98 99 97 93 90 81 76 75 76 84 100 100 98 86 90 86 82 70 70 65 63
30 34 33 31 28 27 31 35 38 40 42 42 58 90 100 100 100 100 100 100 100 100 99 100 100 100 99 95 96 100 98 100 100 100 100 100 98 82 70 78 77 68 63
23 23 27 24 26 27 32 36 45 49 50 50 50 60 77 100 100 100 100 100 94 100 100 100 100 100 100 99 100 100 100 100 100 100 94 72 68 67 74 65 76 78 67
24 21 20 25 25 26 29 34 38 40 44 48 49 48 46 49 84 100 100 100 100 100 100 100 100 100 100 100 100 100 99 100 100 88 75 66 58 55 64 67 69 79 64
25 21 17 17 16 15 14 16 22 27 31 32 33 34 37 38 36 48 87 100 100 100 100 100 100 100 95 100 100 100 100 93 73 68 63 58 54 59 60 73 69 68 71
19 16 16 14 14 14 12 13 15 17 20 21 22 20 18 17 18 39 35 35 81 100 96 81 96 100 100 100 99 94 83 70 60 56 55 57 55 64 74 71 71 83 96
17 16 16 14 13 12 14 15 16 14 14 16 20 20 18 17 17 18 19 20 35 33 47 72 75 99 85 87 88 74 65 57 52 47 54 55 53 80 86 83 89 98 100
16 17 16 15 14 12 13 16 18 17 15 13 14 16 18 18 17 17 17 17 30 46 60 62 68 76 67 64 65 61 55 53 54 50 40 34 56 91 98 93 100 100 100
18 18 17 16 15 14 16 16 15 16 17 15 14 14 15 16 16 16 19 23 24 27 56 86 98 100 95 89 86 64 58 49 18 23 48 69 88 100 100 100 100 100 100
23 21 22 21 19 18 17 18 19 18 18 18 16 14 13 13 13 14 16 21 23 23 22 25 29 29 26 26 35 23 16 14 15 21 49 89 100 100 100 100 100 100 100
34 29 27 24 27 22 20 19 20 20 18 19 19 19 16 14 14 14 14 16 20 21 22 24 23 22 22 21 20 19 18 16 15 23 40 47 82 91 94 92 96 100 97
48 42 34 33 32 28 24 24 23 23 21 18 17 20 24 21 16 16 15 15 17 17 18 19 21 21 21 21 19 21 21 18 20 26 50 71 77 78 96 93 91 84 74
66 55 54 46 41 32 30 27 26 25 29 26 19 18 20 24 25 23 17 18 18 18 18 19 18 18 19 19 17 19 19 20 23 24 27 46 57 61 54 49 46 40 49
98 86 74 58 56 52 34 30 27 40 38 40 33 25 24 22 22 26 26 21 20 19 19 20 20 18 19 20 21 20 20 22 22 24 30 44 51 51 41 35 35 43 54
100 100 89 67 47 49 56 36 31 37 41 40 36 30 30 31 24 26 30 30 26 23 23 22 23 24 27 34 31 21 24 22 25 27 28 37 46 46 39 46 55 54 51
83 100 100 91 73 61 57 50 45 43 62 40 33 35 32 33 28 26 26 29 31 28 28 30 33 43 53 56 39 26 25 24 24 33 30 35 43 46 40 40 38 37 36
78 97 100 100 94 78 65 49 63 59 68 58 46 35 34 36 33 29 27 27 30 31 33 37 52 60 70 66 47 35 29 27 27 32 35 33 49 53 46 40 39 38 36
75 95 100 100 100 99 95 81 73 73 67 63 60 44 39 35 34 32 30 27 27 31 35 38 39 54 72 62 56 53 41 38 34 30 35 39 52 57 54 51 48 46 45

GFSSE_250_rhum_033.txt.gz
RH
17 16 22 22 21 19 18 16 16 17 18 20 22 22 23 24 24 27 31 33 29 26 26 25 25 29 30 35 33 37 38 34 31 29 29 31 39 41 44 39 40 45 68
17 16 14 15 16 16 13 12 14 15 15 19 22 24 26 22 22 23 25 27 29 32 33 34 35 31 25 26 30 36 30 28 28 30 30 32 33 40 67 58 42 50 45
22 17 17 16 14 13 11 11 12 18 23 26 27 23 26 28 25 24 26 30 30 31 32 42 42 39 39 38 33 31 27 30 34 34 34 32 33 35 37 37 39 75 73
25 24 22 18 16 15 14 14 14 14 14 20 21 21 25 30 35 41 34 35 36 37 39 41 39 44 47 47 46 47 43 37 37 36 38 38 40 40 52 54 57 89 77
24 23 21 18 18 18 17 18 19 20 23 21 22 25 24 26 34 41 55 58 48 49 50 49 52 54 58 60 57 54 58 57 52 51 48 47 46 48 52 62 86 81 67
30 28 28 26 25 26 26 26 26 26 27 28 31 27 25 31 37 42 43 58 66 66 77 80 76 70 72 71 70 75 68 63 58 59 57 58 56 55 87 86 69 65 66
32 30 29 31 33 37 33 32 32 33 34 38 32 32 36 36 43 46 60 62 76 86 85 88 92 92 88 89 79 83 89 83 74 68 48 52 61 72 96 72 67 90 75
26 29 34 38 34 34 34 36 34 34 32 31 30 32 28 32 35 51 58 71 83 85 90 94 93 95 90 79 79 84 90 84 83 77 69 67 74 92 100 100 78 83 77
33 32 32 36 37 40 40 39 33 32 31 32 31 32 36 37 40 50 70 80 85 87 91 92 96 96 98 98 98 100 98 91 95 88 85 89 96 100 100 100 99 97 66
33 36 34 34 34 33 34 35 34 32 32 35 32 35 40 47 50 44 47 75 99 100 100 100 100 100 100 100 100 95 100 98 99 97 100 100 100 100 78 100 95 76 64
30 26 28 30 31 29 27 24 24 27 24 24 26 36 43 52 54 55 53 53 56 76 91 100 100 100 100 100 96 97 100 100 100 100 100 100 100 100 100 100 76 61 57
30 30 25 24 27 28 28 27 25 21 19 19 21 30 32 38 49 62 61 56 53 57 57 55 69 98 98 100 100 100 98 96 84 75 79 80 100 100 94 69 56 51 52
35 36 31 29 25 30 28 25 23 22 19 18 17 18 22 26 33 38 40 41 49 49 47 45 45 54 78 100 100 100 100 100 100 99 100 96 93 84 75 61 52 47 46
39 41 48 42 36 33 28 29 24 19 16 14 13 14 14 16 20 22 25 25 25 24 21 19 23 24 30 63 84 86 93 97 92 70 73 94 78 78 64 56 43 47 46
41 41 40 40 35 30 24 24 20 16 14 14 12 12 13 13 14 15 15 17 18 18 17 17 18 17 18 19 22 40 48 63 56 86 70 77 62 58 47 38 32 23 29
39 36 31 26 24 23 21 19 18 16 13 13 13 13 16 18 17 14 13 13 14 16 18 18 18 17 16 18 37 33 41 69 66 70 79 80 61 52 25 13 29 59 59
34 35 31 26 24 22 20 18 16 16 15 14 17 18 16 18 18 17 16 15 15 16 16 16 16 16 18 18 20 23 32 42 47 42 28 33 26 17 15 14 21 43 74
40 34 34 32 28 26 23 20 20 19 23 26 21 20 20 21 20 18 17 16 15 14 16 18 18 18 20 20 22 21 21 21 21 22 21 20 20 18 16 20 40 59 74
48 43 37 37 32 30 28 24 25 25 24 26 27 31 26 22 20 18 19 20 18 15 15 19 20 18 18 20 19 20 21 21 21 22 22 23 23 20 20 20 32 64 80
61 61 52 43 38 38 38 38 35 40 66 46 40 31 32 26 22 20 18 18 22 24 24 18 18 20 18 18 18 18 18 18 18 20 19 18 20 21 24 24 23 29 43
70 63 68 56 49 50 49 44 48 37 38 43 52 52 45 33 30 27 24 20 18 19 23 25 26 22 19 20 21 20 19 18 18 19 20 20 20 20 19 21 26 27 33
78 66 62 67 69 74 71 58 48 54 66 56 59 79 68 69 62 48 42 33 24 21 20 22 26 26 26 23 21 23 21 21 21 21 23 25 24 23 26 24 23 25 32
78 78 72 64 64 68 74 71 62 56 67 67 86 87 57 48 57 41 36 33 30 30 26 23 24 26 29 28 27 26 24 25 25 28 33 36 36 28 32 31 28 28 32
81 79 77 73 64 59 58 68 73 69 65 56 50 65 95 89 95 78 59 42 34 33 30 28 26 26 27 28 28 28 31 38 39 49 59 69 57 37 38 38 34 36 37
69 71 76 74 74 65 56 53 64 68 72 75 65 68 84 94 86 87 60 50 40 36 33 31 29 28 25 26 29 30 34 42 55 68 86 95 88 58 50 49 50 41 37
78 75 72 76 74 70 63 54 66 86 83 74 76 68 68 72 61 59 64 60 48 44 36 34 31 32 30 30 32 34 33 35 48 65 92 97 85 74 59 43 44 47 42

GFSSE_250_rhum_036.txt.gz
RH
19 19 20 20 20 21 21 18 19 20 19 19 20 22 24 25 27 28 27 29 30 33 33 34 30 28 29 30 28 26 27 28 27 29 38 30 27 26 28 29 31 33 35
22 20 21 20 18 20 19 21 21 20 16 14 16 18 18 21 23 28 29 30 34 38 40 36 34 35 31 31 36 39 37 33 30 30 33 31 32 33 33 35 35 36 37
23 24 23 19 17 16 15 13 14 15 14 13 12 14 16 19 22 25 25 28 28 28 37 43 45 42 38 43 44 42 43 45 47 49 47 47 42 38 34 36 37 40 42
21 20 23 23 18 14 14 15 15 15 15 14 14 14 15 17 23 23 24 30 31 28 32 34 39 39 39 43 49 56 59 53 53 54 50 50 56 52 46 46 44 45 49
32 25 20 19 19 19 18 17 16 15 16 15 15 15 15 17 19 22 23 27 32 38 43 48 50 52 58 52 51 53 52 65 74 62 54 64 63 60 54 52 47 48 47
31 25 22 22 22 20 19 18 18 17 18 19 20 20 21 20 21 20 24 26 30 35 40 45 48 58 53 52 63 70 76 68 61 63 62 54 56 60 60 64 60 53 59
34 37 31 30 27 24 24 23 24 22 24 25 24 24 24 26 27 31 32 32 30 30 32 42 53 56 58 67 73 82 86 83 84 77 83 84 64 72 71 75 76 76 88
27 30 30 28 29 30 30 30 30 28 31 32 30 30 33 32 34 34 33 35 37 36 40 49 56 66 72 73 83 93 98 93 91 96 99 94 93 95 87 78 77 90 99
28 26 23 23 25 25 26 29 28 31 34 33 35 40 43 40 37 34 31 30 30 32 35 44 46 61 68 98 100 100 100 100 100 99 100 100 96 97 99 98 98 100 98
24 26 28 28 29 27 26 30 33 34 34 37 38 36 33 30 28 28 28 27 24 28 34 44 52 57 56 58 89 98 87 91 92 100 100 100 86 86 86 74 85 67 89
25 25 31 35 33 32 32 33 33 34 33 30 29 26 25 23 21 19 17 16 17 20 30 45 53 60 59 57 58 63 82 78 73 93 92 92 90 97 90 68 70 62 79
23 31 34 30 32 30 28 28 27 26 26 24 20 19 19 18 20 21 20 19 19 20 27 38 50 55 60 58 58 57 57 64 65 69 72 89 93 88 99 100 100 100 91
31 33 33 33 32 32 32 33 31 26 25 24 27 27 23 21 21 24 22 20 18 17 19 21 25 35 39 37 36 40 38 33 34 44 52 69 67 88 91 81 80 71 79
38 41 36 31 30 36 36 36 33 32 29 28 29 28 28 26 23 20 18 15 14 14 14 15 18 21 24 24 23 23 19 16 17 16 17 20 25 34 41 49 48 61 63
38 37 34 30 30 29 36 38 37 30 31 32 33 32 28 23 20 18 15 14 12 12 13 14 14 14 15 18 20 19 17 16 16 14 14 21 28 33 43 53 68 69 50
42 42 38 42 40 39 38 36 34 36 32 26 23 21 20 20 19 17 14 13 13 14 16 17 16 15 14 14 15 16 18 18 17 17 17 18 19 22 30 30 25 21 24
42 40 45 43 43 42 40 38 32 27 25 24 22 20 19 19 16 15 14 14 16 16 16 18 19 18 16 16 16 16 17 18 18 18 19 20 19 20 21 22 21 21 22
48 49 43 44 47 44 41 38 36 34 33 30 31 28 22 20 20 20 24 22 22 20 20 19 19 21 21 18 16 16 18 19 19 20 20 22 22 24 23 21 22 22 22
50 55 62 55 53 57 48 42 39 40 41 44 34 28 29 29 24 22 26 26 28 24 21 20 19 18 21 23 24 20 18 19 21 22 20 20 20 22 21 22 22 22 20
77 75 59 51 59 52 62 66 67 72 66 70 58 40 46 69 64 46 42 36 30 27 26 24 21 18 18 20 24 25 25 23 21 20 20 21 21 21 22 22 22 23 22
85 83 64 64 64 70 65 63 64 74 79 76 64 68 74 61 41 63 70 62 62 46 32 31 34 29 23 21 21 23 26 27 26 26 24 23 22 24 24 24 25 24 24
90 66 52 64 72 73 67 75 64 66 66 78 82 99 92 88 90 96 100 98 69 55 56 52 44 42 39 32 27 24 23 26 29 30 31 30 29 27 27 28 28 28 32
82 69 54 54 59 73 80 80 84 63 77 83 88 92 98 84 99 100 98 81 77 70 43 49 41 32 34 33 30 30 29 28 27 27 29 30 30 34 39 40 40 42 58
77 66 58 60 67 74 77 76 74 68 53 68 75 82 87 93 96 100 93 98 91 73 71 64 50 36 32 32 33 29 30 33 32 31 29 31 34 35 38 50 60 69 85
77 71 67 67 72 70 72 77 78 76 66 63 58 65 71 71 92 100 100 100 91 76 77 60 59 52 44 40 38 36 33 33 34 33 33 36 42 40 40 51 62 67 81
67 62 58 66 68 68 63 70 80 80 74 78 74 67 66 69 87 91 97 100 94 84 82 82 75 79 58 48 47 46 44 51 54 46 48 45 46 50 45 47 51 52 72

GFSSE_250_rhum_039.txt.gz
RH
28 30 33 34 32 29 23 24 24 23 22 22 21 20 20 23 23 25 27 27 30 34 34 35 36 36 39 37 35 33 33 34 37 38 36 35 33 31 31 33 32 31 33
24 21 25 26 26 24 24 25 24 22 22 22 20 17 16 13 15 19 23 29 33 34 36 36 38 42 44 44 46 44 42 42 40 42 46 44 41 41 42 43 44 47 44
18 17 19 21 23 22 22 22 23 24 21 19 20 18 14 13 12 12 12 13 16 22 24 19 22 23 26 32 34 36 40 45 44 42 39 40 44 44 45 48 51 57 53
19 19 19 22 23 24 24 24 22 20 18 15 16 17 16 16 15 16 16 16 15 16 16 18 20 20 26 28 30 38 43 41 32 35 46 50 48 51 51 45 38 39 49
26 24 20 19 19 20 21 19 16 16 14 14 14 13 13 14 14 16 17 18 20 22 21 22 23 26 26 28 32 37 46 42 40 49 49 56 47 48 52 48 48 57 50
34 30 25 22 23 22 18 18 19 17 17 17 17 15 15 16 18 19 20 21 25 28 26 27 28 32 40 37 34 41 38 45 52 60 61 60 74 84 86 88 92 86 65
44 40 36 33 28 24 24 23 19 18 16 17 20 22 22 21 21 23 24 27 27 30 32 31 30 29 30 33 37 35 40 45 46 50 70 80 78 85 93 87 82 78 100
45 41 38 36 34 30 27 26 28 28 27 26 26 26 28 27 25 27 28 26 26 28 31 30 29 31 28 29 32 31 37 47 53 67 75 78 93 100 87 76 87 98 80
51 44 40 35 35 33 28 24 22 20 21 21 22 23 24 25 26 25 24 24 25 27 24 23 24 24 24 28 25 36 42 47 48 61 85 83 91 66 76 96 92 95 74
58 51 45 35 29 28 28 30 30 28 26 25 24 24 25 27 28 26 25 27 29 24 20 18 16 17 20 20 22 23 28 43 57 57 62 64 67 63 67 70 57 61 84
55 51 44 37 29 28 27 23 23 23 24 22 22 22 22 24 24 24 24 22 20 18 18 20 20 19 19 22 22 22 25 27 37 46 56 61 59 56 60 59 55 63 73
48 41 40 38 31 30 27 24 24 29 26 24 25 24 22 23 25 24 21 20 22 26 28 25 22 22 20 19 18 16 17 19 22 27 36 39 35 37 37 30 32 45 68
51 46 39 37 34 30 28 29 26 24 23 28 26 28 30 30 27 26 27 25 27 25 22 26 21 20 19 18 15 14 14 15 16 19 23 25 23 22 18 17 16 15 18
49 46 42 41 38 35 33 32 33 32 31 28 23 24 25 26 28 32 30 27 27 28 24 23 20 20 18 16 13 12 13 14 14 14 15 18 20 19 17 16 15 15 19
56 55 58 50 45 40 38 38 38 36 31 28 28 31 30 30 30 28 28 26 26 22 20 20 20 18 16 13 12 14 15 15 15 14 14 15 15 16 17 17 16 17 20
62 62 61 58 52 47 45 38 37 36 33 34 33 31 28 30 29 25 25 23 21 20 19 18 18 15 14 14 15 15 16 17 16 16 15 15 16 17 18 19 17 20 22
65 62 57 53 54 51 49 48 44 44 43 37 34 33 30 31 30 24 24 25 25 24 21 19 17 17 19 17 18 17 17 18 17 17 17 16 16 16 19 20 22 22 22
82 81 72 70 67 62 56 53 53 63 67 67 58 51 39 40 36 33 36 36 30 26 24 21 20 20 21 21 23 21 20 19 18 18 19 19 18 18 17 19 21 22 21
70 85 94 86 73 65 56 50 52 53 70 74 72 67 65 77 64 54 54 52 52 54 54 54 46 40 36 30 26 24 23 22 21 19 18 20 21 24 24 24 23 23 23
93 85 80 87 89 73 69 63 62 60 57 58 64 80 80 90 90 86 87 66 54 51 55 56 56 55 53 50 40 32 30 30 32 30 25 22 21 20 23 26 27 28 28
100 90 81 71 71 78 79 78 68 67 54 50 59 62 77 79 88 95 76 76 75 78 81 76 83 82 74 59 50 50 48 40 38 40 39 36 32 27 24 26 32 34 34
100 94 87 79 70 72 83 97 91 80 67 61 60 62 74 75 81 85 76 97 100 93 78 86 82 72 59 58 52 50 55 41 33 29 28 29 29 31 30 29 28 29 34
100 100 97 97 98 92 83 91 92 83 74 64 63 77 65 66 76 90 99 100 100 100 100 94 80 76 67 62 60 52 52 49 40 36 33 33 31 31 32 34 34 32 31
100 100 100 100 96 91 87 82 81 84 75 65 53 61 76 64 66 92 100 100 100 100 100 100 86 78 80 62 55 62 61 55 46 49 45 46 47 50 46 46 44 42 40
97 98 100 99 100 99 92 89 81 78 76 66 57 56 65 72 69 72 82 89 100 100 100 100 100 100 77 63 65 73 69 68 55 51 61 54 58 65 66 58 50 48 46
98 93 94 96 96 91 83 76 70 65 76 76 64 63 65 65 79 87 86 89 90 100 100 100 99 99 99 93 93 97 95 88 71 58 62 72 71 65 68 67 64 64 64

GFSSE_250_rhum_042.txt.gz
RH
42 43 40 39 39 36 32 26 25 27 25 22 22 24 25 25 27 25 24 25 23 21 19 22 24 27 25 25 29 30 34 31 30 33 32 32 32 36 35 34 32 34 35
24 29 33 34 30 31 33 33 31 29 26 24 24 21 19 19 20 18 18 14 15 18 22 24 24 26 31 30 28 32 28 24 23 24 24 24 25 29 31 31 32 33 31
19 18 20 26 26 28 31 31 29 27 27 25 24 22 22 22 23 22 18 16 16 16 16 15 16 16 19 18 20 20 20 22 23 27 30 29 30 34 36 37 39 40 39
22 21 19 19 20 22 24 27 25 24 24 23 22 23 23 20 17 20 20 18 17 18 18 19 19 20 20 20 22 22 21 22 24 26 30 32 38 41 40 38 37 45 51
27 30 29 25 22 19 20 20 21 24 24 26 25 21 18 18 17 17 17 17 18 18 19 20 20 21 21 23 24 26 26 26 27 29 32 33 32 35 42 47 58 53 53
38 36 35 30 28 26 24 22 23 21 19 18 16 16 16 16 17 17 18 18 18 20 21 21 23 24 24 26 27 29 26 23 24 24 24 25 26 28 34 50 45 49 66
55 52 50 47 43 37 24 23 30 30 26 24 26 24 22 22 22 22 23 23 22 23 20 19 20 24 24 24 21 21 21 20 18 21 24 23 21 24 33 37 44 61 66
64 62 57 53 50 47 42 38 31 29 27 28 26 23 24 23 21 20 19 20 20 20 22 22 22 22 22 24 24 20 20 20 21 19 20 21 21 23 30 39 43 53 65
72 65 58 59 62 57 50 44 39 35 32 31 30 26 24 23 22 23 23 22 21 21 21 19 20 20 21 23 20 21 20 22 22 22 22 20 20 24 24 27 38 51 55
76 75 74 73 68 61 55 51 47 42 31 28 27 25 26 25 23 22 21 18 19 18 18 19 20 23 20 20 21 22 24 23 21 22 20 18 18 17 18 23 31 38 38
79 78 77 78 75 66 58 54 48 42 37 29 25 23 20 18 17 18 18 19 20 20 21 22 23 24 21 21 22 22 21 20 19 20 19 17 16 14 14 17 19 25 28
55 60 65 60 64 63 54 46 42 40 40 36 30 26 23 19 19 24 23 23 21 18 17 17 18 20 21 20 22 23 22 21 20 19 18 17 14 13 13 14 18 21 22
46 47 50 62 60 55 57 53 48 41 36 33 30 30 29 28 30 28 28 27 24 22 23 20 22 24 24 23 21 21 19 18 18 18 17 16 12 13 14 13 13 14 16
44 37 30 28 30 32 30 40 43 40 37 38 37 33 31 34 36 33 29 27 26 25 26 26 26 24 24 22 20 20 19 19 18 18 15 13 13 14 16 16 16 15 14
46 40 38 32 29 28 28 30 34 37 46 46 46 43 42 39 35 35 33 30 32 30 28 29 27 26 23 22 22 20 20 19 18 16 15 15 16 16 17 17 16 17 16
57 56 40 36 35 33 32 35 43 52 50 49 47 51 45 39 35 35 34 36 32 35 30 28 27 27 27 26 25 24 22 19 18 19 20 20 18 18 19 20 19 19 19
60 51 48 40 45 51 51 50 54 50 43 53 56 53 46 46 40 41 43 43 42 41 38 35 36 36 41 38 34 31 28 24 23 25 25 24 22 21 20 19 18 18 19
58 51 45 57 76 72 72 64 68 55 58 72 69 66 67 65 60 55 56 58 53 41 38 50 58 62 56 57 55 50 48 44 40 36 33 31 29 28 28 28 25 22 20
79 69 69 71 83 87 83 86 83 79 85 90 91 79 70 64 61 57 60 60 50 53 61 71 74 75 64 59 67 62 56 52 55 54 51 50 46 41 35 32 33 34 31
100 98 96 90 84 88 94 93 87 84 79 79 71 67 65 61 60 54 48 45 46 44 61 72 80 73 81 82 82 73 68 65 63 50 48 42 42 39 34 31 26 26 26
100 100 100 100 100 100 100 100 100 96 82 86 85 83 88 100 89 62 51 47 54 49 52 55 75 88 91 84 74 69 59 57 53 53 48 46 46 45 46 40 31 29 32
100 100 100 100 100 100 100 100 100 100 100 95 84 83 82 74 77 74 78 67 58 70 78 84 90 94 91 88 64 70 66 56 47 51 53 54 56 54 54 48 44 38 39
100 100 100 100 100 100 100 100 100 100 97 98 90 82 71 54 61 86 89 95 83 81 80 100 100 100 100 84 76 81 67 56 54 62 80 74 74 74 68 66 62 54 47
100 100 100 100 100 100 96 100 100 100 100 98 95 89 89 88 75 72 82 93 91 90 88 97 100 100 100 99 84 76 58 56 56 69 86 89 94 84 83 84 75 65 56
97 100 100 100 100 100 100 96 93 99 100 100 94 94 94 95 94 89 84 95 82 91 88 94 97 100 100 100 100 84 83 87 87 81 83 93 86 85 90 90 75 65 60
97 94 98 100 100 100 100 100 98 90 92 100 100 99 98 93 88 87 93 90 93 86 86 100 92 90 100 100 100 100 100 100 96 100 100 100 98 95 88 71 64 67 56

GFSSE_250_rhum_045.txt.gz
RH
51 58 54 50 46 47 43 38 30 25 19 19 19 18 18 18 20 22 23 22 21 20 18 16 18 18 19 20 21 24 25 26 25 23 23 22 22 22 22 23 24 26 29
47 44 43 35 31 39 39 38 38 35 28 27 30 29 28 28 27 25 21 21 22 21 22 17 16 16 17 17 18 20 26 27 23 24 24 23 22 23 25 24 26 26 25
28 28 30 37 37 37 34 31 30 31 32 30 28 28 28 29 28 24 24 24 18 18 18 18 15 16 17 17 18 19 18 19 19 20 21 25 24 23 23 24 25 25 29
22 21 21 21 22 26 31 29 26 26 24 24 25 24 24 25 26 24 24 24 20 19 20 20 19 19 20 20 20 20 21 21 21 21 22 22 21 24 23 20 21 22 21
24 24 25 24 25 23 21 22 22 24 27 26 26 26 26 25 24 26 23 19 21 19 20 20 23 23 23 22 22 20 21 22 22 22 20 21 19 18 19 20 20 22 22
29 30 31 31 30 32 32 30 25 21 20 20 19 20 20 22 22 20 18 17 18 21 24 24 22 22 21 21 20 19 20 20 21 22 21 18 21 21 21 20 22 22 21
42 38 38 39 39 39 40 38 43 38 32 26 25 25 25 23 23 23 22 24 26 25 22 20 19 20 21 21 21 20 19 19 18 18 18 20 21 24 24 21 20 21 20
48 50 51 54 57 53 55 54 50 48 46 42 39 36 35 33 29 27 26 24 22 21 22 22 23 22 20 19 18 17 18 17 18 19 19 20 23 20 20 18 19 20 18
94 98 84 74 68 66 66 60 56 55 57 55 50 45 41 40 35 31 30 28 27 25 24 21 19 18 16 17 18 17 17 19 18 17 18 18 18 19 17 18 18 18 17
69 68 73 76 76 72 64 60 62 59 60 57 55 54 48 43 39 32 26 24 22 19 17 17 18 22 20 18 17 18 19 18 20 19 18 17 18 18 18 18 17 18 17
63 68 77 84 86 77 68 62 61 60 55 58 51 46 42 38 36 36 35 31 26 23 22 20 22 20 20 20 19 19 18 18 20 20 18 18 18 19 19 19 19 18 16
61 76 86 87 91 88 76 67 61 56 50 49 46 47 47 43 36 32 32 30 29 26 24 22 19 20 21 20 19 21 21 22 23 24 22 21 21 20 19 19 19 17 14
89 91 94 83 68 58 51 46 39 34 31 29 30 26 28 31 35 33 30 28 25 22 23 24 24 24 22 21 24 25 28 27 27 25 23 22 22 20 21 19 17 16 15
87 78 68 59 48 41 36 34 31 28 28 26 24 24 22 22 24 27 29 27 24 27 28 24 24 23 25 29 32 35 32 29 27 27 26 25 23 22 21 20 20 19 19
86 77 68 53 48 45 42 39 32 30 28 28 25 24 23 23 28 30 30 25 29 34 32 28 28 36 39 42 40 34 28 27 30 34 34 32 30 26 22 21 24 23 23
86 79 68 60 51 43 42 40 34 30 28 33 38 38 36 37 34 33 36 35 40 48 42 44 47 47 43 41 35 30 33 43 46 42 45 45 45 42 39 34 33 30 28
76 71 61 54 53 53 50 49 42 37 36 37 38 39 42 52 51 60 58 60 66 70 58 52 49 45 44 40 34 38 50 54 58 50 52 56 53 50 48 49 45 44 41
76 64 61 53 51 55 60 59 54 59 75 61 65 60 77 63 62 68 75 81 78 65 57 49 48 45 42 38 42 43 53 65 66 65 70 64 59 63 56 51 45 44 44
84 84 84 77 71 62 59 64 58 62 76 93 86 74 92 92 94 91 89 80 69 58 49 48 45 43 37 44 49 47 56 74 70 73 64 60 52 49 46 53 51 50 49
98 98 92 89 77 75 74 75 81 78 83 87 93 94 100 99 97 90 93 84 73 67 62 61 53 59 55 58 58 56 66 76 74 68 65 56 54 50 46 50 56 63 51
100 100 100 100 100 96 99 100 97 100 100 100 96 100 100 100 100 100 85 81 85 77 70 69 79 72 74 81 75 64 62 67 71 64 72 59 54 57 55 55 55 60 69
100 100 100 100 100 100 100 100 100 100 100 100 94 95 90 94 99 94 90 82 75 74 68 75 83 89 86 88 87 87 74 90 85 75 70 67 57 62 66 65 63 60 61
100 100 100 100 100 100 100 100 100 100 100 100 100 100 100 100 100 99 96 87 94 88 88 82 83 90 93 98 97 94 96 91 82 69 70 72 75 73 71 79 80 70 60
82 74 79 96 100 100 100 100 100 100 100 100 100 100 100 100 100 99 100 99 96 99 96 89 87 89 94 100 98 100 100 100 96 90 83 83 70 76 89 92 90 81 69
95 98 100 100 100 100 100 100 100 100 100 100 100 100 100 100 98 98 97 100 100 98 100 100 98 96 100 98 100 93 95 100 100 100 100 100 100 100 100 99 90 91 92
82 74 79 84 91 96 92 96 94 86 90 98 100 100 100 98 97 98 100 100 100 99 100 100 100 100 97 89 98 95 99 100 100 100 100 100 100 100 100 100 100 100 93

GFSSE_250_rhum_051.txt.gz
RH
46 57 54 56 59 61 69 65 80 82 82 76 68 48 34 25 21 19 20 19 21 24 25 24 24 20 20 20 19 17 15 17 19 19 21 22 23 24 23 22 22 22 22
59 55 59 59 59 57 56 55 51 47 43 40 37 36 32 28 22 20 21 23 24 23 23 22 22 21 18 20 22 19 18 16 16 18 23 24 22 21 21 20 19 19 19
70 74 69 68 68 62 58 52 48 45 44 42 38 35 33 30 27 23 22 23 22 18 18 19 20 21 19 20 23 20 18 18 21 25 24 20 20 20 20 20 19 18 17
64 70 69 70 74 68 59 53 44 40 34 33 32 29 25 22 21 22 21 19 17 17 18 20 22 22 23 22 20 22 25 25 25 23 22 22 22 21 20 20 18 16 16
75 75 68 60 52 46 39 38 33 30 30 29 28 28 25 23 21 21 20 20 21 20 20 19 20 22 24 26 26 26 26 26 25 26 24 23 20 18 17 16 17 16 16
51 55 55 55 49 42 34 33 27 23 23 22 22 22 21 20 21 21 21 22 28 36 34 33 34 35 36 35 33 32 31 28 24 21 18 19 20 19 19 19 19 19 19
32 30 27 26 25 24 24 23 23 23 22 22 21 23 29 38 44 45 45 46 47 46 44 45 47 43 42 41 37 32 29 25 25 23 21 20 20 19 18 18 19 22 22
28 27 26 26 27 25 25 25 25 25 23 23 31 47 57 62 58 56 52 51 51 52 48 48 47 44 45 42 37 36 35 32 29 27 24 23 20 18 19 19 23 22 21
30 28 26 27 29 32 34 33 32 34 40 40 46 53 74 72 64 61 59 59 55 52 51 47 40 34 34 36 37 33 32 31 28 23 19 20 18 19 23 22 24 22 21
30 30 29 27 26 26 30 31 34 36 44 61 77 78 62 52 49 56 53 53 51 48 40 32 28 26 25 21 20 19 20 18 19 20 18 21 22 24 27 29 26 28 28
30 29 27 26 24 24 28 34 39 48 68 69 64 58 52 49 47 47 54 61 50 37 30 27 26 24 22 19 18 18 20 21 22 20 23 31 30 30 31 35 36 30 26
29 29 28 29 31 34 34 36 42 48 52 53 49 42 45 50 56 63 61 48 38 33 31 29 26 22 18 19 20 19 21 22 24 27 32 35 34 35 36 31 27 26 27
36 32 29 32 35 38 39 40 42 43 44 48 47 50 64 64 74 67 53 41 38 36 34 31 28 24 26 24 26 24 26 26 29 30 36 42 34 35 34 31 29 26 32
53 52 51 51 45 43 43 46 46 46 53 56 56 63 68 66 60 55 49 44 39 34 34 35 34 33 31 30 30 30 33 38 42 45 47 42 38 34 33 32 30 33 41
94 91 78 66 58 55 57 55 59 62 68 69 76 74 69 59 53 47 41 36 36 36 34 33 27 28 35 36 35 40 48 48 54 55 53 49 45 40 35 35 35 40 42
74 68 63 67 69 72 74 79 80 85 88 80 69 63 58 51 45 41 37 32 32 38 41 38 36 35 39 40 48 61 63 67 73 64 60 58 50 42 41 43 41 49 45
65 71 69 76 87 90 92 88 86 84 76 69 61 53 50 46 42 41 50 52 49 47 51 50 48 45 49 54 69 72 72 73 72 70 67 62 50 50 45 46 52 51 49
92 92 94 97 96 91 86 80 72 68 66 62 59 56 56 56 54 54 57 57 53 53 54 60 64 62 55 66 73 78 77 90 79 79 76 68 62 58 57 61 60 64 65
90 89 84 85 84 79 74 70 70 68 74 68 66 71 83 80 73 67 78 83 77 76 72 76 79 86 82 95 99 98 100 100 92 92 79 72 62 66 65 69 73 78 73
84 84 81 83 86 82 74 72 86 98 96 63 61 86 99 89 73 71 61 70 69 76 82 86 95 100 95 85 99 99 100 100 100 83 72 70 73 75 81 89 90 89 83
100 92 97 94 95 78 76 92 88 74 72 92 87 88 85 89 75 65 64 74 80 87 87 99 100 99 100 85 87 85 95 88 91 83 73 88 87 90 94 100 100 100 93
100 100 100 95 98 98 79 67 100 98 89 76 74 75 80 89 76 66 63 71 83 74 66 97 100 100 100 99 98 99 100 100 100 100 97 100 100 100 100 100 100 100 100
100 100 99 100 98 90 96 99 91 85 67 58 56 58 60 57 66 66 76 80 80 86 99 100 100 100 94 100 100 100 100 100 100 100 100 100 100 100 100 100 100 100 100
100 100 100 100 100 100 100 92 82 73 76 68 58 52 57 64 70 78 77 84 92 96 100 100 100 100 100 100 100 99 100 100 100 100 100 100 100 100 100 100 100 98 99
100 100 100 100 100 100 100 100 96 82 76 75 69 61 59 72 74 74 68 86 90 86 95 100 100 100 100 100 100 100 100 100 100 100 100 100 100 100 100 100 100 100 100
100 100 100 100 100 100 100 100 96 82 73 63 57 64 71 66 81 79 67 66 70 75 75 83 86 99 100 100 100 100 100 100 100 100 100 100 100 100 100 100 100 100 100

GFSSE_250_rhum_054.txt.gz
RH
19 28 33 41 56 52 63 55 58 69 70 77 83 83 85 61 44 31 27 22 19 17 17 23 24 22 17 16 16 17 17 17 18 18 16 17 20 22 22 21 21 22 22
31 27 29 28 33 35 43 55 63 71 68 70 60 51 49 47 39 32 28 24 21 21 23 23 18 16 16 18 17 16 16 16 17 19 23 24 25 24 24 23 23 23 21
35 30 34 40 48 53 61 60 60 54 50 42 41 40 38 35 31 29 27 26 25 24 21 17 17 17 18 19 21 22 23 24 29 31 32 30 28 27 27 25 22 19 18
35 40 42 46 50 55 57 56 54 50 46 44 38 31 27 25 24 21 21 20 19 17 18 18 19 22 31 33 32 34 36 37 37 36 34 32 28 24 22 20 19 19 19
36 43 51 57 54 53 54 55 45 41 36 34 29 26 25 21 20 19 19 18 18 20 24 32 38 40 40 38 39 41 40 38 37 40 38 34 31 29 28 26 25 24 21
45 44 54 67 67 59 53 51 49 42 35 30 23 20 19 19 19 19 20 36 50 51 44 41 42 43 43 40 39 39 35 32 36 37 37 36 34 31 29 27 20 20 18
55 61 73 85 84 73 61 53 44 36 29 24 20 20 20 20 20 26 44 48 50 47 47 50 46 46 44 42 41 37 31 27 29 29 30 34 33 28 19 20 18 19 20
48 49 55 60 59 50 41 31 26 24 22 21 21 21 22 23 28 42 51 68 62 52 49 50 48 47 46 41 34 29 26 25 23 21 19 19 19 18 20 21 21 30 28
46 38 37 36 34 29 27 26 24 24 25 26 32 37 39 50 59 64 82 72 59 49 43 44 44 48 48 36 30 28 27 25 21 18 19 20 23 23 24 28 31 30 26
42 37 32 30 29 29 28 26 26 27 29 33 32 32 35 56 76 73 61 47 38 36 37 43 52 51 43 36 33 32 29 25 22 22 22 22 24 23 28 30 30 32 32
39 36 30 28 28 30 30 30 29 26 25 27 32 38 42 47 48 51 46 40 34 33 39 48 53 47 41 38 35 32 30 29 26 26 25 26 32 30 29 36 40 39 37
45 40 34 31 31 33 34 32 30 29 31 34 37 40 42 42 41 44 41 39 39 41 45 47 51 48 42 36 33 29 28 25 26 25 29 28 30 32 39 44 45 43 36
49 46 38 35 34 33 30 29 28 28 31 36 40 42 45 45 45 49 42 40 46 49 54 52 46 41 34 27 25 26 27 25 30 34 30 30 33 38 47 50 47 47 40
55 46 38 40 42 43 36 34 33 35 44 52 50 50 51 56 52 48 48 54 54 56 55 49 40 34 30 29 32 36 35 34 35 36 32 36 40 48 56 55 50 52 50
56 46 44 44 45 51 50 44 62 72 73 64 56 59 60 53 58 65 74 65 61 53 46 39 35 34 33 35 37 40 41 41 43 44 50 53 51 61 66 58 60 57 52
61 57 58 64 74 75 84 98 96 81 65 60 59 61 75 73 78 76 67 57 54 47 44 40 35 39 41 41 45 47 51 65 75 81 70 62 79 81 67 70 68 58 55
75 76 78 77 86 92 84 75 68 61 59 68 84 82 81 77 68 68 61 58 54 53 47 50 53 54 52 51 52 67 66 63 91 100 96 85 93 89 85 75 69 61 59
66 65 63 64 67 66 68 64 69 81 93 89 82 83 73 70 69 60 58 58 52 50 54 66 62 65 59 58 71 64 71 70 86 88 100 99 100 100 95 78 63 66 62
58 62 72 89 95 92 95 98 96 97 92 90 87 84 80 71 61 65 60 52 50 54 66 58 65 63 71 65 60 89 82 66 88 99 100 96 99 90 89 82 78 75 80
99 100 100 100 100 100 98 100 100 91 98 100 90 73 63 62 62 67 59 56 59 51 53 50 52 53 62 72 76 80 77 95 100 100 100 97 98 100 100 99 92 91 95
100 100 100 100 100 96 92 96 100 100 100 97 74 70 76 77 81 78 73 72 54 52 52 51 48 55 67 83 96 85 97 100 100 100 100 100 100 97 100 100 95 94 100
100 100 100 100 99 94 99 100 100 100 100 92 81 75 74 89 85 77 70 68 61 60 60 50 50 59 87 93 87 93 90 100 100 100 100 100 100 100 98 100 100 100 100
100 100 100 100 100 100 100 88 81 98 96 94 86 79 82 79 80 74 54 59 67 64 62 56 56 66 77 91 93 88 86 95 98 100 100 100 100 100 100 100 100 100 100
100 100 100 100 100 100 100 99 82 83 91 96 100 99 85 87 68 53 52 57 59 53 53 49 54 54 62 70 58 62 65 78 99 99 99 100 100 100 100 100 100 100 100
100 100 100 100 100 93 90 96 100 98 94 96 84 88 91 85 78 70 66 59 54 48 47 45 46 56 62 77 94 99 99 96 100 100 100 100 100 100 100 100 100 100 100
100 100 100 100 100 100 100 100 100 100 98 95 89 88 88 83 76 73 65 55 50 45 45 49 53 59 69 86 100 100 100 100 100 100 100 100 100 100 100 100 100 100 100

GFSSE_250_rhum_057.txt.gz
RH
22 30 41 53 80 99 91 70 79 69 62 79 84 74 78 87 84 74 56 44 33 28 23 19 20 20 21 16 14 15 21 24 26 27 25 25 25 28 33 33 32 29 26
18 23 32 39 45 52 59 66 68 64 58 65 71 74 76 72 66 59 44 38 34 29 26 23 21 19 15 14 19 27 28 29 30 30 27 28 28 32 33 34 34 30 28
19 17 18 22 24 24 30 36 41 44 58 71 62 52 44 42 41 36 29 26 24 22 18 16 16 16 23 32 33 31 30 32 32 27 28 27 26 28 30 30 34 35 33
24 19 19 21 22 29 38 42 47 58 62 58 54 49 46 39 32 28 21 18 18 17 18 23 39 45 40 34 31 30 32 34 30 30 28 27 25 25 26 27 26 30 32
28 27 25 27 32 42 49 52 58 60 57 56 49 40 32 26 19 18 19 18 18 19 30 51 47 40 36 36 36 30 31 32 31 31 28 27 26 24 22 21 19 19 19
33 36 34 39 45 49 53 56 59 52 45 40 37 32 25 22 21 22 22 22 22 29 48 53 49 47 43 39 36 35 33 33 34 33 31 29 27 25 22 18 17 19 21
44 41 42 44 52 56 56 49 54 57 49 43 36 30 28 25 24 23 23 24 27 33 46 55 60 54 46 39 34 34 38 38 37 35 33 32 29 24 22 21 20 23 21
48 51 51 51 54 60 70 76 67 61 55 44 32 28 26 24 25 24 28 32 37 68 72 65 56 43 32 29 30 35 41 41 39 37 34 29 25 28 27 25 24 26 25
50 58 60 58 60 66 77 78 67 55 39 28 27 27 24 25 29 32 33 31 45 46 48 46 41 33 27 28 33 36 41 44 41 35 29 26 22 23 25 24 28 29 28
50 53 52 53 54 53 52 48 44 34 30 27 26 27 28 29 29 30 36 38 40 41 39 37 32 30 32 39 43 46 44 41 36 28 24 24 27 29 28 30 30 32 36
56 57 51 47 46 43 39 35 32 30 29 29 29 30 28 28 27 34 38 39 41 40 40 40 38 40 42 44 46 49 46 39 32 26 28 34 33 32 32 31 33 38 44
61 56 54 48 47 43 37 33 32 33 32 33 34 34 33 31 30 36 44 47 43 43 42 40 43 42 43 48 49 43 37 33 32 32 33 36 38 36 40 41 43 45 55
65 63 55 49 48 47 41 35 33 34 37 39 37 35 32 34 36 42 60 53 49 49 47 54 59 58 52 47 44 40 36 33 32 33 36 41 44 43 47 65 70 54 55
53 61 63 52 51 54 55 46 46 44 45 43 44 44 41 45 59 72 60 57 55 55 59 63 60 54 51 43 40 39 34 34 36 41 44 49 51 51 56 63 66 79 67
54 50 59 66 64 61 64 64 55 50 49 50 57 53 65 98 87 68 61 57 64 64 63 54 57 55 51 48 43 37 37 41 45 46 50 54 55 69 65 60 93 97 68
69 55 58 65 68 76 75 77 67 55 51 54 88 96 86 76 67 57 63 73 71 65 59 61 55 50 40 38 40 43 50 51 52 54 59 58 82 92 69 79 100 100 100
69 70 74 71 68 71 73 69 62 68 81 91 84 72 64 60 59 80 81 81 73 66 65 63 60 47 49 45 44 49 56 55 49 47 53 69 92 79 91 81 98 100 100
74 75 69 67 81 86 78 72 72 78 80 69 62 61 66 77 84 93 89 78 79 75 66 68 60 59 56 61 49 54 49 55 53 52 63 96 90 78 77 100 95 91 100
80 87 84 78 69 71 76 80 75 70 64 67 79 89 89 92 98 92 78 71 71 70 81 77 67 63 60 55 51 56 59 50 50 53 71 100 100 100 98 88 86 97 100
86 87 90 86 75 70 71 71 69 71 91 98 96 97 100 100 94 91 91 85 82 83 86 78 78 67 62 67 60 64 56 50 51 54 60 90 99 100 96 97 99 100 100
87 75 70 70 75 76 76 73 91 100 100 100 100 100 100 99 98 100 98 97 96 90 90 76 74 82 83 67 60 57 53 52 55 59 54 69 100 80 74 81 100 93 100
100 100 90 82 86 99 100 100 100 100 100 100 100 85 86 100 99 100 100 100 100 94 81 77 72 62 63 57 56 50 50 51 58 52 53 62 69 74 74 77 90 94 100
100 100 100 100 100 100 100 100 100 100 100 100 100 100 84 65 71 80 100 91 79 74 73 69 62 65 63 58 53 50 49 48 52 57 66 82 87 91 89 88 83 94 92
100 100 100 100 100 100 100 97 99 100 100 100 99 95 92 92 95 79 71 66 64 76 71 65 67 63 65 59 54 49 48 50 47 58 86 94 100 100 100 100 100 100 100
100 100 100 100 100 95 92 96 96 90 88 90 82 100 99 94 89 71 71 69 64 70 73 64 66 64 60 57 52 53 51 59 48 50 56 82 78 99 100 100 100 100 100
100 100 100 100 100 100 100 100 96 100 100 100 95 87 86 76 84 84 84 79 65 67 62 66 66 61 55 47 42 41 40 40 58 43 38 37 50 81 99 100 100 100 100

GFSSE_250_rhum_060.txt.gz
RH
25 19 19 25 36 41 48 64 100 100 98 93 79 73 63 82 78 79 74 67 55 42 36 32 28 24 22 18 16 18 28 26 22 22 24 22 22 24 24 25 25 24 22
24 18 17 27 38 54 80 100 99 91 78 73 63 57 72 76 74 75 65 63 50 35 27 23 20 17 16 20 26 32 28 26 27 26 25 26 26 27 28 28 27 25 23
26 20 18 28 35 48 64 78 86 74 64 70 58 61 67 62 52 47 44 32 25 20 17 15 16 17 24 36 41 38 35 35 35 33 30 27 25 27 29 29 28 26 23
28 21 19 21 30 36 43 46 54 60 54 43 51 63 58 53 45 41 31 24 19 18 18 19 20 26 38 44 46 46 42 38 32 26 22 24 26 30 31 32 29 25 26
30 23 22 19 20 21 25 26 28 34 42 50 59 58 57 53 37 31 24 22 21 21 21 22 26 36 48 51 55 46 41 32 26 22 22 27 32 35 35 28 25 22 21
32 34 28 25 25 25 29 38 48 55 59 61 59 60 51 44 42 35 26 21 22 22 26 29 40 58 58 54 44 42 34 24 22 21 25 29 36 38 30 22 21 21 24
32 43 37 30 35 36 40 47 52 58 61 64 66 55 52 48 41 29 25 24 24 26 27 27 33 42 42 40 36 31 28 24 22 29 36 39 40 33 26 23 26 28 30
38 45 46 38 41 50 51 54 58 61 60 62 65 60 49 36 30 28 27 27 26 25 26 33 36 38 38 36 34 29 27 26 30 37 39 39 34 30 28 26 29 30 32
51 52 51 49 50 50 50 52 56 66 72 76 74 62 42 31 30 30 28 27 26 26 31 35 39 40 37 34 33 31 30 36 40 39 37 35 33 31 29 30 32 33 34
63 66 63 57 58 59 58 61 72 77 79 76 67 51 35 30 30 28 28 27 26 29 32 39 47 47 38 37 35 33 41 39 36 36 35 35 30 29 31 34 36 36 38
65 69 73 68 63 65 64 64 67 69 69 63 55 38 30 30 29 31 30 28 28 28 32 37 45 50 45 40 38 43 47 40 37 34 32 30 30 32 37 37 42 43 44
65 66 69 70 68 62 63 68 64 59 54 47 40 35 33 32 33 31 30 30 30 30 40 50 61 49 41 43 45 52 45 41 38 36 33 33 33 38 45 45 47 49 55
71 68 65 60 64 62 61 61 60 54 46 40 36 35 35 35 35 35 38 38 35 45 56 62 47 42 50 53 61 54 52 46 40 36 38 37 41 46 46 48 47 52 76
96 84 72 66 60 63 67 68 63 55 52 49 44 39 38 43 46 45 44 50 67 66 57 50 49 61 61 65 59 57 49 46 43 43 42 47 52 51 54 48 45 46 68
81 83 93 85 72 68 70 71 67 65 62 61 56 60 61 57 52 48 57 83 68 59 58 62 74 74 66 63 61 55 52 49 51 51 54 53 54 62 54 51 48 44 62
72 70 81 86 80 77 70 65 67 67 68 69 67 65 68 68 61 73 88 70 57 62 79 89 77 74 69 66 68 62 58 57 64 64 59 66 66 60 53 50 48 52 64
76 75 78 76 75 76 75 70 66 65 71 75 75 73 72 72 79 87 74 61 70 95 98 89 79 78 77 86 80 73 72 74 67 61 69 72 64 56 50 49 60 66 73
81 79 76 79 83 81 80 80 78 79 83 85 83 83 83 83 84 76 65 76 97 99 88 92 86 93 96 93 75 76 73 68 66 77 72 66 62 54 52 56 67 68 61
86 82 82 83 85 85 85 87 84 84 88 84 85 86 83 76 70 70 83 100 100 98 99 99 100 100 94 86 89 79 70 68 72 78 73 65 58 57 56 53 62 62 66
100 97 90 86 86 89 85 83 84 87 92 94 89 83 77 73 82 100 100 100 97 100 99 99 95 91 88 96 86 79 77 76 75 70 65 61 61 59 57 59 61 67 67
84 84 80 74 66 72 79 84 90 84 77 81 84 81 77 89 100 100 100 100 99 89 99 94 88 91 100 92 74 71 62 65 64 62 58 62 59 63 61 61 63 68 71
99 91 84 79 84 76 70 72 77 83 88 90 86 93 100 100 100 100 100 100 100 99 97 92 98 96 84 77 70 66 63 61 64 54 49 48 60 64 83 91 99 99 100
100 100 100 100 98 100 100 95 91 86 88 91 100 100 99 100 100 100 100 100 100 99 90 94 95 76 74 71 67 60 60 61 53 52 47 53 49 60 76 93 81 100 100
100 100 100 100 100 100 100 100 100 100 100 100 100 100 100 100 95 93 91 91 85 88 87 84 76 72 70 68 67 70 62 58 41 47 50 50 56 53 52 36 43 66 100
100 100 100 100 100 100 100 100 100 100 100 100 100 100 100 98 100 99 80 71 73 74 76 77 75 74 68 78 71 69 62 45 46 44 32 41 32 30 35 37 44 55 67
100 99 94 92 94 96 97 99 100 100 100 97 95 96 100 98 89 79 72 74 79 78 82 70 82 83 75 74 69 60 44 37 23 18 18 22 25 32 33 45 51 62 99

GFSSE_250_rhum_063.txt.gz
RH
38 34 32 28 26 29 34 31 33 37 49 56 76 94 95 93 86 75 66 67 68 66 57 46 31 24 20 17 17 24 29 33 34 36 34 30 26 22 20 19 22 28 28
36 33 29 26 22 23 29 38 42 50 76 100 92 92 86 75 69 62 68 67 64 56 36 21 18 16 16 17 23 30 34 38 43 43 35 27 25 20 18 23 28 29 27
36 33 28 25 19 19 26 40 51 62 80 89 96 82 77 69 64 67 60 53 46 28 21 19 19 19 19 21 27 32 44 45 40 39 32 25 20 20 26 31 32 30 23
36 34 28 23 18 18 30 46 58 74 90 98 93 69 62 63 62 59 51 45 31 20 19 20 21 21 23 27 41 43 44 39 35 29 24 23 23 27 30 30 30 27 26
36 34 30 26 19 20 29 40 48 58 58 60 57 55 45 53 57 57 50 32 24 20 21 22 23 24 26 24 31 36 34 34 32 28 25 26 27 30 31 31 29 25 23
38 34 31 28 22 20 22 31 31 39 34 35 40 47 57 59 60 54 41 36 27 24 25 26 27 29 27 31 35 32 35 32 30 29 29 28 28 30 29 30 29 26 26
40 34 30 34 27 25 24 26 30 33 43 51 61 62 66 67 58 51 41 27 26 26 26 28 28 26 28 32 39 42 44 41 35 32 29 27 30 31 30 29 29 28 29
48 44 35 34 39 30 27 29 33 40 57 62 67 72 70 60 57 50 34 28 28 29 29 28 26 26 28 32 36 38 45 40 33 33 31 31 34 34 30 29 29 28 31
50 52 49 42 46 45 31 35 38 53 66 66 67 64 62 64 64 51 33 30 30 30 29 28 27 27 27 30 37 46 46 36 33 33 35 37 38 34 31 33 32 32 37
58 60 56 58 51 51 41 40 50 60 70 72 72 71 82 81 73 53 37 31 31 29 31 28 28 28 30 38 50 47 39 35 38 39 40 41 40 35 40 41 40 38 42
61 66 63 58 56 58 56 54 59 66 68 73 78 87 86 78 67 56 40 34 32 33 32 29 31 36 53 54 49 42 36 37 46 48 44 47 44 45 50 53 52 56 54
64 70 68 66 61 66 66 65 64 70 71 72 75 70 61 55 47 42 37 36 35 33 32 35 35 49 56 50 44 41 48 57 59 50 51 53 48 54 61 63 65 65 64
67 83 74 75 76 76 78 80 74 69 68 70 70 64 53 46 41 37 37 34 34 36 40 44 48 64 56 48 46 48 65 64 66 60 61 58 64 67 68 64 63 73 64
68 74 75 80 81 81 84 85 79 72 66 66 64 59 53 50 47 46 44 42 43 45 47 47 59 62 54 52 54 69 72 78 76 70 69 66 80 81 64 66 76 69 67
70 71 76 78 82 81 83 79 77 72 68 67 67 69 66 60 60 64 64 60 56 59 58 60 65 62 61 70 72 73 82 86 84 82 69 80 86 75 70 68 65 68 62
78 78 76 75 81 88 89 82 80 75 67 66 69 72 72 70 68 66 69 70 70 71 75 75 69 69 88 80 77 88 89 90 80 72 79 86 79 71 74 67 68 62 56
68 83 83 77 85 94 98 97 90 85 81 79 78 77 71 70 73 78 79 75 76 82 83 74 72 97 87 99 94 86 79 78 71 75 88 84 75 75 70 65 60 56 55
83 81 83 84 81 90 88 75 93 96 87 83 81 76 76 74 74 78 80 77 79 82 76 76 100 98 100 94 88 82 77 73 78 86 78 81 77 81 67 64 58 53 66
86 92 93 87 79 78 77 74 73 78 81 82 87 88 83 83 84 84 86 87 85 81 83 100 94 86 97 85 85 86 81 76 86 77 84 78 80 72 66 58 55 52 56
96 100 100 100 94 86 83 83 84 87 90 89 92 95 93 88 87 91 92 91 86 94 100 84 87 100 100 100 90 89 82 82 78 82 74 80 75 67 58 56 49 56 62
100 93 96 100 100 99 96 90 88 88 89 92 92 87 85 82 76 85 91 89 100 100 83 96 100 100 100 97 91 83 73 75 79 78 79 70 63 58 53 46 46 57 64
100 100 100 92 94 99 100 100 100 100 98 94 92 92 95 95 93 97 100 100 100 100 100 100 100 100 98 91 81 69 73 76 89 86 73 65 57 49 43 38 30 35 49
100 100 100 100 95 91 96 99 100 100 100 99 100 98 99 100 100 100 100 100 96 99 100 100 100 92 85 84 76 70 72 90 84 78 69 57 49 39 35 29 24 22 24
100 100 100 100 100 100 99 98 95 93 96 100 100 100 100 100 100 100 100 100 100 100 100 94 84 84 84 79 75 92 86 81 74 68 59 49 36 33 26 18 19 25 33
99 100 100 100 100 100 100 100 100 100 100 100 100 100 100 99 98 94 99 100 95 81 86 89 88 90 80 77 97 92 96 79 72 64 54 37 22 22 21 21 26 32 34
94 85 84 99 100 100 100 100 100 100 100 100 100 100 100 100 100 100 100 96 89 92 92 90 88 79 98 100 97 92 78 70 68 55 37 21 16 20 22 30 34 30 26

GFSSE_250_rhum_066.txt.gz
RH
32 48 52 47 41 39 34 30 45 36 36 48 56 63 56 82 100 95 86 81 69 56 65 64 33 22 18 17 17 17 20 25 30 36 35 33 29 25 23 22 21 23 24
33 58 53 45 39 33 29 28 30 31 35 36 40 48 55 83 89 90 81 63 64 59 61 43 23 18 18 18 20 22 27 35 36 32 31 30 29 27 25 23 23 24 24
40 46 47 40 36 31 28 24 24 30 35 38 48 74 92 90 89 82 72 62 56 54 44 27 19 19 21 22 24 24 25 27 30 33 34 34 31 28 25 25 27 26 26
44 40 39 38 36 31 26 22 20 24 36 57 72 99 100 96 80 72 68 62 56 50 35 23 20 22 23 24 24 23 25 28 37 36 35 34 30 27 26 27 28 30 28
50 43 37 38 38 32 26 20 18 27 47 76 82 92 86 83 68 58 58 60 58 43 32 24 22 24 26 25 22 22 25 33 35 35 37 37 30 26 26 29 33 33 30
51 45 39 38 38 32 26 19 20 30 48 54 64 60 56 54 58 54 58 62 51 41 31 25 25 28 27 24 23 25 29 30 32 37 40 34 30 28 30 33 33 36 32
48 46 43 41 38 33 28 20 21 28 38 41 45 43 52 55 56 60 66 59 50 39 28 26 30 29 29 28 26 27 28 33 38 40 37 33 34 31 34 38 38 39 35
49 47 48 43 38 34 33 24 23 27 34 39 46 54 60 63 67 72 66 58 54 41 30 29 30 30 30 28 25 27 32 34 37 36 33 32 31 32 39 41 41 41 40
52 49 48 46 40 32 36 33 30 35 43 47 47 56 62 66 77 84 73 69 63 48 35 32 32 31 32 29 26 30 30 36 37 36 34 35 35 41 47 47 50 48 50
56 52 49 49 45 38 37 44 45 40 46 48 49 58 69 71 68 69 73 77 74 58 44 36 34 34 32 31 28 28 34 42 42 39 37 37 40 47 55 53 55 56 68
56 57 54 52 49 46 45 51 56 51 45 50 56 62 69 77 84 97 97 89 70 53 42 37 35 33 34 36 34 37 38 45 48 41 45 48 49 55 62 63 59 66 77
52 58 56 57 56 55 56 56 60 58 54 53 56 58 64 74 82 83 74 62 55 45 39 37 38 37 42 43 44 50 51 52 49 51 57 58 64 72 70 62 70 72 64
62 62 62 61 61 62 66 63 63 66 64 61 57 59 64 66 63 61 57 52 49 47 46 47 51 54 54 58 58 60 62 54 59 76 68 73 76 71 69 65 68 67 67
63 64 65 65 67 65 68 68 66 66 74 79 78 75 75 73 70 64 60 59 56 54 57 59 61 60 61 62 65 66 62 59 88 84 81 80 80 74 68 68 63 66 65
91 81 74 66 66 71 81 76 71 73 79 84 87 83 80 77 73 70 69 68 69 68 66 65 62 64 62 63 69 72 61 81 84 91 76 92 81 74 69 66 62 66 70
91 81 82 75 70 72 87 76 77 79 82 83 84 82 79 76 72 69 72 77 74 67 65 69 71 71 69 81 82 71 74 83 85 84 94 95 77 73 68 62 64 70 74
100 96 81 75 71 70 72 77 80 82 82 83 88 86 87 81 80 83 79 77 76 78 75 74 74 76 86 93 86 66 87 94 88 96 97 82 82 76 71 65 76 73 66
79 81 84 81 75 73 74 74 80 83 88 90 98 100 99 91 94 90 82 79 87 91 87 82 80 84 92 92 70 74 86 84 94 100 94 88 84 75 67 77 76 74 64
74 66 71 77 73 76 78 86 86 84 88 91 97 97 85 88 84 81 84 84 84 86 87 82 83 94 92 71 63 87 86 93 95 94 87 82 79 70 76 73 72 63 52
97 94 98 99 96 87 83 84 85 92 94 99 98 88 80 79 80 86 89 85 85 85 84 91 98 87 79 72 86 93 83 92 97 96 84 80 71 79 78 73 62 56 54
100 100 100 100 100 100 98 100 97 96 96 95 88 84 83 88 90 92 95 93 89 93 98 93 88 88 90 86 98 89 100 100 100 85 83 72 86 85 73 71 58 53 54
100 100 100 100 100 100 100 100 100 100 99 98 99 100 100 100 98 98 97 100 92 89 90 94 94 99 99 100 90 100 100 100 90 84 75 86 86 80 77 65 57 54 39
100 100 100 100 100 100 100 100 100 100 100 100 100 100 100 100 100 100 99 98 97 100 100 100 100 100 100 100 100 98 87 92 88 85 90 90 86 74 70 62 57 42 23
100 100 100 100 100 100 100 100 100 100 100 100 100 100 100 100 100 100 100 100 100 100 100 100 100 100 100 100 92 90 91 84 80 78 86 85 75 77 72 66 50 22 19
97 100 100 100 100 100 100 100 100 100 100 100 100 100 100 100 100 100 100 99 100 100 100 100 100 99 87 97 97 100 90 89 86 78 87 77 75 76 71 59 27 20 24
88 95 100 100 100 100 100 100 100 100 100 100 100 100 100 100 100 100 100 100 100 100 99 96 95 97 100 100 100 100 99 99 83 90 74 69 67 67 67 37 22 24 26

GFSSE_250_rhum_069.txt.gz
RH
36 42 40 32 37 47 40 41 40 40 34 36 42 54 63 78 87 94 100 98 90 85 67 61 60 47 25 19 19 20 21 20 19 18 24 33 29 28 30 29 26 23 23
37 42 42 34 38 54 47 41 40 37 33 36 39 35 40 47 71 59 85 89 86 78 60 58 51 34 21 20 22 21 18 18 18 22 32 33 30 31 32 30 26 25 26
44 41 42 37 58 50 46 42 35 30 28 30 32 34 42 48 75 92 93 81 77 73 60 53 46 26 21 23 23 21 21 20 22 28 28 26 30 36 31 28 26 26 27
44 39 39 40 57 53 44 37 32 27 24 24 29 40 50 54 72 93 90 78 70 65 62 54 41 28 23 24 25 24 21 21 26 26 25 32 34 34 30 28 26 26 27
52 44 40 49 51 49 39 36 32 27 23 20 28 58 69 94 95 85 80 67 61 62 63 54 38 29 24 25 26 26 23 25 25 24 25 28 30 34 31 29 26 28 29
64 45 41 48 45 41 37 36 33 28 21 21 37 55 72 84 74 69 60 61 60 65 64 48 37 25 26 26 28 28 27 25 23 26 25 28 32 33 31 30 29 30 31
63 42 45 50 46 39 36 37 34 28 20 23 36 48 59 64 60 59 64 63 70 76 60 50 38 31 28 28 29 28 29 26 24 25 24 27 33 36 34 33 34 34 39
56 42 42 50 49 42 37 39 35 29 22 23 32 42 49 53 55 64 68 75 87 79 66 62 50 37 30 30 30 30 30 28 26 27 28 30 32 36 33 35 36 42 49
51 43 45 47 45 44 39 40 36 32 25 22 28 36 47 58 66 71 75 79 82 83 77 67 53 43 36 32 31 31 31 32 28 32 32 30 38 36 38 41 42 48 59
51 44 42 48 47 51 45 44 37 37 32 27 32 42 49 60 71 82 78 79 83 80 80 70 64 53 41 34 34 35 35 38 39 43 38 40 43 42 45 47 56 60 69
60 52 40 45 49 50 52 49 39 37 39 39 37 40 50 62 71 70 70 67 78 81 80 75 58 45 40 38 38 42 48 49 50 54 50 52 47 48 51 61 61 79 78
65 58 50 40 47 47 50 56 49 44 44 49 49 44 47 51 57 66 74 86 89 84 71 60 54 52 48 46 45 54 51 57 67 61 57 55 51 51 54 67 79 92 75
80 68 62 50 41 50 54 56 53 52 51 54 56 56 57 56 56 62 69 72 70 66 62 59 61 60 60 56 55 55 61 66 69 60 61 58 54 58 67 75 91 92 82
87 80 69 64 49 48 52 56 59 57 61 60 59 64 67 66 67 68 67 68 66 67 67 66 67 70 68 65 67 66 71 73 72 63 60 57 60 70 72 90 92 84 75
100 96 92 81 70 55 54 54 60 64 64 68 66 62 64 74 83 86 80 80 79 72 69 71 73 68 68 70 73 75 79 74 75 69 61 67 73 76 93 98 84 75 70
100 99 88 93 86 70 63 62 62 66 70 75 77 70 69 73 77 84 86 84 86 84 77 75 72 71 73 78 79 81 81 79 78 72 67 73 81 97 100 95 79 73 70
98 100 100 100 100 88 74 70 67 65 66 80 80 73 80 85 82 79 83 82 91 94 87 77 81 82 80 82 85 80 81 89 82 75 78 92 98 100 94 81 74 72 61
93 100 100 100 100 92 77 71 67 67 67 68 81 79 83 87 86 90 93 95 94 78 80 85 80 86 85 88 85 90 96 89 82 84 94 100 100 96 88 75 72 66 62
100 85 99 100 100 100 90 83 76 74 68 70 74 78 79 84 86 94 92 85 93 86 83 82 86 90 92 88 91 97 91 93 94 98 100 100 94 86 78 76 69 63 64
100 100 93 75 94 100 99 98 96 88 80 77 77 77 84 90 90 97 96 92 90 89 85 92 99 98 99 99 97 93 96 98 97 100 98 96 85 82 80 72 66 70 68
100 100 100 100 93 97 100 100 100 100 100 98 88 88 94 96 99 100 100 100 97 96 100 100 100 100 100 92 90 100 100 100 100 89 93 91 90 85 73 73 73 69 61
100 100 100 100 100 100 100 100 100 100 100 100 100 100 100 100 100 100 100 100 100 100 100 100 100 95 88 98 95 100 100 100 98 92 98 94 89 81 88 79 72 68 58
100 100 98 97 98 100 100 100 100 100 100 100 100 100 100 100 100 100 100 100 100 100 100 96 88 98 100 100 100 100 98 100 100 100 98 96 90 96 83 80 72 63 56
100 100 100 96 97 93 96 100 100 100 100 100 100 100 100 100 100 100 99 100 100 100 99 100 100 100 100 100 100 99 99 97 100 94 100 97 99 94 87 77 71 60 44
100 100 100 100 100 100 100 100 100 100 100 100 100 100 92 88 91 96 100 100 100 100 100 100 100 100 100 100 100 100 100 93 91 91 92 97 98 89 80 72 69 55 31
100 100 100 100 100 97 97 100 100 100 100 100 100 100 100 100 100 100 100 100 100 100 100 100 100 100 100 100 100 100 96 99 86 93 87 99 88 85 81 72 66 40 34

GFSSE_250_rhum_072.txt.gz
RH
43 39 31 38 41 43 52 57 49 42 38 44 45 37 33 43 58 70 83 89 100 90 78 81 71 59 55 46 22 20 21 20 20 21 25 24 24 27 29 30 30 28 26
48 41 32 34 42 39 34 36 44 42 35 36 39 37 38 42 40 52 55 70 86 88 82 75 65 56 44 38 22 20 22 20 21 22 24 24 25 25 27 25 25 28 27
61 51 36 39 44 45 36 40 44 42 40 37 36 31 31 34 34 45 77 95 92 86 75 71 64 57 46 36 22 22 24 23 25 25 24 24 24 23 22 23 22 28 29
65 58 42 42 44 43 46 45 44 43 41 35 31 28 26 29 35 44 76 87 90 78 66 67 65 59 49 36 26 24 25 25 27 26 24 23 23 23 22 21 26 27 29
57 62 54 47 44 44 53 56 51 45 38 32 28 24 22 26 40 75 100 97 79 68 63 66 69 63 52 36 28 28 28 26 27 27 26 25 23 25 24 22 30 31 31
63 60 55 48 42 41 45 47 55 46 36 32 28 25 21 36 50 84 83 73 66 58 63 69 72 65 54 42 32 29 28 27 27 26 27 28 26 27 28 30 35 38 35
60 56 61 53 50 42 47 49 48 43 36 31 28 22 22 43 57 62 66 64 60 63 72 80 81 70 58 52 40 33 30 28 26 26 28 32 30 30 35 38 41 42 38
62 58 72 65 58 46 48 50 44 39 36 34 29 22 24 43 50 54 59 58 64 74 81 85 89 75 65 57 52 41 33 30 30 28 31 38 36 37 40 45 45 43 38
73 62 54 67 60 44 49 54 48 38 37 36 29 24 26 38 46 53 61 62 71 81 85 83 79 79 72 65 52 44 38 37 36 36 42 44 42 41 46 46 48 44 42
78 63 44 59 52 42 48 56 51 40 37 37 31 27 25 35 44 58 70 73 76 79 80 79 76 76 72 64 55 46 43 43 40 45 46 49 47 49 51 51 52 46 47
86 63 43 48 45 40 44 50 52 46 38 38 36 34 28 34 44 54 61 76 80 78 79 75 76 81 78 62 55 51 55 60 55 54 54 55 50 55 55 55 53 52 50
87 74 53 48 46 43 40 44 47 50 47 41 36 38 38 38 41 47 55 61 68 66 66 69 74 73 66 64 67 70 69 61 57 56 62 60 59 60 55 57 57 52 61
98 92 72 58 54 46 41 39 43 47 51 50 42 40 43 50 50 52 57 60 67 74 76 76 74 76 72 70 67 63 62 60 61 68 70 69 64 65 61 60 57 64 80
94 98 91 74 63 55 50 44 41 41 45 46 52 48 47 54 59 61 63 69 70 72 77 84 85 81 76 74 74 68 65 73 73 77 81 70 68 72 63 63 66 86 90
99 100 95 92 82 66 60 57 50 43 43 47 50 54 57 63 64 67 70 72 78 85 83 83 78 76 81 79 78 69 74 79 81 84 75 66 78 77 67 75 86 91 94
97 80 92 99 95 92 75 70 63 56 47 46 50 54 63 68 72 73 72 73 79 80 78 82 79 82 91 81 73 81 79 83 86 85 80 82 80 79 80 88 100 98 95
100 100 96 89 100 100 97 87 78 72 63 54 50 54 56 66 81 86 76 78 84 83 90 90 92 89 91 89 84 81 84 90 98 92 87 86 87 86 92 95 98 95 74
100 100 100 100 100 91 90 98 90 80 74 63 57 57 60 63 67 80 81 82 85 88 86 85 94 95 94 92 93 91 96 100 98 100 87 88 94 95 100 99 90 72 61
100 100 100 100 100 100 100 100 100 98 92 81 68 66 68 70 72 73 76 79 81 81 84 88 94 95 93 98 99 100 100 100 98 88 88 94 98 100 89 82 62 58 73
100 100 100 100 100 92 100 100 100 100 100 100 96 90 84 78 78 78 74 74 77 82 94 93 93 97 100 100 100 100 100 100 87 96 99 100 100 93 73 59 57 67 68
100 100 100 100 100 100 88 93 100 100 100 100 100 100 100 99 94 90 86 87 88 94 100 100 100 100 100 100 100 100 100 100 100 100 97 100 93 78 69 60 68 68 67
100 100 100 100 100 100 100 98 94 94 97 99 100 100 100 100 100 100 100 100 100 100 100 100 100 100 100 100 99 96 100 100 100 100 99 89 83 78 75 74 74 76 75
100 96 98 100 100 100 100 100 99 100 100 100 100 100 100 100 100 100 100 100 100 100 100 100 100 100 99 98 97 97 100 100 100 100 100 93 94 86 81 75 76 78 81
100 99 94 86 97 100 100 100 100 100 100 99 100 100 100 100 100 100 100 100 100 100 100 100 100 100 98 98 100 100 100 100 100 100 98 98 100 96 81 82 85 79 77
100 100 100 100 100 100 100 100 100 100 100 100 98 100 100 100 100 100 100 100 100 100 100 100 100 100 100 100 100 100 100 100 100 93 92 100 99 99 94 88 84 82 80
100 100 100 100 100 100 100 100 100 100 100 100 100 100 100 100 100 100 100 100 100 100 100 100 100 100 100 100 100 100 100 100 100 99 97 100 95 97 99 89 81 75 70

GFSSE_250_rhum_075.txt.gz
RH
61 52 50 50 52 58 71 69 63 59 47 45 43 41 46 48 40 38 47 68 70 77 73 74 80 77 70 58 56 42 27 22 22 23 22 22 25 24 22 24 23 23 22
59 49 50 47 42 44 44 52 48 44 54 54 44 38 35 38 39 43 43 58 66 56 90 89 81 68 66 62 54 40 30 22 22 24 23 23 22 21 22 23 23 25 26
57 46 53 48 44 37 30 35 36 35 33 34 38 37 36 37 34 34 38 42 64 82 92 85 74 70 69 64 53 44 31 26 25 26 25 24 23 25 23 25 24 27 27
47 45 55 54 51 41 32 32 38 36 34 37 33 38 38 32 29 28 30 43 66 75 74 82 67 66 68 66 60 52 36 29 26 26 25 26 24 26 23 25 28 32 31
51 48 53 59 57 50 38 40 39 38 39 40 36 38 34 30 27 24 26 40 73 86 92 77 67 66 72 72 66 59 47 36 28 28 28 25 26 25 25 27 31 34 37
62 57 60 64 66 50 46 42 41 46 52 45 43 39 34 29 27 22 29 56 96 84 71 66 61 70 79 82 73 68 59 47 36 31 28 27 29 28 29 35 36 41 37
60 62 66 68 64 62 51 45 41 41 45 47 48 39 35 30 23 24 35 59 71 71 66 61 66 79 85 82 80 70 63 57 49 40 36 36 31 33 38 34 40 41 40
84 79 72 69 69 68 60 50 43 42 40 43 46 40 34 32 25 25 42 52 56 64 63 63 73 81 84 85 86 77 69 60 54 49 44 42 42 42 43 42 46 45 42
92 86 80 80 71 63 63 57 52 47 42 46 42 39 35 32 26 25 35 45 50 58 62 70 79 86 85 85 81 74 67 69 58 54 54 54 48 44 48 47 49 45 50
80 90 98 83 66 59 64 66 61 50 44 46 45 39 36 34 27 25 29 40 47 60 62 72 76 83 86 90 84 76 78 64 63 63 56 55 54 53 52 58 54 50 57
94 80 95 82 69 71 57 65 64 51 44 51 50 42 39 37 31 30 30 38 45 58 62 62 64 71 84 81 73 75 70 70 70 65 59 59 56 54 64 61 53 56 55
94 88 80 84 77 77 56 64 56 46 42 50 49 44 42 40 37 34 36 40 47 53 50 57 70 66 64 70 75 73 79 77 67 66 61 58 52 53 56 56 61 59 56
88 91 92 86 80 81 62 48 45 42 47 45 47 51 50 43 40 38 40 45 44 45 52 53 56 68 71 76 79 78 70 63 62 67 62 63 55 68 59 55 59 60 53
90 89 98 100 97 84 70 48 46 43 44 44 42 43 48 52 48 48 49 54 57 58 63 67 73 77 81 84 80 73 74 68 78 74 72 61 69 86 66 64 60 55 54
89 93 100 96 89 88 86 65 56 52 45 43 46 44 41 44 55 59 58 58 60 68 71 74 77 78 81 79 81 82 86 86 85 83 69 73 91 85 73 66 61 57 66
100 100 95 94 98 97 96 87 74 66 56 52 51 47 46 47 48 52 60 66 68 70 73 76 76 77 82 79 85 80 84 88 78 76 80 94 96 85 78 71 64 74 83
100 100 92 95 99 100 100 100 99 87 72 62 60 58 55 55 54 54 54 62 67 73 80 85 79 80 80 81 83 84 86 84 78 94 99 100 96 88 76 73 71 68 67
100 100 94 99 100 100 99 100 100 100 95 83 70 68 67 64 62 61 64 64 62 64 67 73 74 79 78 79 79 88 91 93 100 100 100 98 90 81 78 69 60 65 82
100 100 95 96 93 95 100 90 88 96 100 100 92 83 79 78 76 70 69 69 74 74 78 76 76 77 78 79 84 93 100 100 100 98 100 88 80 75 72 66 69 75 78
100 100 100 100 100 93 96 100 100 100 100 100 99 94 96 94 94 91 88 84 85 88 91 93 94 90 91 95 100 100 100 100 98 100 93 83 76 78 78 75 80 76 62
100 100 100 100 100 100 100 89 100 100 100 100 100 100 100 100 100 100 100 100 100 100 100 100 100 100 100 100 100 99 100 100 100 98 91 85 81 85 84 79 75 64 61
100 100 100 100 100 100 100 100 100 100 89 80 75 77 80 95 100 100 100 100 100 100 100 100 100 100 100 99 100 100 100 100 93 99 97 85 94 89 83 77 64 63 60
100 100 100 100 100 100 100 100 100 100 88 82 81 77 83 89 100 100 100 100 100 100 100 100 100 98 100 100 100 100 100 98 100 100 100 100 98 92 83 69 63 62 73
99 100 100 100 100 100 100 100 100 100 100 94 97 98 100 100 100 100 100 100 100 100 100 100 100 100 100 100 100 100 100 100 100 100 100 100 100 98 83 79 79 81 75
100 100 98 100 100 100 100 100 100 100 100 100 100 100 100 100 100 100 100 94 99 100 100 100 100 100 100 100 100 100 100 100 100 100 100 100 100 100 99 81 82 82 72
100 100 100 100 100 97 99 100 100 98 100 100 100 100 100 100 100 100 100 100 100 100 100 100 100 100 100 100 100 100 100 100 100 100 100 100 100 100 98 84 77 72 76

GFSSE_250_rhum_078.txt.gz
RH
53 55 69 72 70 64 60 60 69 69 72 62 45 43 42 45 45 41 45 41 44 52 48 50 50 78 86 73 67 64 57 43 36 26 25 25 24 24 22 22 22 23 23
66 58 61 63 58 53 51 52 55 60 67 62 53 53 52 47 42 39 39 42 41 49 53 54 85 90 84 68 69 68 61 48 44 34 26 24 24 24 23 21 23 22 25
84 74 73 67 60 48 45 48 46 45 46 48 40 38 37 39 39 38 38 34 32 38 46 72 86 88 79 68 68 68 65 60 54 45 30 25 25 24 22 24 26 25 26
99 88 80 77 73 51 47 45 42 37 32 34 37 35 33 35 38 39 34 30 27 34 47 66 66 75 80 70 73 73 73 69 62 57 45 33 28 24 26 29 30 29 31
72 78 85 71 73 53 48 47 42 37 33 30 39 36 38 34 36 35 31 28 24 29 42 77 88 92 76 67 70 76 81 78 75 66 59 52 41 38 37 33 34 34 36
66 50 48 60 55 49 58 54 43 44 36 35 34 36 37 38 42 36 30 28 24 29 65 90 84 69 66 64 68 74 79 80 82 74 66 53 52 46 40 42 35 37 40
70 46 50 53 51 48 51 57 50 41 41 36 38 42 40 43 46 39 32 27 23 33 57 72 71 65 61 66 71 73 81 84 79 70 61 62 56 51 47 43 42 42 41
84 55 50 60 61 55 55 63 62 48 45 42 41 38 40 39 44 40 34 29 24 37 56 60 61 61 59 63 63 68 73 78 79 66 68 64 58 54 47 49 47 45 39
89 72 57 61 64 60 65 66 68 62 52 47 45 42 40 41 42 38 35 29 29 37 48 48 49 55 59 62 62 66 72 76 75 71 68 62 58 56 56 54 52 48 46
100 100 74 87 78 67 74 71 71 67 58 52 50 50 43 44 43 38 36 31 33 33 40 43 42 47 57 64 64 65 68 77 67 65 62 63 57 56 59 58 54 59 47
95 100 100 87 96 90 82 80 78 64 63 61 62 57 47 44 45 39 37 34 32 34 33 37 42 48 56 58 57 68 66 63 70 66 69 65 60 64 62 58 62 58 54
97 94 92 88 85 100 92 94 73 64 63 67 70 59 49 48 48 41 38 39 36 34 36 39 46 48 51 54 58 57 64 69 75 73 71 74 64 60 59 62 64 66 55
89 86 74 86 99 96 93 96 79 72 66 60 75 53 47 47 48 42 41 40 39 37 38 46 47 46 50 52 57 60 69 77 77 73 75 63 69 65 62 71 71 72 52
89 96 72 82 84 100 92 94 87 76 68 52 56 47 47 49 47 44 46 45 42 42 41 46 47 51 52 59 64 69 72 72 75 78 72 71 63 65 80 87 78 57 55
98 81 77 76 78 90 94 89 90 82 76 64 50 45 43 49 51 51 52 49 44 45 51 53 54 60 66 66 71 74 71 71 70 72 71 67 74 94 92 79 67 66 61
98 93 93 100 78 86 100 95 92 89 86 81 64 54 50 47 50 52 55 55 55 59 60 61 64 68 71 69 77 82 73 70 72 74 69 83 97 92 85 70 72 68 60
100 100 96 82 96 94 100 100 98 91 91 95 88 74 69 63 54 54 53 58 62 62 63 65 65 65 67 69 68 72 74 78 79 76 98 100 98 86 72 69 65 67 66
96 100 83 75 96 94 98 100 100 98 98 92 95 97 97 86 74 63 64 63 65 66 68 70 69 71 74 80 86 88 90 90 94 100 91 97 90 87 75 69 69 71 70
100 100 76 95 95 99 100 100 100 99 99 96 100 100 100 100 100 98 89 79 80 81 78 76 76 76 80 87 94 97 97 100 100 93 93 85 84 78 79 74 78 80 80
100 100 100 87 90 97 99 100 100 100 100 100 100 96 97 97 100 100 100 97 96 97 92 94 97 98 100 100 100 100 100 99 83 88 86 86 81 82 83 93 96 95 95
100 100 100 100 96 100 100 100 100 100 100 100 100 100 100 100 100 100 100 100 100 100 100 100 100 100 100 100 100 100 98 95 94 100 97 100 90 94 97 93 100 100 97
100 100 100 100 97 96 99 97 91 96 100 100 100 100 100 89 99 100 100 94 96 100 99 100 100 100 100 100 100 100 100 100 100 100 100 100 100 100 100 100 100 99 88
100 100 100 100 100 100 86 94 97 98 100 100 100 100 98 95 99 88 84 86 89 96 100 100 100 100 100 100 100 100 98 100 100 100 100 100 100 100 100 99 100 94 92
100 100 100 100 100 100 99 94 91 99 100 100 100 100 100 100 100 91 79 98 96 100 100 100 100 100 100 100 100 95 100 100 100 100 100 100 100 100 100 100 100 98 83
99 100 100 100 100 100 100 100 100 100 89 99 100 100 100 100 100 100 100 100 100 100 100 100 100 100 100 100 100 100 100 100 100 100 100 100 100 100 100 95 97 83 85
100 100 100 100 100 100 100 100 100 100 100 100 98 100 100 100 100 100 96 100 94 96 99 100 100 100 100 100 100 100 100 100 100 100 100 100 100 100 97 100 89 87 88

GFSSE_250_rhum_081.txt.gz
RH
54 55 52 54 64 68 71 73 82 76 66 63 61 60 47 39 41 40 41 40 39 40 47 56 63 56 60 91 80 72 68 66 66 59 49 52 43 29 26 25 24 21 23
71 70 59 56 61 67 75 73 73 61 57 57 66 65 59 49 46 45 44 38 38 41 44 54 52 47 77 96 85 76 69 69 66 64 62 56 55 45 36 33 26 27 29
82 81 70 62 58 64 78 72 65 53 50 52 48 51 53 43 36 33 34 35 39 38 33 33 40 65 76 80 83 77 70 69 65 61 59 58 60 54 52 44 40 37 34
96 89 88 84 75 59 69 66 58 48 42 44 43 37 33 35 37 34 35 38 37 32 30 27 36 51 76 88 81 82 69 71 60 60 58 62 66 63 54 44 42 38 37
84 89 91 93 89 78 71 69 62 51 44 44 42 38 35 33 37 40 35 38 38 30 28 28 34 55 97 92 80 65 64 59 54 60 65 70 68 60 55 53 46 44 36
90 83 90 91 93 94 84 74 69 56 42 42 38 36 37 38 34 40 38 42 39 34 28 26 31 63 69 74 63 61 58 56 54 59 60 64 66 60 60 50 44 40 41
81 71 70 75 76 70 80 74 61 54 42 42 41 40 40 38 39 42 38 45 44 35 32 27 36 51 61 64 58 57 58 53 51 54 60 61 61 59 52 47 43 43 48
68 68 59 62 67 58 48 53 57 47 42 45 51 43 42 41 41 40 41 42 44 36 34 31 36 45 52 50 51 55 59 54 52 54 56 63 60 55 53 53 51 48 48
74 76 75 83 77 50 49 55 59 50 54 61 62 56 49 47 46 43 43 43 41 36 35 30 34 43 46 41 43 46 53 53 49 50 58 57 55 61 64 58 57 56 56
96 89 84 86 86 68 51 58 62 62 62 66 68 67 59 52 50 50 45 43 42 38 37 32 36 38 41 40 36 38 43 44 47 53 52 55 66 74 71 64 58 63 55
100 100 100 95 87 78 65 57 60 62 68 72 70 73 61 58 60 56 51 44 45 40 38 36 34 36 34 35 36 40 42 45 49 53 60 67 74 74 70 66 64 56 62
100 96 99 90 98 100 88 80 74 76 82 74 76 70 63 70 73 69 54 45 44 44 38 38 38 36 36 38 40 43 49 53 54 57 63 68 71 75 67 69 63 70 74
100 100 96 87 81 100 100 100 83 84 82 78 76 65 70 66 69 76 55 46 46 44 41 40 41 38 39 42 50 54 56 56 62 63 74 74 75 72 70 69 73 73 70
100 100 100 100 99 90 100 100 96 81 89 86 83 73 71 64 54 66 51 42 46 46 46 44 44 42 46 51 51 54 57 61 66 68 77 77 70 74 80 82 77 68 63
95 90 100 100 100 100 98 99 94 87 89 86 88 83 78 70 56 51 45 39 41 46 47 46 48 49 52 55 56 61 64 64 64 63 70 72 74 91 95 79 69 64 58
87 77 92 100 95 91 76 100 100 100 88 84 78 84 81 84 73 59 52 49 48 47 48 50 49 52 54 57 61 65 66 66 70 76 84 90 100 95 83 74 73 68 59
88 76 71 91 100 100 73 92 100 100 100 100 95 94 91 86 89 83 74 70 71 68 59 60 61 63 64 66 69 74 73 72 74 81 93 100 100 86 81 85 75 62 67
85 100 92 98 100 100 80 100 100 100 100 100 100 100 100 100 97 100 98 93 94 87 82 81 72 70 74 81 84 82 81 87 91 100 100 98 88 90 95 78 76 74 79
99 100 83 74 94 100 84 78 100 100 100 100 100 100 100 100 100 100 100 100 100 100 100 100 100 97 93 91 99 99 100 100 100 100 95 92 97 100 91 83 90 84 90
100 100 98 92 72 100 100 84 84 100 100 100 100 100 100 100 100 100 100 100 100 100 100 100 100 100 100 100 100 100 100 100 100 100 92 96 98 90 90 93 98 100 100
96 94 96 96 89 74 100 95 90 100 100 100 100 100 100 100 100 100 100 100 100 100 100 100 98 99 99 98 100 100 100 100 100 100 100 100 93 89 87 98 100 100 100
100 96 83 74 84 79 100 99 100 100 100 100 100 100 100 100 100 100 100 100 100 100 100 100 100 100 100 100 100 100 100 100 100 100 100 100 92 87 100 100 100 100 100
100 100 100 86 88 89 92 93 99 91 100 100 100 100 100 100 100 100 100 100 100 100 100 100 100 100 100 100 100 97 100 100 100 100 100 100 96 95 100 100 100 100 100
100 100 100 100 100 88 97 99 100 100 100 100 100 100 100 100 100 93 100 100 100 100 100 100 100 100 100 100 100 87 91 100 97 100 98 80 93 96 100 100 100 100 100
100 100 100 100 100 100 100 100 100 100 100 100 100 100 100 100 100 100 100 100 100 100 99 100 99 96 80 87 100 100 77 66 80 86 100 100 100 100 100 100 100 100 100
84 100 100 100 100 100 98 99 100 98 90 96 99 98 100 100 100 100 100 100 100 100 97 92 87 81 78 82 89 93 100 100 100 100 100 100 100 100 100 100 100 100 100

GFSSE_250_rhum_084.txt.gz
RH
63 48 47 44 41 49 57 58 58 63 67 65 69 60 60 52 53 44 42 46 43 42 37 38 46 48 65 61 64 82 90 83 74 67 63 57 52 50 48 48 44 42 37
85 68 47 46 48 49 60 67 74 63 63 74 67 59 56 51 54 56 43 38 34 35 38 38 43 48 36 45 61 80 83 83 78 71 64 52 41 41 46 43 37 35 36
100 87 74 52 51 58 58 56 58 58 64 63 62 53 52 48 42 39 39 36 35 34 35 36 34 36 32 50 60 78 89 81 83 66 61 47 39 44 42 39 37 36 36
100 100 94 67 62 64 58 53 54 60 66 61 58 46 42 46 42 37 33 34 37 36 36 36 30 29 31 46 50 86 88 85 66 63 61 45 46 43 46 45 41 38 34
94 94 91 77 71 68 65 62 59 52 59 58 54 47 45 43 39 35 36 35 35 35 38 39 32 28 28 30 54 68 67 69 64 62 54 42 46 45 44 44 41 40 40
84 89 81 77 74 76 74 79 75 61 56 59 58 53 47 39 36 35 39 40 39 38 39 44 34 32 30 31 52 56 59 53 60 57 51 44 43 47 45 45 43 46 49
78 83 83 85 81 77 75 77 81 82 83 74 64 56 49 40 37 36 39 41 42 41 42 44 38 35 34 32 40 46 56 50 45 43 42 38 46 47 49 48 48 55 55
72 80 77 85 77 71 73 72 78 78 67 71 56 54 47 50 49 43 40 42 42 40 40 41 39 36 33 32 34 38 43 42 37 41 39 41 43 45 51 53 55 58 62
70 66 69 78 84 82 68 62 68 66 55 47 51 49 51 65 62 59 50 46 46 46 43 43 41 38 36 32 33 31 35 45 42 40 39 44 47 54 60 62 63 65 59
99 100 97 84 95 83 70 62 75 64 46 48 52 50 62 67 68 67 61 52 51 55 51 45 43 39 38 35 35 37 40 39 39 38 42 47 54 61 67 69 64 64 59
100 100 100 100 98 84 84 83 82 73 52 47 59 61 61 66 65 69 66 66 65 61 59 48 47 46 38 37 38 38 39 40 42 45 47 52 60 67 72 73 69 65 72
88 100 97 100 100 100 100 97 89 79 73 53 55 58 66 72 69 72 62 68 63 63 62 48 50 48 42 40 40 38 38 37 39 44 51 58 61 68 68 70 75 84 93
100 100 100 92 98 100 98 100 100 95 86 70 71 72 75 76 76 70 64 66 54 60 66 53 46 47 45 43 42 42 43 44 47 53 57 63 65 68 74 78 87 99 78
100 94 100 100 100 100 100 100 100 90 100 100 91 85 87 86 88 74 70 65 52 50 51 45 40 42 43 46 46 48 53 56 60 62 65 68 72 72 76 86 100 91 77
100 100 100 99 95 99 98 98 100 100 97 99 98 96 92 90 91 88 77 69 64 54 52 47 46 47 47 49 52 55 56 61 65 68 73 77 78 80 89 100 91 86 89
100 100 100 100 100 100 100 100 100 100 100 100 99 92 92 95 88 87 86 79 74 69 62 59 63 67 71 65 63 65 68 69 73 79 85 83 83 94 100 83 89 93 93
100 100 100 100 100 68 100 100 100 100 100 100 100 100 100 100 100 100 95 89 83 79 82 80 76 76 80 83 82 86 86 88 90 91 86 98 100 100 88 92 96 95 76
98 100 100 100 94 96 100 100 94 100 100 100 100 100 100 100 100 100 100 100 98 91 92 88 84 87 97 100 100 100 100 99 98 100 100 100 100 99 92 93 100 97 92
100 95 100 97 68 95 100 77 73 95 100 100 100 100 98 100 100 100 100 100 100 100 97 100 100 100 100 100 100 100 100 100 100 100 100 100 100 94 95 100 100 98 94
100 100 100 97 70 100 100 89 82 82 100 100 100 100 100 100 100 100 100 100 100 100 100 100 100 100 100 100 100 100 100 100 100 100 100 100 100 96 100 100 100 100 100
100 92 86 96 98 100 83 84 100 100 98 68 88 100 100 100 100 100 100 100 100 100 100 100 100 100 100 100 100 100 100 100 100 100 98 100 100 96 91 99 94 89 89
100 100 100 100 100 100 72 63 90 100 100 100 100 100 100 100 97 89 90 100 98 100 100 100 100 100 100 100 100 100 100 100 98 86 92 95 96 98 88 86 75 71 85
93 100 100 100 100 100 100 99 81 65 99 99 100 100 100 100 100 100 100 100 100 100 95 100 93 96 100 100 100 100 100 99 94 98 89 90 91 92 92 85 100 100 100
100 100 100 100 100 95 94 100 100 83 90 88 90 66 86 94 98 100 93 90 100 100 100 100 100 100 100 99 91 70 59 69 90 96 96 93 94 97 100 100 100 100 100
100 94 94 100 99 100 100 100 100 100 100 83 91 100 57 72 84 84 92 100 100 100 100 77 74 86 89 88 73 100 100 89 86 86 96 98 100 100 100 100 100 100 100
100 100 100 100 95 86 80 79 73 78 99 94 100 100 100 100 100 98 97 96 100 100 100 100 100 100 100 100 99 96 100 100 100 100 100 100 100 100 100 100 100 100 100

GFSSE_250_rhum_087.txt.gz
RH
76 77 78 64 49 42 39 38 39 38 40 43 42 52 55 55 59 60 59 57 51 43 37 32 30 31 34 37 37 32 43 62 73 84 80 72 55 46 32 28 28 25 26
85 71 69 64 51 39 40 38 43 45 44 41 44 50 68 61 56 51 45 41 39 38 36 35 32 33 30 32 32 34 43 53 67 82 71 58 53 42 32 26 27 28 27
100 96 77 74 68 51 40 39 38 45 44 46 41 38 47 64 54 45 46 41 38 34 34 35 34 35 33 28 30 32 45 42 77 67 74 63 49 44 34 31 31 28 29
100 100 100 99 90 77 53 41 42 46 44 44 44 42 48 49 50 42 41 37 33 32 33 36 36 35 37 30 31 31 36 54 55 61 66 57 50 39 33 33 35 33 34
100 100 100 100 93 88 78 62 50 54 50 51 49 48 47 44 44 46 42 35 33 32 35 39 38 35 42 34 33 33 33 46 50 57 60 50 41 34 32 38 35 35 40
100 97 90 97 94 92 88 77 64 62 59 64 70 54 52 51 47 49 46 37 34 35 37 41 40 40 43 40 36 35 34 37 47 52 54 48 40 37 36 38 39 40 45
100 100 86 79 90 86 85 75 71 74 69 67 72 72 72 61 55 50 45 42 42 38 38 39 40 42 42 41 37 35 32 36 40 46 47 45 42 38 39 40 43 46 47
79 96 96 90 87 86 89 86 86 80 70 68 67 74 64 57 51 45 44 52 50 50 46 45 46 46 44 43 39 39 35 36 44 47 42 43 42 42 44 45 47 50 52
76 91 92 89 97 98 100 99 96 90 81 70 68 70 61 49 42 42 51 57 60 60 55 49 50 55 51 46 45 40 39 37 38 39 40 42 42 44 47 54 56 58 57
85 80 74 68 87 100 100 100 100 100 89 73 67 67 52 44 44 46 59 62 58 63 57 54 58 62 58 51 50 47 40 39 36 38 39 40 43 48 56 62 62 63 67
77 69 87 86 99 100 100 100 100 96 97 69 71 76 53 47 46 56 61 68 64 68 61 57 60 66 66 48 47 48 43 41 41 41 44 47 51 58 64 69 71 71 71
94 100 100 100 100 98 84 97 100 100 99 88 88 85 76 56 51 56 61 72 69 70 63 63 51 59 55 49 41 40 40 42 43 46 51 56 61 66 69 75 78 76 79
100 100 89 62 54 72 69 79 97 97 86 86 92 82 84 77 60 61 68 70 73 73 65 68 57 47 50 41 34 38 41 45 49 56 60 64 66 69 76 83 84 85 98
100 100 91 78 84 100 96 100 100 83 84 96 98 98 100 100 100 85 78 78 78 82 76 71 67 57 51 51 52 55 62 64 62 63 68 73 71 77 83 85 90 100 75
79 100 100 100 99 91 97 100 100 97 100 100 100 100 100 100 100 100 87 86 89 85 78 74 70 65 60 60 60 66 72 76 78 80 78 84 89 91 93 99 100 88 80
100 100 100 100 100 99 100 99 100 100 100 92 100 100 100 100 100 100 100 91 92 94 84 83 78 72 71 79 87 94 95 96 98 99 100 99 99 100 100 100 95 91 95
100 100 100 100 100 100 100 100 100 100 100 100 97 100 100 100 100 100 100 100 100 100 100 94 91 94 90 96 98 96 100 100 100 98 100 100 100 100 99 92 91 98 95
82 100 100 100 100 100 100 100 88 99 100 100 100 100 100 100 100 100 100 100 100 100 100 100 100 100 100 100 100 100 100 100 100 100 100 100 96 100 82 95 97 98 96
89 100 100 100 100 100 100 100 73 99 100 100 100 100 100 100 99 100 100 100 100 96 100 100 100 100 100 100 100 100 100 95 98 99 99 100 100 93 81 88 94 90 98
100 100 100 100 100 100 100 99 75 98 100 84 76 100 96 95 100 100 100 100 100 100 100 100 94 100 100 100 100 97 100 100 100 100 100 100 100 88 90 94 99 100 96
100 100 100 100 100 100 100 100 100 100 100 96 64 70 92 100 100 100 100 100 100 100 100 100 93 100 100 100 100 100 100 98 97 100 100 100 90 92 92 97 90 85 81
89 100 100 100 100 100 100 100 92 100 92 89 90 77 100 98 100 94 98 95 96 95 98 86 90 95 92 98 100 100 100 84 87 94 87 86 99 87 79 72 78 70 87
82 86 100 100 100 100 100 100 96 100 100 100 100 100 100 100 100 100 88 91 78 81 54 42 44 67 80 78 90 83 94 80 71 93 89 92 80 74 72 81 93 100 100
80 73 74 98 100 100 100 100 100 98 100 100 100 91 86 100 100 100 100 100 97 100 98 83 70 56 64 68 66 69 73 77 100 100 79 68 69 93 100 100 100 100 100
98 79 74 70 72 100 100 97 100 100 100 100 99 100 73 51 73 100 100 100 100 100 96 98 94 86 64 63 76 82 96 99 75 66 96 100 100 100 98 96 100 100 100
100 98 78 69 81 83 98 100 96 100 100 100 94 100 100 95 69 65 100 100 100 100 98 66 60 68 68 70 78 66 78 87 100 86 100 100 100 80 98 100 100 100 100

GFSSE_250_rhum_090.txt.gz
RH
84 72 65 62 66 72 63 46 37 32 29 27 27 34 36 44 54 58 58 53 46 41 38 35 34 34 30 29 29 28 32 31 37 38 64 64 59 53 42 34 29 29 28
99 97 85 73 66 77 68 53 40 35 33 30 29 28 29 40 58 66 60 50 46 42 37 36 34 33 32 31 32 31 27 30 33 32 41 50 51 52 38 33 30 31 31
91 100 100 96 84 73 72 57 43 38 39 34 33 28 28 28 29 52 59 50 42 39 35 32 30 32 35 33 34 35 32 32 31 31 41 49 52 46 39 36 32 33 32
100 99 91 100 91 78 69 62 57 56 43 39 41 41 39 36 32 36 41 44 43 43 34 32 32 34 36 35 34 41 35 34 34 32 36 40 42 44 40 36 33 32 34
99 100 95 97 100 87 76 72 73 73 56 45 47 52 48 50 48 43 40 38 40 41 36 34 34 37 37 39 39 40 39 37 34 33 35 36 40 42 37 34 34 35 37
87 100 100 100 100 96 92 85 79 75 72 67 58 61 59 63 61 50 50 47 44 42 39 38 38 41 42 42 44 43 42 38 38 34 37 40 38 38 39 38 38 40 43
78 86 100 100 99 97 87 81 76 78 84 79 70 69 68 65 64 63 56 54 42 40 42 46 48 46 45 48 49 45 44 42 40 38 38 38 38 38 38 40 43 47 48
96 84 94 100 100 100 86 85 90 84 77 80 80 75 75 65 64 62 52 47 41 40 47 52 52 54 50 51 54 50 46 46 45 41 38 41 39 38 41 44 49 53 54
100 95 83 84 96 100 89 89 90 87 83 88 87 75 76 78 68 57 52 44 43 46 56 56 54 57 52 53 51 56 46 43 45 43 42 42 42 44 48 54 56 58 58
99 96 76 73 68 74 94 97 100 100 96 90 93 83 78 79 60 57 49 42 44 52 62 64 61 60 58 52 46 58 53 41 42 43 40 42 46 52 56 58 59 60 64
99 100 87 93 85 82 76 81 84 93 94 95 92 86 86 72 60 60 54 46 48 54 61 64 65 63 60 58 45 46 45 39 36 39 46 52 57 60 62 63 65 71 76
99 91 82 100 100 94 78 85 94 100 95 90 99 100 92 80 62 61 56 60 51 54 61 66 68 70 66 63 59 50 50 52 54 59 66 69 70 70 73 75 84 87 87
100 100 100 99 100 98 100 100 100 98 75 66 77 100 98 78 77 69 60 65 60 60 68 68 68 76 80 72 64 58 54 51 53 58 68 75 74 76 92 94 94 99 88
98 100 100 100 100 100 95 77 68 42 52 89 95 100 94 81 80 86 95 100 100 86 75 72 76 78 81 73 68 70 74 78 84 93 93 86 96 99 88 100 100 84 66
100 89 84 100 100 94 68 81 60 85 95 100 100 100 100 100 100 100 100 100 100 99 93 83 86 89 92 93 88 86 88 93 85 84 88 99 93 86 100 100 99 88 79
98 100 100 100 100 90 95 100 100 86 100 100 100 100 100 100 100 100 100 100 100 100 99 98 95 97 100 99 99 100 100 99 99 98 98 100 99 87 96 98 98 79 84
99 84 100 98 100 100 100 100 100 78 100 100 100 100 100 100 100 100 100 100 97 100 99 100 100 100 92 90 100 100 100 100 100 97 100 99 94 100 96 100 90 88 76
86 90 100 100 100 89 100 76 100 86 100 100 98 100 100 100 100 99 100 100 100 100 100 98 100 100 100 93 100 100 98 97 98 90 82 96 88 98 83 93 85 78 97
100 100 100 100 100 100 100 100 100 100 100 100 82 81 80 61 90 98 100 100 100 100 99 100 100 95 93 92 88 70 74 69 84 79 72 73 74 83 90 74 91 93 87
100 98 89 100 100 100 100 100 100 100 100 100 90 72 68 71 85 90 100 100 100 95 75 65 59 57 65 66 60 79 89 64 61 53 50 60 77 89 67 78 76 78 74
100 100 100 100 100 100 100 100 100 100 100 99 83 52 52 52 85 100 89 73 72 87 72 79 68 71 73 64 69 88 69 46 47 53 46 35 50 66 73 73 73 70 75
100 100 100 100 100 100 100 100 100 100 100 100 100 71 75 58 79 87 71 42 52 80 73 74 58 79 90 79 79 78 64 72 66 68 44 45 54 64 78 65 74 64 70
100 100 99 100 100 100 100 100 100 100 100 99 92 94 100 88 78 68 92 76 82 74 96 87 56 54 46 50 52 74 98 74 40 57 61 60 70 65 74 72 65 79 95
100 100 90 99 100 100 100 100 100 100 100 100 100 100 100 100 100 98 98 84 100 89 100 100 96 79 67 61 62 60 65 90 99 96 87 87 99 93 68 68 86 86 99
100 100 99 94 100 100 100 100 100 100 100 100 100 100 100 100 100 100 100 89 100 100 100 100 100 100 100 96 90 58 66 94 100 75 100 73 81 85 81 87 85 93 91
85 95 90 100 95 100 100 100 100 100 100 100 100 100 100 100 100 100 100 100 100 100 100 100 100 100 100 100 89 95 99 90 79 78 70 77 69 83 91 83 94 94 100

GFSSE_250_rhum_093.txt.gz
RH
61 58 56 66 71 58 44 40 48 46 34 31 29 27 27 27 32 45 56 57 60 50 46 42 37 35 34 33 33 32 32 34 32 33 33 31 36 39 42 43 36 35 32
76 76 62 74 74 68 57 44 47 48 38 36 33 31 30 26 25 32 52 60 62 54 44 41 35 31 29 31 35 34 36 39 34 34 35 31 35 35 37 39 36 36 31
82 84 75 75 82 80 75 60 52 52 49 40 36 37 35 34 31 27 28 31 56 52 46 39 36 32 30 34 37 35 36 39 38 36 35 32 34 33 34 34 33 33 33
88 93 93 87 83 93 86 77 71 61 51 46 43 42 39 42 44 42 41 32 36 40 40 34 34 33 32 33 38 38 37 38 39 38 35 33 33 35 36 36 36 35 34
97 87 89 93 87 77 82 82 79 72 58 53 56 55 47 46 55 53 56 48 41 40 38 37 35 34 36 38 38 36 36 38 40 39 38 36 35 36 36 37 35 37 41
100 100 97 96 94 92 100 89 90 78 72 66 67 63 60 58 61 61 61 58 53 46 44 36 35 36 44 48 47 45 46 46 40 41 39 39 38 39 38 36 39 42 46
100 100 100 98 95 98 100 98 88 81 75 70 63 65 71 73 69 68 66 61 56 49 46 40 37 40 49 50 50 48 48 49 48 41 42 43 41 40 40 40 44 48 51
97 100 100 100 93 95 91 91 99 85 78 70 69 61 60 60 59 61 71 64 62 53 47 41 40 49 53 56 53 51 40 44 51 44 42 44 42 39 41 51 56 55 55
99 100 100 100 100 98 98 93 93 92 80 76 76 76 78 76 68 71 68 68 58 52 44 41 44 52 60 61 58 57 47 42 47 43 39 39 38 47 54 55 57 60 73
100 95 93 100 100 90 96 94 100 100 88 80 82 82 82 84 78 66 70 65 57 54 46 42 45 54 61 58 62 59 61 48 44 41 39 46 58 58 56 59 58 84 84
100 100 93 99 95 86 87 84 82 94 95 87 95 89 77 100 100 94 78 69 61 60 54 50 50 54 62 62 59 64 67 64 60 54 52 52 51 54 61 63 92 72 77
100 100 98 94 92 99 92 86 83 74 70 75 72 92 100 82 89 85 89 73 61 61 56 53 50 51 54 62 65 65 73 75 74 68 66 66 67 70 71 86 75 66 78
100 100 100 100 88 97 100 100 100 91 98 91 86 96 100 88 77 79 86 79 68 68 67 64 77 65 61 60 66 70 78 80 82 80 80 79 77 75 72 77 74 64 66
100 100 100 100 97 100 100 100 100 100 100 100 100 100 77 65 79 77 98 94 88 83 82 94 91 83 73 77 78 93 92 92 82 85 82 79 83 66 72 68 68 53 60
100 99 100 100 100 100 100 100 100 100 100 100 90 70 69 98 95 100 100 100 100 100 100 100 100 100 100 93 84 100 91 70 76 87 100 94 78 85 78 83 62 59 48
90 100 100 100 100 100 100 100 100 100 100 89 73 93 99 93 100 100 100 100 100 100 99 100 100 100 86 82 77 80 85 72 65 66 69 62 73 70 56 45 44 38 35
100 82 100 100 100 100 100 100 100 100 93 90 100 100 82 100 100 81 96 100 100 84 79 64 78 96 94 94 100 99 52 35 44 47 52 53 64 54 47 53 50 46 44
95 100 100 100 99 99 100 100 100 90 96 92 100 90 100 100 100 100 90 85 65 72 83 84 86 99 92 79 60 74 67 51 50 41 47 50 56 58 62 71 60 57 65
100 100 98 97 84 72 100 100 100 100 99 98 100 100 100 88 90 73 66 74 72 64 72 86 100 94 100 92 82 78 60 55 58 63 69 56 62 63 76 79 81 62 68
100 100 100 100 100 63 100 100 100 100 100 86 98 100 100 100 100 84 66 62 54 67 87 86 100 100 73 90 70 58 70 50 59 66 69 74 56 61 73 80 41 64 87
100 100 100 100 100 100 88 100 100 100 85 80 100 100 100 100 100 100 84 52 60 65 96 100 100 81 67 38 48 55 48 58 66 59 54 53 59 67 60 49 55 76 89
100 100 100 100 99 92 100 85 92 100 98 97 93 94 94 100 100 86 72 36 52 95 55 56 59 44 48 48 33 33 43 42 35 46 46 47 49 53 62 69 77 75 71
100 100 100 100 82 100 100 100 100 100 100 100 100 75 86 100 75 68 53 52 81 71 50 48 49 31 27 28 30 43 32 28 35 47 58 52 63 74 74 72 69 72 72
100 100 100 100 100 100 100 100 100 100 100 100 100 100 95 100 100 100 98 100 100 90 59 51 41 40 32 41 25 33 34 45 56 57 78 86 80 54 71 57 85 66 86
100 100 100 100 100 100 100 100 100 100 100 100 100 100 100 100 100 100 100 100 100 100 100 100 92 97 92 65 72 59 52 53 68 78 73 85 72 80 73 100 68 92 88
100 99 100 100 100 100 88 100 100 100 100 100 100 100 100 100 100 100 100 100 100 100 100 91 100 100 100 100 91 89 87 95 84 93 93 75 92 86 97 92 100 100 90

GFSSE_250_rhum_096.txt.gz
RH
70 71 65 58 53 57 57 59 53 40 40 41 32 28 31 26 29 29 34 49 58 57 58 48 45 41 34 30 29 30 31 32 33 33 33 34 33 32 34 35 34 31 31
72 78 77 70 62 59 56 60 62 45 39 45 35 31 28 29 30 27 26 31 53 59 60 56 49 42 36 33 28 29 33 34 34 33 34 35 33 32 32 33 33 31 33
80 82 86 74 70 64 57 56 66 59 43 41 46 37 33 34 33 36 34 32 30 31 35 52 47 41 32 31 29 33 35 35 34 35 37 37 36 32 34 34 34 33 34
93 82 91 85 80 77 69 66 71 69 63 49 44 42 38 37 37 40 46 45 45 42 32 36 39 36 34 31 32 36 39 40 39 40 38 38 37 36 36 36 35 32 39
100 98 89 88 87 84 66 72 67 74 71 66 56 50 50 52 56 44 52 58 57 53 50 46 39 35 33 35 37 41 44 43 43 44 45 40 40 38 36 35 34 36 46
89 100 100 84 95 88 80 69 73 58 55 60 69 68 64 61 62 55 60 63 62 60 52 48 46 41 36 36 41 43 44 44 39 37 45 46 40 39 37 35 35 52 48
98 98 100 100 100 98 100 84 81 68 62 66 68 62 66 61 62 65 65 64 60 59 56 51 48 44 39 36 43 48 50 52 42 40 49 45 39 40 36 35 51 51 52
90 100 100 100 98 100 100 98 89 85 72 61 68 62 62 61 56 56 65 62 61 68 60 55 50 43 40 40 50 51 55 58 54 41 41 36 35 36 41 57 51 50 58
100 100 100 100 97 100 100 100 96 91 81 71 69 61 61 62 65 70 69 62 68 63 61 54 52 45 43 45 50 53 56 57 62 63 55 50 49 52 51 47 50 60 76
100 100 100 100 97 98 100 100 99 93 89 76 78 74 68 74 75 68 62 76 81 71 62 56 54 51 48 48 53 59 61 62 72 75 74 69 61 56 56 62 67 68 68
100 99 100 100 93 81 100 100 100 100 95 88 91 93 77 85 86 70 82 100 73 68 70 64 58 56 56 48 52 57 60 64 71 71 71 67 68 68 66 71 60 62 73
95 100 100 100 100 91 77 97 100 99 96 89 87 88 97 89 79 70 96 92 68 73 64 62 60 58 60 52 55 55 59 62 69 78 71 64 53 50 59 41 43 60 67
93 100 98 100 100 100 99 87 88 100 96 100 100 95 98 92 86 94 100 100 82 68 61 66 68 60 98 98 75 61 63 67 74 92 78 63 47 47 51 54 60 65 50
100 100 100 100 100 100 100 100 99 95 100 100 100 94 92 97 100 100 100 96 92 89 91 96 84 88 100 100 100 100 100 87 96 100 60 42 39 41 45 53 40 48 49
99 95 100 100 100 100 100 100 90 98 100 100 100 100 100 100 100 100 87 100 100 97 86 89 84 78 86 100 100 100 78 61 50 58 45 42 40 43 47 36 40 52 49
100 100 100 100 100 100 100 100 100 100 100 100 100 100 100 100 100 100 97 100 100 78 95 82 97 90 62 59 56 70 67 67 51 80 64 37 42 40 37 34 49 48 56
97 100 100 100 100 99 100 100 100 100 100 100 100 100 100 100 100 100 100 100 100 98 84 85 71 72 65 49 46 46 57 68 88 77 54 50 52 44 48 46 57 55 58
100 100 100 100 98 93 100 97 100 100 100 100 100 100 99 100 100 100 97 100 100 95 76 63 52 56 45 40 46 64 100 100 98 66 53 45 55 50 52 57 60 62 57
100 100 100 100 91 100 100 100 100 100 100 100 100 84 100 100 100 100 100 100 83 76 64 58 47 35 34 45 79 100 96 91 88 99 85 59 36 43 43 37 45 41 51
100 100 100 100 100 100 100 100 100 100 100 97 87 87 100 100 100 94 94 99 80 55 57 59 54 40 33 66 100 100 96 90 68 45 42 48 28 32 23 36 41 50 48
100 100 100 100 100 100 100 100 100 92 87 100 100 100 100 100 100 100 84 93 84 80 99 93 46 48 58 98 100 100 98 77 74 47 39 27 25 23 25 42 49 48 71
100 100 100 100 100 100 100 100 92 76 61 100 100 100 100 100 99 87 90 90 100 100 100 93 78 52 36 43 82 98 69 66 52 40 31 20 19 20 30 39 49 55 46
100 100 100 100 100 100 99 100 100 83 86 100 100 100 100 100 99 96 100 100 100 100 100 95 61 69 42 48 67 81 61 47 36 26 25 22 32 41 56 74 56 76 68
100 100 100 100 100 100 100 100 100 78 100 100 100 100 100 100 100 100 100 100 100 94 85 100 91 79 62 83 80 56 43 31 28 29 29 53 72 91 95 79 67 76 76
100 89 94 100 94 100 100 100 100 100 91 100 100 100 100 100 100 100 95 100 100 100 100 97 100 100 100 74 59 51 78 47 39 99 60 94 88 100 91 82 69 75 78
100 100 100 98 94 100 100 100 100 100 100 98 96 97 100 100 100 93 85 99 98 100 100 100 100 100 100 94 88 37 66 67 73 79 99 95 84 88 96 76 62 76 92

GFSSE_250_rhum_099.txt.gz
RH
67 56 65 66 66 59 51 44 47 58 52 49 29 37 36 29 31 25 30 29 34 50 54 54 58 52 47 43 36 33 29 29 34 32 32 32 33 32 31 29 28 30 29
64 74 72 73 74 67 59 50 48 53 50 57 43 42 44 31 29 29 31 29 27 29 44 51 56 57 51 44 38 30 27 31 34 36 34 36 35 36 34 33 32 32 29
58 73 73 82 76 75 61 56 55 52 48 52 52 37 42 34 32 35 36 39 40 41 40 34 32 34 46 40 35 28 30 33 38 40 41 43 41 39 38 35 34 32 28
60 73 80 83 81 82 80 64 62 61 53 52 54 49 41 46 47 41 42 46 49 52 54 50 45 44 38 36 33 31 33 38 40 42 40 37 41 42 40 38 34 32 43
72 68 85 90 88 89 91 79 70 68 66 56 58 56 56 54 58 57 57 60 53 60 61 59 52 48 45 42 39 35 39 48 50 46 39 34 38 41 38 38 34 32 54
97 80 72 95 93 88 96 92 82 72 71 63 55 61 56 54 66 61 62 67 60 61 64 59 55 50 48 47 42 40 42 46 52 53 47 34 36 35 36 35 35 55 56
73 94 90 78 100 94 90 98 95 87 80 71 63 61 57 51 58 52 56 64 67 71 64 56 57 53 49 47 42 41 44 49 53 58 56 46 39 36 34 40 55 54 55
56 78 98 91 92 100 100 100 77 89 94 81 71 64 60 58 61 58 56 57 60 62 64 63 61 55 49 47 42 42 46 54 55 57 62 63 59 53 53 54 51 56 53
38 54 92 100 92 91 100 100 95 91 96 91 91 72 70 64 60 64 60 62 62 61 62 61 65 57 56 52 48 45 48 54 59 61 71 65 59 60 58 54 62 55 45
66 66 73 91 97 84 80 100 100 88 96 98 84 82 76 73 74 74 75 80 69 63 83 96 60 55 57 53 54 54 46 55 60 62 70 64 63 59 54 51 51 43 35
71 95 86 85 96 95 88 97 100 96 91 100 82 87 94 92 87 93 92 87 76 78 100 73 60 61 58 54 53 57 47 52 56 59 62 64 64 66 54 45 39 37 48
94 88 81 89 98 96 95 100 100 100 100 100 97 77 79 82 91 93 95 98 76 64 77 92 76 67 58 54 52 55 58 58 57 56 61 75 86 68 46 36 35 38 33
100 100 65 69 96 99 100 100 100 100 96 92 100 100 90 81 77 88 91 91 82 64 100 98 76 67 55 60 50 55 74 70 91 92 73 81 59 69 49 35 31 31 32
100 100 78 100 100 99 100 100 100 100 100 90 83 100 100 92 83 82 81 80 73 100 100 92 80 96 100 57 50 64 100 100 100 100 81 55 59 61 54 40 42 39 41
97 92 99 100 100 100 100 100 100 100 100 97 77 68 77 99 100 99 88 80 100 100 99 94 100 73 70 50 53 55 77 82 92 64 50 51 100 81 60 46 46 42 38
100 100 100 100 92 98 100 100 100 100 100 100 100 80 84 100 100 100 100 100 100 100 100 100 99 90 66 59 61 90 82 54 55 49 42 72 70 79 67 46 45 38 31
100 100 100 98 100 100 99 94 100 100 100 100 100 100 94 100 100 100 100 99 100 100 100 100 100 94 58 52 49 64 76 67 52 48 74 95 96 98 74 68 56 31 29
100 100 100 100 100 100 94 95 100 100 100 100 100 100 100 100 100 100 100 100 96 100 100 100 100 89 46 41 46 46 45 31 45 87 91 93 86 80 79 62 61 47 31
100 100 100 100 100 100 100 99 78 98 100 100 100 100 100 100 100 99 100 100 96 100 100 100 94 85 51 53 50 34 36 37 47 100 87 80 75 68 55 46 43 39 24
100 100 100 100 100 100 100 98 100 100 100 100 100 100 100 100 100 100 100 93 88 100 100 100 94 70 46 47 41 45 34 35 97 99 99 92 70 79 72 59 39 33 26
100 100 100 100 100 99 86 97 100 100 100 100 100 100 100 100 100 100 80 97 100 100 100 100 99 84 70 63 99 74 62 39 43 100 100 100 89 71 40 55 63 37 26
100 100 100 100 100 100 100 100 100 100 100 100 100 100 100 100 100 100 100 100 100 100 100 100 96 90 75 91 100 100 83 77 69 45 33 29 46 43 36 49 32 23 22
100 100 100 100 100 100 100 100 95 82 100 94 100 100 100 100 97 99 97 100 100 100 100 100 100 94 100 100 100 100 100 83 61 53 44 34 43 56 29 30 28 32 53
100 100 100 100 100 100 100 100 100 94 100 100 100 100 100 100 99 100 100 100 100 100 100 100 100 100 100 100 100 97 72 61 46 47 42 43 43 39 37 38 34 62 80
99 100 100 100 100 100 100 100 100 100 100 100 100 100 100 100 100 100 100 100 100 100 100 100 100 100 100 89 68 61 53 42 42 57 32 32 43 54 47 75 82 85 89
100 100 100 100 100 100 100 100 99 91 100 100 100 100 100 100 100 100 100 100 100 100 100 98 100 100 91 96 100 90 84 86 90 77 58 75 57 87 81 82 87 84 94

GFSSE_250_rhum_102.txt.gz
RH
78 62 66 56 50 55 59 56 52 44 41 47 52 50 44 30 43 36 29 25 28 30 33 44 49 48 50 56 53 46 42 30 25 30 34 36 36 38 36 34 33 33 30
77 62 68 71 55 59 63 65 61 53 44 43 49 54 46 42 46 33 30 32 36 32 29 31 31 34 39 37 40 45 35 30 31 33 39 39 36 34 35 34 35 33 30
85 66 50 83 70 62 63 67 66 60 51 46 46 48 56 48 43 37 36 38 42 44 48 48 51 44 39 36 35 36 34 34 35 39 42 39 31 28 31 35 36 34 32
60 54 58 57 83 79 74 73 73 73 61 54 52 48 50 54 48 42 51 56 57 60 49 56 56 54 52 48 44 40 38 36 36 42 45 46 36 28 28 31 32 32 38
42 38 52 48 62 86 82 78 76 73 75 58 62 59 56 58 55 54 60 68 64 70 60 56 63 58 52 49 48 46 40 38 39 43 46 50 45 32 28 27 30 50 56
38 40 38 41 46 76 94 90 82 74 78 71 61 66 63 52 54 64 58 70 68 72 74 76 72 58 51 53 48 46 44 40 42 46 50 52 52 44 38 42 50 52 51
13 28 44 41 42 54 96 98 96 84 80 81 76 73 70 61 52 58 57 60 62 65 67 70 65 62 56 52 50 47 45 43 44 51 56 53 55 53 50 45 48 47 47
15 16 36 44 45 50 70 98 100 96 85 84 84 82 81 67 58 64 64 65 64 63 61 61 55 57 59 52 48 49 48 47 48 52 61 58 60 56 57 54 49 48 48
21 15 28 44 56 51 58 81 100 100 88 72 61 60 71 66 63 59 63 76 72 70 69 60 54 80 74 52 46 49 51 50 52 52 60 59 58 62 59 51 48 47 41
48 50 24 65 70 59 63 60 83 100 100 100 92 59 60 66 68 60 66 69 73 87 96 66 62 98 65 54 53 51 51 52 53 51 52 56 56 49 50 60 65 45 35
31 69 100 84 97 76 66 64 69 78 100 100 100 88 59 79 74 69 65 70 78 88 93 86 68 72 67 67 61 50 49 51 49 51 53 57 61 60 84 99 77 54 39
12 26 44 100 98 100 95 86 86 86 78 86 100 97 75 58 78 95 74 70 78 87 82 86 70 72 100 82 65 52 45 46 46 78 78 73 78 82 84 82 57 53 48
11 12 96 99 100 86 79 82 87 80 68 74 86 100 100 94 95 93 98 79 73 75 70 83 70 86 98 82 68 75 45 42 47 82 100 100 100 98 77 57 55 48 55
10 10 46 100 98 100 81 65 100 86 73 74 96 100 100 100 100 87 92 100 88 72 66 71 65 100 98 68 73 73 68 44 55 64 97 79 100 95 68 56 64 61 62
10 12 80 100 100 90 100 100 100 100 100 99 91 100 100 99 85 94 96 100 99 93 86 69 89 100 100 100 99 76 56 63 58 78 86 84 76 64 62 51 59 76 80
11 24 78 100 100 99 100 100 100 100 100 100 100 100 100 100 100 69 55 56 62 78 100 100 100 100 100 100 100 89 50 50 56 69 88 90 73 59 70 80 71 70 68
14 91 100 100 100 100 100 98 94 91 99 100 100 100 100 100 100 100 83 65 71 90 100 100 100 100 96 100 95 90 73 40 54 46 56 73 52 53 88 71 87 57 45
16 53 100 100 100 100 100 100 82 80 100 100 100 100 100 100 100 100 100 100 100 100 100 100 100 100 100 100 96 87 85 58 46 49 43 32 32 57 37 30 58 58 63
15 21 47 100 100 100 100 100 98 99 100 100 100 100 100 100 100 100 100 100 100 100 100 100 100 100 100 100 77 86 78 69 52 51 45 37 34 32 38 60 41 61 76
16 42 100 100 100 100 100 100 100 100 95 100 100 100 94 100 100 100 100 100 100 100 100 100 100 94 100 100 93 90 88 73 49 56 59 58 54 40 39 92 99 78 48
34 95 100 100 100 100 100 100 100 92 100 100 100 85 79 93 100 99 98 100 100 100 100 100 100 100 100 100 100 100 80 82 90 79 89 62 66 55 49 42 40 28 21
90 100 100 100 100 100 100 100 100 100 100 100 100 100 100 100 100 100 100 100 100 100 100 93 98 94 100 100 100 100 97 100 100 93 89 92 99 82 58 50 29 28 34
41 98 78 100 100 100 100 100 100 100 100 96 100 98 100 100 100 100 100 100 100 100 100 100 100 100 100 100 100 100 100 100 99 100 90 90 74 65 49 33 28 25 28
34 75 98 51 100 100 100 100 100 100 100 100 98 88 100 100 100 100 100 100 100 100 98 100 100 100 100 100 100 94 84 87 86 79 66 85 75 48 49 49 48 26 33
24 56 100 100 100 100 100 100 100 100 100 100 100 100 95 89 84 92 100 100 100 100 100 100 100 100 100 100 100 100 93 90 96 98 68 74 68 54 41 34 61 54 49
100 100 100 100 100 100 100 100 100 100 100 100 100 100 100 100 100 100 100 100 100 100 100 100 100 100 100 100 100 95 100 84 91 86 81 61 57 59 55 56 47 48 68

GFSSE_250_rhum_105.txt.gz
RH
59 64 61 55 52 50 53 54 51 45 45 38 39 40 42 44 48 34 43 40 28 28 30 28 29 34 35 36 40 36 34 43 33 31 34 34 35 34 28 28 32 35 33
50 80 62 58 59 63 49 53 52 50 48 47 43 46 53 49 42 46 46 34 32 39 41 37 39 44 45 38 35 36 35 34 35 34 36 36 36 37 27 25 30 34 34
84 55 55 58 61 59 59 55 59 59 62 56 50 44 46 44 47 49 44 38 40 45 53 48 49 52 53 48 46 46 45 42 39 37 37 37 42 42 34 26 26 31 36
68 42 49 46 60 58 58 56 61 67 66 67 57 51 47 47 43 46 47 50 58 61 64 65 51 54 57 53 50 49 46 45 43 40 40 42 43 43 40 31 27 38 54
68 44 55 47 46 62 56 56 58 65 68 71 72 65 52 52 46 41 48 49 64 69 71 70 69 58 60 61 52 49 47 44 42 41 43 49 50 48 47 42 43 50 50
54 45 35 49 46 51 59 50 56 70 73 73 74 72 63 52 48 46 40 51 65 66 72 73 77 75 70 63 56 46 46 44 43 44 46 50 55 54 52 51 46 49 52
31 43 31 46 49 50 60 58 44 55 71 73 76 72 71 59 52 52 48 49 60 56 63 63 70 63 59 57 56 47 43 43 46 46 46 51 55 55 54 51 48 51 50
16 28 35 37 41 42 48 56 53 45 59 72 74 75 77 76 68 67 61 49 54 59 64 64 64 63 55 52 63 50 44 47 47 48 50 47 51 56 55 49 46 50 50
24 18 23 30 22 59 41 44 52 47 53 72 77 78 79 93 82 75 72 73 61 59 62 68 72 70 59 55 86 58 46 44 46 48 49 48 44 50 52 50 46 59 56
48 41 30 30 48 61 60 38 59 47 53 64 78 81 82 72 71 59 55 81 73 59 63 71 77 67 75 82 85 67 61 56 46 50 50 47 45 48 51 56 63 81 73
62 58 30 29 60 56 50 25 47 57 56 64 71 80 77 73 71 80 57 78 90 73 64 67 74 82 80 71 74 89 90 71 56 47 48 46 64 74 80 83 95 100 66
50 24 27 31 64 63 49 31 60 70 62 71 73 70 88 98 94 100 84 56 76 86 84 68 64 59 56 57 74 96 85 72 59 59 46 43 51 100 100 100 100 96 73
21 26 16 20 53 71 46 42 68 97 100 72 88 90 77 95 100 100 100 70 54 87 98 88 70 62 59 55 62 100 84 64 62 54 48 46 50 60 95 99 100 90 61
9 8 12 18 63 68 48 50 90 99 100 100 94 100 100 82 79 74 80 84 96 97 93 75 97 64 71 74 69 100 100 89 72 68 45 40 50 64 90 96 90 71 60
12 11 11 14 36 78 100 74 100 100 100 100 100 100 100 100 99 72 63 90 100 100 94 69 82 81 97 100 100 100 100 100 89 44 55 45 36 47 77 94 84 76 53
11 9 10 12 24 63 98 100 91 99 100 83 100 100 100 100 100 94 82 90 93 96 74 59 55 58 73 100 100 100 100 100 88 66 61 53 44 41 46 64 80 57 31
9 9 10 10 19 50 100 100 100 100 100 100 100 100 100 100 100 100 100 100 99 99 100 99 71 74 90 100 100 100 100 100 87 74 61 58 53 52 46 41 32 29 29
8 8 10 11 15 98 100 88 100 100 100 97 100 99 100 100 100 100 100 100 100 100 100 99 100 100 100 100 100 100 100 94 80 74 54 55 61 51 46 42 43 41 35
10 7 10 13 15 98 100 100 100 100 92 97 100 100 100 100 100 100 100 100 100 100 100 100 100 100 100 100 100 100 100 84 68 76 63 81 84 81 52 47 57 54 46
9 8 10 16 19 84 100 94 100 100 76 100 100 100 100 100 100 100 100 100 100 100 100 100 100 100 100 100 100 100 100 100 99 64 83 100 99 86 86 74 61 42 40
7 8 11 17 52 99 98 100 100 100 100 93 100 100 74 92 100 100 100 100 100 100 100 100 100 100 100 100 100 100 91 81 76 85 100 100 100 98 94 78 61 64 49
8 7 13 23 71 100 100 100 100 100 100 100 100 100 86 100 100 100 100 97 100 100 100 100 100 100 93 100 70 73 100 97 100 100 97 100 100 95 97 75 63 61 81
9 10 14 24 81 98 100 100 100 100 100 100 100 92 100 91 88 100 100 92 94 94 98 100 100 100 100 82 80 100 100 100 100 100 82 90 100 91 94 71 67 59 76
11 13 14 34 100 100 100 100 100 100 100 100 100 100 100 100 99 100 100 100 99 100 100 100 100 100 98 87 98 100 100 100 100 100 95 100 98 94 83 65 73 96 83
15 14 16 25 100 100 100 100 100 100 100 100 100 100 100 100 100 100 100 100 100 100 100 100 100 100 100 100 96 100 98 87 82 94 99 96 97 82 78 70 92 98 67
18 18 20 23 39 83 100 100 100 100 100 100 100 100 100 100 100 100 100 100 86 86 94 98 100 100 100 100 76 78 85 86 86 78 83 92 96 77 96 99 95 85 73

GFSSE_250_rhum_108.txt.gz
RH
88 97 74 68 66 53 48 42 39 40 39 37 36 36 36 35 35 37 41 35 43 34 29 33 29 28 33 37 36 35 36 39 37 36 38 35 35 34 38 31 26 34 37
54 85 100 82 57 57 48 44 42 37 42 44 44 40 39 41 45 44 33 44 41 33 37 40 41 45 47 50 47 47 47 45 44 42 40 39 38 40 40 34 28 32 36
42 35 61 84 78 47 44 49 44 41 42 44 47 50 46 42 45 44 40 42 43 38 42 46 49 46 49 51 50 50 47 45 45 45 42 40 42 45 46 41 32 31 42
43 39 35 57 56 63 39 45 47 43 43 46 51 57 54 48 42 40 42 46 54 54 58 58 57 55 55 53 49 51 51 49 46 44 43 40 42 47 52 49 45 45 51
36 35 32 37 46 45 50 44 49 42 46 48 55 59 64 57 47 45 38 44 58 66 68 74 73 66 63 60 56 57 55 46 43 42 41 40 40 43 53 48 50 50 52
26 27 27 29 44 48 47 47 48 51 44 47 55 56 58 64 53 50 45 42 47 62 73 74 75 77 73 70 66 56 52 41 43 45 43 42 40 41 47 49 50 50 52
16 18 26 24 34 47 51 51 52 65 58 49 49 58 60 60 60 60 48 51 51 53 74 67 66 76 73 67 60 49 51 47 42 45 49 44 43 43 39 45 48 46 47
17 18 19 26 27 42 51 59 57 72 80 62 54 52 70 64 65 61 67 60 64 60 58 64 56 65 70 70 61 54 75 63 52 47 46 47 44 42 43 47 44 44 48
25 18 17 17 19 21 48 58 70 56 73 74 59 51 61 74 60 61 68 76 82 80 64 56 55 62 72 77 70 67 77 75 66 55 55 46 47 47 43 47 50 55 71
39 40 17 14 17 16 19 44 52 64 56 75 73 62 66 71 79 62 66 77 79 64 68 74 60 60 69 71 74 68 72 68 88 83 61 47 44 43 43 56 82 91 94
41 27 28 16 16 24 23 30 48 68 65 56 78 78 75 84 83 87 66 67 70 63 57 76 79 64 61 66 71 60 53 78 96 93 75 49 46 54 55 46 63 83 87
37 20 29 33 26 40 41 33 29 50 60 73 69 76 81 78 92 98 95 67 58 64 83 62 76 84 83 68 58 59 60 66 100 97 88 64 49 42 39 40 37 61 94
23 21 19 25 30 47 42 27 23 31 38 67 95 78 94 76 92 100 100 91 91 86 95 88 60 57 78 67 84 69 68 72 94 100 89 86 60 48 44 42 48 51 92
35 32 17 20 37 46 48 23 22 42 53 61 97 70 87 81 98 100 100 96 98 96 93 90 68 74 88 78 79 98 100 100 100 100 100 78 74 55 45 44 48 49 60
28 27 29 17 16 26 42 31 15 35 59 60 58 58 73 92 98 100 100 100 100 93 80 62 57 90 100 89 63 56 68 90 100 100 100 100 74 63 46 39 40 49 52
26 29 27 27 22 19 28 26 15 18 59 63 46 54 76 100 100 100 100 100 100 100 98 74 54 69 87 90 71 69 75 90 100 100 100 89 81 60 47 41 53 55 60
22 27 21 23 21 16 30 20 14 22 47 49 50 74 94 100 100 100 100 100 100 99 100 100 96 87 98 100 100 100 100 100 100 100 100 100 82 52 49 44 62 70 62
25 21 20 23 18 15 12 12 15 28 29 38 66 97 100 100 100 100 100 100 99 97 100 100 100 100 100 100 100 100 100 100 100 95 100 100 100 69 58 54 69 75 65
15 16 14 19 17 15 13 12 15 31 29 50 91 100 96 98 100 100 100 100 100 100 100 100 100 100 100 100 100 100 100 100 100 100 100 100 89 84 63 61 87 78 86
11 12 11 14 15 11 13 13 15 28 60 49 89 82 100 100 100 100 100 100 100 100 100 100 100 100 100 100 100 100 100 100 100 100 100 100 100 85 72 75 82 84 91
8 9 10 13 11 9 11 14 16 19 88 93 79 100 100 100 100 100 100 100 100 100 100 100 100 100 100 100 100 100 100 100 100 100 81 73 55 83 70 90 99 100 100
10 11 13 13 9 7 9 14 21 22 38 96 90 100 100 100 100 100 100 100 100 100 100 100 100 100 100 100 100 85 100 100 94 72 61 78 74 68 71 61 86 87 78
9 10 10 8 7 7 11 16 22 22 41 100 89 100 90 100 100 100 100 99 100 100 100 100 100 100 100 99 100 100 100 100 100 67 55 54 55 74 74 82 93 70 94
7 7 6 6 6 9 13 18 23 24 60 100 100 100 99 94 92 100 98 100 100 100 100 100 100 98 99 95 90 100 97 78 64 61 46 43 54 55 54 69 67 74 69
6 6 5 7 9 12 13 20 27 29 57 100 100 100 100 100 100 100 100 100 100 100 100 100 100 100 100 94 84 87 62 83 80 62 47 54 48 54 71 78 88 86 85
7 6 8 9 11 13 17 26 29 39 100 100 100 100 72 100 100 100 100 100 97 98 99 88 84 87 98 99 81 81 92 74 76 82 78 66 59 54 64 63 63 69 66

GFSSE_250_rhum_111.txt.gz
RH
74 66 78 49 41 41 42 36 36 37 38 33 31 32 34 43 42 33 33 37 40 36 39 31 31 34 33 38 39 40 41 43 44 42 40 38 36 38 43 42 38 30 33
58 60 68 85 71 62 60 49 39 35 36 40 36 34 33 34 35 36 39 44 35 42 35 35 37 41 40 42 42 44 44 44 44 44 41 41 38 39 45 48 42 34 31
60 56 50 56 87 75 62 59 48 41 34 34 44 38 36 34 38 40 43 44 46 44 38 40 46 48 48 48 51 47 46 48 52 47 41 40 39 39 40 47 48 44 43
50 57 50 44 51 90 77 67 57 45 37 35 36 45 43 39 40 42 42 43 47 46 44 51 55 51 48 51 54 53 52 53 52 43 39 40 39 40 42 44 50 49 53
29 45 56 43 47 53 72 81 69 59 44 39 38 39 47 44 42 43 43 41 45 60 63 64 69 62 62 57 58 60 61 56 46 39 38 37 39 41 42 46 53 52 47
23 28 40 48 41 48 48 52 81 76 57 49 46 43 45 53 48 47 49 43 44 43 57 68 75 71 65 61 65 58 56 50 49 41 40 36 34 39 46 45 47 51 50
14 16 24 33 35 40 43 44 54 78 70 62 51 55 48 51 60 50 56 49 46 49 49 53 71 76 67 63 71 68 62 54 55 64 54 46 42 37 41 47 48 51 52
44 15 13 16 21 24 37 37 40 57 73 73 64 50 56 53 63 66 63 55 57 56 57 59 55 62 65 59 68 71 69 64 58 76 70 66 59 47 37 39 47 50 57
78 100 23 16 16 16 22 27 33 49 60 65 64 57 56 62 57 64 76 70 61 69 67 66 62 62 60 55 62 70 67 67 78 74 68 75 78 63 49 44 44 50 55
79 75 98 69 21 17 16 17 36 53 63 66 67 59 62 74 67 68 70 75 77 64 73 78 72 71 72 69 59 59 66 58 64 60 79 97 84 70 55 44 47 41 45
51 82 78 96 58 27 17 16 17 43 43 64 69 75 73 72 80 69 68 71 79 79 67 81 87 70 69 79 75 64 59 63 60 63 70 100 99 85 64 63 50 46 40
31 40 64 59 35 27 24 21 15 16 27 53 75 78 88 79 72 77 78 67 78 83 87 70 70 70 83 75 64 87 87 75 85 84 82 98 100 85 69 58 70 50 42
38 32 28 46 39 29 28 24 19 14 18 24 39 59 100 92 85 84 91 86 73 72 92 88 65 57 96 98 70 55 74 96 100 100 100 100 100 100 96 65 60 52 41
40 35 33 32 24 22 22 26 26 18 16 20 24 31 52 100 100 93 100 97 81 74 74 92 82 83 90 90 94 73 97 92 76 75 82 77 100 100 99 100 72 63 44
38 36 32 29 27 23 24 25 25 23 27 30 31 27 38 63 99 100 100 100 99 86 80 79 85 83 90 79 72 69 87 91 99 73 90 99 100 100 100 100 100 86 55
25 34 33 30 28 27 20 24 18 30 28 28 30 43 36 35 45 69 99 100 100 88 98 88 79 83 93 95 97 61 64 80 98 100 100 100 100 100 100 100 100 96 82
21 22 24 30 30 28 23 27 26 18 16 18 24 40 39 52 48 58 78 100 100 88 100 99 90 84 89 88 95 99 93 95 100 100 100 100 97 100 100 100 80 89 68
25 25 22 22 27 31 33 30 25 24 16 18 24 26 36 47 100 73 66 84 100 100 100 100 100 100 100 100 97 93 100 100 100 100 100 95 100 100 100 98 90 85 57
21 22 22 18 22 25 28 33 26 26 18 17 20 46 38 27 54 65 62 78 87 100 100 100 100 100 100 100 100 100 100 100 100 100 100 100 100 100 100 98 87 64 48
16 19 17 19 19 24 27 26 28 29 20 14 15 22 32 27 36 100 67 63 75 100 100 100 100 100 100 100 100 100 99 100 100 100 100 100 100 100 74 51 42 55 49
12 11 12 12 16 17 20 22 22 24 26 21 19 14 18 25 33 100 93 90 100 100 100 92 99 100 100 100 100 100 93 100 100 100 98 84 98 90 47 50 47 50 52
9 11 13 13 13 14 18 23 19 22 20 22 22 15 21 23 39 79 100 97 100 100 100 96 100 100 100 99 100 100 100 100 100 100 100 100 96 65 52 55 57 54 56
7 8 10 12 13 14 18 16 17 19 22 20 24 13 22 25 82 100 100 98 85 100 100 100 100 100 100 100 100 95 100 100 100 100 100 83 60 54 59 47 48 62 61
6 7 8 10 12 16 14 18 17 17 20 19 23 13 25 33 55 100 100 100 100 100 100 100 100 100 100 100 100 100 100 100 87 98 90 80 60 49 46 62 54 70 67
5 5 6 7 10 12 13 14 15 18 18 19 22 17 32 32 63 100 100 100 100 100 100 100 100 100 100 100 100 100 100 92 100 94 64 73 74 65 78 81 72 86 78
4 5 6 7 8 9 10 11 14 16 16 17 17 25 32 30 44 100 100 100 100 100 100 100 100 100 100 100 100 86 82 95 96 84 100 91 69 100 90 90 100 94 76

GFSSE_250_rhum_114.txt.gz
RH
53 61 69 76 56 38 37 36 36 35 35 37 37 32 30 32 32 35 42 33 34 42 36 34 30 28 30 35 37 37 38 40 43 45 48 40 37 40 41 44 44 41 37
65 56 58 73 77 58 44 40 35 33 38 36 36 36 31 31 32 34 32 34 39 43 33 35 31 30 30 34 39 42 46 45 45 48 49 37 38 40 41 46 47 46 42
85 76 64 53 78 84 76 50 51 46 40 41 39 40 36 34 34 33 34 36 43 48 46 39 36 34 32 33 39 42 44 46 49 53 46 37 35 42 44 42 46 49 49
81 82 67 55 53 66 74 81 85 78 56 52 45 43 43 39 39 40 36 38 40 52 48 44 40 42 41 41 44 45 48 47 47 43 39 36 37 39 42 45 46 47 52
27 64 81 77 69 63 65 65 66 91 80 64 57 46 42 43 39 47 46 43 44 46 59 59 56 58 62 52 52 56 54 51 48 45 41 38 34 32 36 39 46 48 49
14 15 27 50 61 57 59 59 59 59 83 91 78 63 45 44 42 42 53 52 49 49 50 53 60 66 72 67 56 57 61 62 56 51 52 56 56 46 47 43 42 50 53
17 17 17 18 24 37 44 59 60 55 60 67 76 87 65 52 47 46 50 59 59 57 50 52 51 53 63 68 64 54 53 58 56 55 50 62 64 55 51 52 49 45 47
26 23 32 21 15 20 26 37 56 57 52 52 53 64 80 69 59 50 52 57 68 68 60 53 56 58 59 61 60 56 52 53 56 59 56 71 60 63 62 56 48 50 53
82 47 100 97 46 19 18 22 33 47 49 48 45 46 60 77 71 66 52 55 61 73 74 70 60 64 63 61 61 70 63 59 51 57 60 58 60 77 87 61 62 60 63
54 60 75 100 100 100 69 30 18 24 40 40 42 41 45 66 72 70 66 55 58 64 75 77 75 73 76 78 66 68 70 68 62 59 71 69 72 87 96 67 48 49 56
25 35 71 92 88 100 100 88 33 18 18 28 35 39 48 77 80 85 69 66 67 67 68 77 78 83 80 81 78 67 73 73 83 83 78 92 92 100 100 100 96 60 55
32 27 32 70 82 82 100 100 61 32 18 19 22 23 34 60 100 80 82 80 75 79 76 73 78 82 86 91 93 82 88 75 63 68 85 100 100 89 83 100 90 82 84
38 41 30 63 80 46 66 58 51 36 25 20 20 20 24 50 88 96 100 98 88 82 83 77 78 73 80 83 88 89 98 100 97 81 97 91 92 70 72 99 100 100 100
46 43 41 31 45 32 49 61 52 43 26 25 22 26 22 30 49 63 90 99 100 96 91 84 91 84 79 74 77 76 77 98 97 83 77 91 87 90 100 100 100 100 100
35 42 46 44 34 32 31 32 38 28 25 25 26 27 25 19 25 36 47 75 89 97 94 99 94 100 90 81 75 74 80 81 84 84 64 68 77 100 100 100 100 96 100
26 30 41 43 43 45 38 32 33 28 26 27 30 32 30 26 26 24 26 30 43 68 70 90 100 100 100 100 91 76 71 71 87 87 88 86 100 100 100 100 90 100 100
24 24 26 30 38 44 43 46 40 36 28 25 29 24 28 29 37 52 47 46 60 63 72 100 100 86 97 100 100 97 97 86 91 100 100 97 100 100 100 100 100 100 100
15 20 20 20 24 33 39 37 36 34 32 30 28 26 23 31 36 24 28 38 58 73 87 74 76 87 93 97 98 98 92 100 100 100 100 100 100 100 95 99 100 95 96
14 15 17 19 18 18 22 21 21 26 25 25 32 29 22 34 20 19 36 33 46 70 75 89 94 68 90 92 100 100 100 100 100 100 100 93 100 98 100 100 100 75 50
12 13 15 17 17 16 17 18 18 19 20 22 24 25 22 24 24 22 23 39 36 73 93 90 100 93 82 89 100 100 100 100 100 100 100 100 95 100 100 76 50 74 58
8 9 11 14 17 21 20 19 19 18 15 20 30 27 24 26 27 26 27 39 40 61 100 88 98 100 100 100 85 100 100 100 100 100 100 100 100 100 100 88 68 64 68
6 7 9 9 12 18 21 18 18 18 20 25 26 29 25 24 28 22 24 32 30 29 86 100 100 100 100 100 100 100 100 100 100 100 100 100 92 84 70 72 90 67 73
5 5 7 9 9 12 16 20 20 24 24 30 26 29 29 27 32 32 28 31 38 33 34 99 100 100 100 100 100 100 100 100 93 90 100 100 100 86 81 75 71 97 71
4 5 5 8 9 10 13 28 32 31 40 27 28 31 29 26 26 33 29 26 39 34 32 97 100 100 100 100 100 100 100 100 100 100 100 100 97 74 66 71 100 96 74
3 4 5 7 10 13 16 25 31 31 34 33 32 30 27 25 25 35 31 26 38 36 32 94 100 100 100 100 100 100 100 100 100 100 100 94 84 83 92 100 100 95 80
2 3 5 6 9 14 20 18 19 21 27 35 34 32 27 26 28 27 32 36 36 30 59 94 100 100 100 100 100 100 100 100 97 100 97 93 100 100 100 100 99 99 98

GFSSE_250_rhum_120.txt.gz
RH
50 70 79 73 76 76 66 53 51 45 40 37 36 36 38 36 35 31 30 32 39 50 58 37 39 34 32 34 32 33 35 37 41 41 42 41 34 36 36 35 37 36 36
49 60 80 75 69 62 72 63 55 58 48 49 40 38 38 38 38 38 35 33 35 38 53 38 42 39 37 37 36 34 34 36 38 42 44 44 40 36 36 39 40 39 40
32 49 57 74 70 65 62 64 60 51 59 73 51 41 38 35 41 42 40 36 35 36 38 40 46 44 40 39 41 40 40 44 42 44 48 52 51 43 38 48 52 50 48
20 24 22 25 36 48 70 64 63 70 58 68 70 49 53 40 45 44 43 42 38 37 38 38 41 49 47 43 44 49 49 52 53 48 44 48 54 57 57 62 63 60 52
19 19 19 18 20 22 52 57 64 78 72 68 72 69 54 52 68 55 49 46 44 42 42 43 43 44 47 49 49 53 53 50 45 48 42 42 48 55 61 70 67 66 62
21 19 19 19 19 26 36 55 55 78 89 79 77 78 72 72 76 91 77 59 52 48 45 45 47 49 50 52 50 54 55 53 49 49 48 48 53 63 69 71 67 76 64
26 24 22 21 29 31 37 44 59 100 93 79 81 80 77 71 68 69 100 99 92 79 67 53 49 49 55 56 56 53 53 52 55 52 53 56 50 58 65 68 72 94 80
36 33 27 25 42 58 30 42 60 89 100 99 84 82 84 82 74 73 65 98 100 99 88 69 56 53 52 61 64 66 65 58 58 63 67 58 55 57 61 70 75 100 100
38 44 36 43 81 84 62 34 33 62 100 100 100 100 91 91 83 77 74 72 85 94 95 89 70 58 58 57 67 74 75 76 71 70 72 70 65 64 64 53 66 100 100
37 42 44 40 47 100 100 92 43 34 39 43 58 86 88 84 71 76 72 72 75 82 80 84 81 76 67 64 62 64 71 74 80 81 79 67 69 73 71 67 95 92 86
37 35 35 40 46 53 100 100 100 100 84 51 31 38 54 67 53 61 72 72 67 73 70 75 91 94 90 79 70 71 71 71 72 80 76 79 79 74 81 70 74 99 74
28 28 27 31 44 44 76 100 100 100 100 100 58 58 50 44 45 41 38 53 68 65 64 61 68 87 99 98 86 78 79 86 87 86 84 83 78 74 91 94 67 65 66
32 29 25 19 33 44 46 100 100 100 100 100 100 87 81 78 44 32 29 37 37 49 52 54 56 60 97 100 100 99 96 92 98 100 99 89 90 90 81 81 78 65 57
36 27 26 22 18 32 42 57 99 100 99 100 100 97 81 72 62 55 36 31 36 37 36 37 54 75 78 89 100 100 100 100 100 100 100 100 100 91 81 83 88 88 82
35 21 25 23 18 19 27 39 63 100 100 81 98 98 79 72 75 40 37 44 53 45 40 33 34 44 69 99 100 100 100 100 100 83 93 98 98 97 100 100 96 90 96
38 28 22 20 19 17 18 27 36 51 100 100 97 90 95 78 90 81 66 41 27 31 35 34 34 33 41 69 100 100 100 100 100 100 100 98 93 99 100 100 100 96 97
32 32 29 29 18 16 17 17 25 31 53 74 100 100 100 92 80 89 69 50 37 37 34 34 38 36 31 34 48 62 76 99 100 100 97 100 100 100 100 100 95 100 100
21 26 32 28 27 19 17 17 15 22 30 38 40 42 82 99 60 69 74 53 38 42 48 44 46 40 39 44 46 45 43 54 77 100 100 100 100 100 100 100 100 100 100
19 17 19 22 19 20 14 14 15 15 22 26 25 32 41 68 50 41 46 43 41 49 44 42 45 40 41 42 46 46 55 57 84 100 100 100 100 100 100 100 100 100 100
14 14 15 17 19 16 14 11 12 13 14 19 19 19 22 25 28 32 36 42 40 41 43 40 38 46 44 42 45 46 74 100 92 100 100 100 100 100 100 100 100 100 100
6 6 6 8 12 12 13 14 10 12 12 13 19 17 16 19 28 34 33 36 41 43 44 39 34 36 42 41 41 48 48 78 100 100 93 100 92 82 100 100 100 100 100
3 3 4 4 5 6 8 11 11 9 12 12 14 17 19 23 23 28 32 36 41 40 41 41 28 26 34 44 50 44 53 47 74 99 97 100 100 94 100 100 100 100 100
2 2 2 3 3 4 5 6 8 8 10 13 13 14 18 19 17 22 23 24 27 30 28 27 26 31 38 45 49 46 58 48 54 67 95 100 100 100 100 100 100 100 93
2 2 2 2 2 3 4 4 6 7 8 9 12 15 14 17 20 21 21 22 24 22 24 26 30 32 39 47 52 50 52 53 55 54 54 59 100 100 100 100 100 100 100
2 1 1 2 2 2 3 4 5 5 7 7 8 13 19 23 23 21 20 22 23 23 25 27 33 42 41 42 42 50 53 54 52 43 47 54 67 100 100 100 100 100 100
2 1 1 1 2 2 3 3 4 5 6 8 9 10 16 21 26 28 26 26 25 25 30 39 43 45 46 45 51 56 56 55 52 51 55 50 72 99 100 100 100 100 100

GFSSE_250_rhum_123.txt.gz
RH
43 51 45 56 86 77 74 73 56 55 62 58 57 55 42 40 38 37 33 32 31 34 34 42 44 34 36 34 36 36 36 36 38 38 41 45 46 39 38 37 41 42 41
24 37 44 46 67 87 81 81 84 80 75 67 60 45 43 43 42 39 38 35 35 33 32 34 38 36 37 36 37 37 39 38 44 46 45 46 52 51 42 37 49 50 47
24 30 45 44 42 58 83 75 66 70 76 80 76 66 62 53 45 44 39 39 39 38 35 34 36 36 38 39 41 41 40 43 44 47 43 42 44 51 56 58 64 61 57
22 23 28 40 44 50 62 70 63 56 60 72 74 67 72 67 48 48 46 44 41 39 40 37 38 38 38 41 44 46 43 42 42 45 45 43 45 49 54 60 67 74 70
26 24 20 22 26 45 54 69 77 66 54 55 64 77 72 71 56 62 55 62 58 49 43 43 42 43 43 43 44 46 46 44 44 44 44 44 42 40 48 60 72 70 68
25 34 70 26 22 25 21 31 37 44 48 47 53 67 78 75 76 78 53 64 83 77 65 54 49 47 46 47 48 47 48 48 49 49 45 46 46 43 40 52 59 63 76
30 27 31 38 32 29 24 30 37 40 54 52 48 56 77 76 78 86 72 71 77 100 100 94 85 73 64 53 50 50 53 51 52 55 55 48 52 52 46 43 45 54 83
37 43 53 31 29 31 52 74 48 45 56 76 63 60 81 77 82 81 84 85 89 91 89 100 100 96 84 71 56 55 55 61 64 62 60 60 60 62 57 50 46 43 54
39 36 47 43 41 28 34 94 92 88 60 60 70 90 100 98 92 96 91 98 96 94 100 100 100 98 92 90 84 66 62 61 64 68 68 66 71 75 66 62 63 52 53
36 34 42 44 48 46 37 61 98 100 98 59 61 74 100 100 100 97 92 98 98 95 90 96 100 99 99 98 89 88 77 69 68 71 70 76 76 72 73 74 79 92 85
43 37 35 38 42 46 58 46 62 100 100 99 78 54 59 79 89 97 99 95 95 92 86 80 79 96 100 100 100 100 100 98 93 76 82 87 89 90 87 86 76 88 96
48 46 36 32 34 35 39 42 50 66 100 100 100 100 93 61 49 37 40 56 73 78 67 72 75 71 73 82 81 83 88 99 100 96 85 79 82 97 100 99 89 86 89
44 49 43 44 49 36 33 34 35 43 74 100 100 100 100 96 86 80 48 45 41 46 47 47 57 68 76 69 68 77 84 94 100 100 100 100 99 96 100 100 100 100 94
42 31 46 44 43 41 35 26 26 40 54 84 100 100 100 100 78 79 93 86 70 66 61 52 40 38 43 64 75 61 60 84 100 100 100 96 100 100 90 67 91 100 100
46 32 30 36 43 43 48 35 26 26 28 55 98 100 100 100 100 73 76 84 76 79 78 65 52 46 46 45 43 46 76 100 85 86 100 100 100 100 100 100 98 96 85
36 34 27 31 38 39 31 39 28 23 24 31 63 100 100 100 100 89 91 77 70 76 87 88 44 33 34 33 36 33 35 38 59 100 100 100 100 100 100 89 98 100 100
25 27 30 29 30 31 28 25 32 22 20 26 30 71 95 100 100 92 85 89 80 84 100 90 75 48 35 37 37 36 36 37 41 43 46 59 80 100 100 100 80 79 89
26 25 28 27 26 23 25 26 26 27 22 21 20 37 70 92 100 100 96 100 97 80 86 96 78 47 48 48 42 38 40 46 44 47 44 54 45 45 70 96 100 100 100
28 26 21 22 29 31 23 22 22 22 22 18 21 21 29 55 78 99 100 100 100 95 89 66 76 56 51 51 44 43 41 42 42 40 42 62 73 80 96 100 100 100 100
43 34 30 22 19 20 31 32 23 19 20 19 15 17 23 26 51 62 67 69 58 88 98 62 46 49 51 58 54 47 41 40 42 48 45 44 52 67 70 81 100 100 100
34 29 21 14 19 26 24 23 22 17 14 17 18 14 16 20 25 33 45 36 37 47 71 58 45 46 50 52 54 51 46 41 36 44 47 57 52 56 56 74 98 100 100
8 8 8 8 7 8 10 11 11 15 18 14 15 16 14 13 16 20 31 27 26 38 41 39 41 40 44 50 49 50 50 42 35 38 43 53 61 59 55 62 56 63 91
7 5 4 4 4 3 4 5 6 6 8 12 12 13 13 12 13 17 19 20 19 23 28 35 32 34 32 35 40 38 36 32 33 46 50 55 58 55 55 63 66 61 74
4 3 3 3 2 2 2 3 3 4 5 7 10 10 8 10 14 17 17 14 18 20 26 33 32 33 32 32 28 31 28 28 33 42 48 56 58 56 62 62 66 65 64
3 3 3 2 2 2 2 2 2 3 3 4 5 6 7 7 8 12 16 18 16 18 21 27 30 29 28 30 30 31 32 33 40 36 44 55 56 64 64 69 64 60 65
2 2 2 2 2 2 2 2 2 2 2 3 3 4 5 6 7 9 12 15 20 21 21 22 28 31 28 27 32 33 37 35 41 44 50 56 56 56 56 55 52 62 61

GFSSE_250_rhum_126.txt.gz
RH
35 34 43 53 62 43 76 93 77 74 62 69 78 86 82 65 59 43 42 38 34 33 31 30 31 32 31 32 35 37 35 38 39 43 45 40 40 44 46 42 34 38 42
18 19 23 36 54 59 49 65 83 73 71 68 68 85 81 67 50 44 43 42 36 36 34 32 32 34 34 35 35 36 42 39 39 43 44 37 38 39 44 46 50 53 50
19 18 19 25 34 44 50 49 69 84 76 70 78 82 78 80 62 54 49 43 40 38 39 37 36 35 36 37 38 40 42 45 39 38 38 39 40 38 37 38 40 48 54
20 21 21 22 26 39 45 49 61 70 83 85 74 72 74 76 67 72 69 45 44 43 46 43 41 40 40 40 41 43 45 44 44 42 43 45 43 43 41 38 42 45 51
24 26 23 24 26 36 41 48 49 53 58 76 78 66 68 76 72 79 80 53 50 49 58 60 53 47 46 45 43 44 47 49 48 48 48 52 49 45 46 44 42 46 48
24 32 32 57 33 24 28 38 43 52 56 65 63 66 69 70 70 77 78 78 64 62 62 76 72 67 61 55 55 56 52 50 51 54 53 56 57 56 54 52 52 46 44
23 25 38 57 72 60 39 28 32 43 50 49 54 62 62 64 68 80 83 86 83 80 64 68 85 99 100 96 83 73 66 56 55 56 58 62 62 60 62 63 60 57 50
36 26 24 45 42 43 40 44 37 32 36 40 42 34 36 53 60 69 87 90 100 100 100 100 99 90 76 94 100 100 95 89 73 61 62 64 68 68 67 68 75 68 64
46 38 29 30 34 34 31 40 70 100 93 75 70 65 44 45 51 55 83 87 92 93 90 98 100 100 100 100 94 100 89 87 89 79 73 68 70 78 79 78 81 80 75
46 48 36 34 36 38 32 30 33 57 76 93 84 85 75 63 59 59 71 94 93 96 99 100 100 100 100 100 100 98 91 99 100 99 100 100 98 82 89 96 98 97 95
46 43 38 38 37 34 38 36 30 33 54 56 91 96 81 93 78 78 87 97 100 100 100 100 100 100 100 98 93 87 98 97 89 88 81 84 95 100 92 83 93 100 100
64 54 48 50 49 47 42 36 53 38 38 40 48 83 100 87 83 72 63 64 61 67 70 74 76 86 100 99 91 86 89 91 92 89 78 80 98 100 100 100 100 100 100
79 69 66 58 52 54 49 39 36 62 58 44 41 40 86 100 100 98 83 72 72 70 53 36 31 38 42 62 84 90 97 100 99 95 88 82 76 96 100 100 100 92 100
91 82 67 65 61 58 57 48 39 41 44 44 45 42 44 72 99 100 100 76 78 93 100 100 88 72 62 65 64 63 69 64 66 72 78 89 80 91 99 91 100 100 100
57 52 46 51 53 49 43 39 38 40 44 64 84 68 56 39 62 96 100 100 77 80 100 100 99 90 80 64 56 49 45 45 45 50 55 50 46 72 77 79 89 82 93
49 48 49 39 39 41 33 27 32 34 37 43 70 65 61 47 35 65 92 100 98 79 98 96 100 94 96 91 50 38 35 34 34 39 40 38 36 40 44 46 51 63 67
45 43 38 35 31 31 30 26 23 26 27 28 32 37 39 40 37 34 72 91 100 93 100 96 100 100 95 90 78 53 43 37 39 39 39 41 41 42 46 44 58 50 46
30 32 36 40 30 29 31 25 23 20 19 21 24 24 27 34 36 32 33 59 84 100 86 100 100 100 100 87 96 81 48 40 42 44 45 45 43 36 32 34 55 70 52
32 31 29 33 32 30 32 30 26 24 21 22 24 23 22 26 34 32 33 30 62 88 98 87 96 84 95 91 86 73 73 60 46 48 56 53 46 44 38 34 42 48 55
45 42 39 32 27 23 21 25 31 31 26 18 19 22 24 27 29 32 31 34 32 68 81 99 100 100 99 97 100 90 64 54 55 57 52 55 53 50 44 41 42 51 53
34 33 33 29 20 18 21 19 18 24 30 24 25 22 22 22 22 28 32 29 25 30 63 79 93 100 100 93 91 96 88 56 52 53 55 57 56 50 45 39 41 49 58
18 18 18 17 15 10 10 10 14 16 22 25 28 24 18 17 18 22 27 34 40 28 27 33 73 81 70 64 48 53 73 54 50 48 47 45 52 50 41 37 42 50 58
8 8 8 7 7 6 6 6 7 8 10 12 14 18 13 12 13 11 15 21 33 37 28 26 28 52 56 46 37 40 48 44 43 46 43 42 41 36 36 35 39 42 47
7 6 6 5 4 4 4 3 3 4 4 6 5 6 8 7 9 9 10 12 18 24 26 25 24 26 28 34 28 31 35 37 40 36 41 43 36 36 35 38 39 43 49
6 5 4 4 3 3 3 3 3 3 3 3 3 4 4 5 6 6 8 8 9 13 18 25 28 20 21 27 28 27 27 28 26 27 28 33 34 35 36 35 40 51 53
4 4 3 3 3 3 3 3 3 4 4 4 4 3 3 3 4 5 5 6 7 9 12 14 19 24 23 22 22 24 26 29 28 30 31 29 31 33 33 39 42 42 54

GFSSE_250_rhum_129.txt.gz
RH
70 44 47 54 56 57 53 55 52 65 82 75 58 61 81 92 89 78 62 47 42 42 38 36 34 32 33 33 34 36 37 40 44 42 41 38 35 37 34 34 34 38 37
31 28 27 30 34 37 36 48 59 53 89 82 62 57 60 61 69 62 53 47 44 43 40 35 36 36 35 35 36 38 40 43 47 47 49 47 45 41 40 36 33 35 38
17 18 18 20 21 20 24 38 55 61 83 93 86 77 69 64 76 72 59 54 54 45 42 39 39 38 40 39 39 40 42 45 48 47 46 49 54 51 46 43 39 40 41
20 19 19 21 20 20 22 35 46 50 53 75 93 90 91 85 83 78 73 69 65 56 47 42 46 48 44 43 44 44 44 44 47 50 51 49 51 57 55 53 51 49 48
26 25 25 24 21 21 24 28 34 45 46 47 60 83 94 92 78 73 73 74 71 77 51 51 51 60 62 54 52 51 50 52 53 51 52 54 56 58 60 59 59 58 56
22 26 52 41 45 70 28 34 46 57 60 62 55 48 44 62 85 75 65 64 72 81 83 58 59 63 76 76 74 73 68 64 62 60 56 57 59 60 63 62 61 64 67
18 22 25 68 64 87 90 74 45 35 50 65 64 60 51 51 57 63 72 72 64 71 88 81 76 63 66 74 98 100 100 100 87 75 76 67 62 63 66 70 72 70 68
21 18 20 22 30 53 57 65 59 62 63 43 43 44 56 56 51 51 61 77 75 68 82 93 99 91 75 76 72 75 89 100 100 100 98 92 84 79 72 72 79 86 86
38 30 23 22 23 25 27 33 39 52 76 97 95 82 62 49 46 45 38 44 71 76 79 78 98 98 97 98 90 83 80 81 89 88 87 85 89 86 98 99 98 91 96
56 52 40 30 28 26 25 28 29 41 50 97 98 94 100 100 89 68 60 51 59 76 75 86 89 88 93 87 86 96 100 100 98 95 96 86 83 93 99 74 86 100 99
57 63 64 58 37 33 31 29 32 29 35 42 51 57 59 78 94 100 86 60 58 65 69 71 90 96 100 100 100 100 100 100 100 96 94 98 100 100 100 90 81 100 100
62 66 70 72 64 61 56 36 35 37 30 35 40 45 44 48 58 70 97 100 95 77 75 71 74 77 82 87 91 94 94 99 100 100 96 92 95 94 92 86 84 72 77
74 74 72 82 82 80 74 68 55 47 41 39 36 37 53 53 48 47 63 99 100 100 98 84 69 68 52 49 43 34 42 58 68 77 85 86 89 88 76 80 83 78 88
88 84 85 89 93 86 83 82 74 72 52 51 62 44 41 49 50 53 53 60 81 100 100 93 82 87 100 94 80 76 74 65 67 71 71 65 56 44 48 55 61 68 61
99 93 86 82 74 67 62 60 64 70 71 53 44 42 37 34 56 93 82 87 61 60 91 100 100 90 100 100 98 87 81 72 61 55 50 45 43 40 39 42 42 37 44
58 48 51 51 46 45 47 46 45 46 40 45 50 42 30 31 64 83 94 76 73 64 46 79 100 96 99 100 100 99 96 58 38 35 36 37 38 40 40 40 37 40 41
53 50 48 48 46 45 43 40 39 40 42 40 33 36 36 34 35 59 68 64 66 67 61 54 76 84 91 100 100 100 100 84 53 46 45 45 46 44 48 48 48 46 42
60 55 48 49 47 49 46 42 42 37 33 40 40 30 30 28 30 31 34 34 39 51 58 59 53 82 83 93 95 99 97 100 77 79 86 72 58 46 49 48 52 53 49
51 43 40 36 37 38 39 41 38 30 27 28 36 34 28 30 28 27 28 29 29 32 48 61 59 48 72 80 82 91 91 91 90 88 85 68 58 52 48 49 51 54 57
80 63 47 36 29 27 28 27 26 28 24 22 25 31 28 26 25 29 28 29 30 32 31 40 54 68 49 46 82 72 80 96 90 97 97 90 83 70 55 56 56 54 51
46 39 39 35 26 24 22 20 17 16 17 20 22 22 23 27 27 30 31 32 37 41 42 36 44 49 56 55 39 75 97 100 100 100 94 91 88 91 72 56 58 54 47
29 24 23 23 22 19 17 15 13 11 11 13 13 14 18 20 20 19 25 26 27 31 30 30 34 43 47 44 41 36 56 84 89 99 98 80 63 51 69 54 55 53 47
15 12 11 11 11 10 9 9 9 8 8 9 10 9 10 11 13 14 13 15 14 15 25 23 26 24 28 37 43 46 35 43 67 77 78 67 61 44 48 49 48 47 42
9 9 9 8 7 5 4 4 4 4 4 4 5 6 6 7 8 8 8 10 11 13 13 12 14 17 22 28 33 45 51 39 30 42 60 61 53 39 37 42 40 41 36
9 8 7 6 6 5 4 4 4 4 4 5 4 4 4 4 4 4 4 6 8 11 10 12 11 12 16 23 26 29 39 40 30 28 34 39 40 43 37 32 32 33 35
8 7 7 6 5 4 4 4 4 4 4 3 4 4 5 5 5 5 5 6 7 6 6 7 8 10 10 14 29 27 29 42 43 29 28 31 34 41 38 45 42 36 40